<?xml version="1.0" encoding="UTF-8"?>
<gpx version="1.0" creator="Trackator" xmlns:xsi="http://www.w3.org/2001/XMLSchema-instance" xmlns="http://www.topografix.com/GPX/1/0" xmlns:topografix="http://www.topografix.com/GPX/Private/TopoGrafix/0/1" xsi:schemaLocation="http://www.topografix.com/GPX/1/0 http://www.topografix.com/GPX/1/0/gpx.xsd http://www.topografix.com/GPX/Private/TopoGrafix/0/1 http://www.topografix.com/GPX/Private/TopoGrafix/0/1/topografix.xsd">
<metadata>
<link href="http://www.trackator.com">
<text>Trackator</text>
</link>
</metadata>
<time>2013-09-20T:42:41Z</time>
<trk>
<name>Track: </name>
<desc>Paragliding</desc>
<trkseg>
<trkpt lat="38.23205173" lon="-1.12057171">
<ele>427</ele>
<time>2013-09-20T:42:41Z</time>
</trkpt>
<trkpt lat="38.23205829" lon="-1.12058731">
<ele>428</ele>
<time>2013-09-20T18:42:43Z</time>
</trkpt>
<trkpt lat="38.23205101" lon="-1.12056812">
<ele>428</ele>
<time>2013-09-20T18:42:45Z</time>
</trkpt>
<trkpt lat="38.23204573" lon="-1.1205549">
<ele>429</ele>
<time>2013-09-20T18:42:47Z</time>
</trkpt>
<trkpt lat="38.23204526" lon="-1.12055234">
<ele>429</ele>
<time>2013-09-20T18:42:49Z</time>
</trkpt>
<trkpt lat="38.2320451" lon="-1.12055537">
<ele>430</ele>
<time>2013-09-20T18:42:51Z</time>
</trkpt>
<trkpt lat="38.23204403" lon="-1.12056121">
<ele>430</ele>
<time>2013-09-20T18:42:53Z</time>
</trkpt>
<trkpt lat="38.23204032" lon="-1.12055288">
<ele>429</ele>
<time>2013-09-20T18:42:55Z</time>
</trkpt>
<trkpt lat="38.23203688" lon="-1.12054347">
<ele>428</ele>
<time>2013-09-20T18:42:57Z</time>
</trkpt>
<trkpt lat="38.23203643" lon="-1.12054168">
<ele>428</ele>
<time>2013-09-20T18:42:59Z</time>
</trkpt>
<trkpt lat="38.23203627" lon="-1.12054077">
<ele>428</ele>
<time>2013-09-20T18:43:01Z</time>
</trkpt>
<trkpt lat="38.23203631" lon="-1.12054037">
<ele>428</ele>
<time>2013-09-20T18:43:03Z</time>
</trkpt>
<trkpt lat="38.23203631" lon="-1.12054037">
<ele>428</ele>
<time>2013-09-20T18:43:05Z</time>
</trkpt>
<trkpt lat="38.23203652" lon="-1.12054038">
<ele>428</ele>
<time>2013-09-20T18:43:07Z</time>
</trkpt>
<trkpt lat="38.23203661" lon="-1.12054041">
<ele>428</ele>
<time>2013-09-20T18:43:09Z</time>
</trkpt>
<trkpt lat="38.23203661" lon="-1.12054041">
<ele>428</ele>
<time>2013-09-20T18:43:11Z</time>
</trkpt>
<trkpt lat="38.23203667" lon="-1.12054039">
<ele>428</ele>
<time>2013-09-20T18:43:13Z</time>
</trkpt>
<trkpt lat="38.23203667" lon="-1.12054038">
<ele>428</ele>
<time>2013-09-20T18:43:15Z</time>
</trkpt>
<trkpt lat="38.23203669" lon="-1.12054037">
<ele>428</ele>
<time>2013-09-20T18:43:17Z</time>
</trkpt>
<trkpt lat="38.23203669" lon="-1.12054037">
<ele>428</ele>
<time>2013-09-20T18:43:19Z</time>
</trkpt>
<trkpt lat="38.23203696" lon="-1.1205398">
<ele>428</ele>
<time>2013-09-20T18:43:21Z</time>
</trkpt>
<trkpt lat="38.23203712" lon="-1.12053954">
<ele>428</ele>
<time>2013-09-20T18:43:23Z</time>
</trkpt>
<trkpt lat="38.23203687" lon="-1.12053965">
<ele>428</ele>
<time>2013-09-20T18:43:25Z</time>
</trkpt>
<trkpt lat="38.23203078" lon="-1.12053408">
<ele>428</ele>
<time>2013-09-20T18:43:27Z</time>
</trkpt>
<trkpt lat="38.23202133" lon="-1.12052432">
<ele>427</ele>
<time>2013-09-20T18:43:29Z</time>
</trkpt>
<trkpt lat="38.23201043" lon="-1.12050935">
<ele>429</ele>
<time>2013-09-20T18:43:31Z</time>
</trkpt>
<trkpt lat="38.23200155" lon="-1.12049589">
<ele>429</ele>
<time>2013-09-20T18:43:33Z</time>
</trkpt>
<trkpt lat="38.23199816" lon="-1.12048538">
<ele>429</ele>
<time>2013-09-20T18:43:35Z</time>
</trkpt>
<trkpt lat="38.23200475" lon="-1.12048102">
<ele>428</ele>
<time>2013-09-20T18:43:37Z</time>
</trkpt>
<trkpt lat="38.23200867" lon="-1.12048337">
<ele>429</ele>
<time>2013-09-20T18:43:39Z</time>
</trkpt>
<trkpt lat="38.23201051" lon="-1.12048409">
<ele>430</ele>
<time>2013-09-20T18:43:41Z</time>
</trkpt>
<trkpt lat="38.23200793" lon="-1.1204819">
<ele>431</ele>
<time>2013-09-20T18:43:43Z</time>
</trkpt>
<trkpt lat="38.23200497" lon="-1.12048112">
<ele>431</ele>
<time>2013-09-20T18:43:45Z</time>
</trkpt>
<trkpt lat="38.23200201" lon="-1.12047925">
<ele>431</ele>
<time>2013-09-20T18:43:47Z</time>
</trkpt>
<trkpt lat="38.23200095" lon="-1.1204779">
<ele>431</ele>
<time>2013-09-20T18:43:49Z</time>
</trkpt>
<trkpt lat="38.23200055" lon="-1.12047737">
<ele>431</ele>
<time>2013-09-20T18:43:51Z</time>
</trkpt>
<trkpt lat="38.23200042" lon="-1.12047677">
<ele>431</ele>
<time>2013-09-20T18:43:53Z</time>
</trkpt>
<trkpt lat="38.2320001" lon="-1.12047623">
<ele>431</ele>
<time>2013-09-20T18:43:55Z</time>
</trkpt>
<trkpt lat="38.23200006" lon="-1.12047609">
<ele>431</ele>
<time>2013-09-20T18:43:57Z</time>
</trkpt>
<trkpt lat="38.23200007" lon="-1.12047611">
<ele>431</ele>
<time>2013-09-20T18:43:59Z</time>
</trkpt>
<trkpt lat="38.2320001" lon="-1.12047631">
<ele>431</ele>
<time>2013-09-20T18:44:01Z</time>
</trkpt>
<trkpt lat="38.23200014" lon="-1.12047627">
<ele>431</ele>
<time>2013-09-20T18:44:03Z</time>
</trkpt>
<trkpt lat="38.2320001" lon="-1.12047622">
<ele>431</ele>
<time>2013-09-20T18:44:05Z</time>
</trkpt>
<trkpt lat="38.2320001" lon="-1.12047622">
<ele>431</ele>
<time>2013-09-20T18:44:07Z</time>
</trkpt>
<trkpt lat="38.2320001" lon="-1.12047615">
<ele>431</ele>
<time>2013-09-20T18:44:09Z</time>
</trkpt>
<trkpt lat="38.23200012" lon="-1.12047613">
<ele>431</ele>
<time>2013-09-20T18:44:11Z</time>
</trkpt>
<trkpt lat="38.23200013" lon="-1.12047612">
<ele>431</ele>
<time>2013-09-20T18:44:13Z</time>
</trkpt>
<trkpt lat="38.23200011" lon="-1.12047612">
<ele>431</ele>
<time>2013-09-20T18:44:15Z</time>
</trkpt>
<trkpt lat="38.23200253" lon="-1.12047604">
<ele>431</ele>
<time>2013-09-20T18:44:17Z</time>
</trkpt>
<trkpt lat="38.23200401" lon="-1.12047884">
<ele>432</ele>
<time>2013-09-20T18:44:19Z</time>
</trkpt>
<trkpt lat="38.23200164" lon="-1.12047738">
<ele>432</ele>
<time>2013-09-20T18:44:21Z</time>
</trkpt>
<trkpt lat="38.23200187" lon="-1.12047982">
<ele>432</ele>
<time>2013-09-20T18:44:23Z</time>
</trkpt>
<trkpt lat="38.23200199" lon="-1.12048045">
<ele>433</ele>
<time>2013-09-20T18:44:25Z</time>
</trkpt>
<trkpt lat="38.23200385" lon="-1.12048173">
<ele>433</ele>
<time>2013-09-20T18:44:27Z</time>
</trkpt>
<trkpt lat="38.23200566" lon="-1.12048412">
<ele>434</ele>
<time>2013-09-20T18:44:29Z</time>
</trkpt>
<trkpt lat="38.23200671" lon="-1.12048452">
<ele>434</ele>
<time>2013-09-20T18:44:31Z</time>
</trkpt>
<trkpt lat="38.23200709" lon="-1.12048618">
<ele>434</ele>
<time>2013-09-20T18:44:33Z</time>
</trkpt>
<trkpt lat="38.23200465" lon="-1.12049007">
<ele>434</ele>
<time>2013-09-20T18:44:35Z</time>
</trkpt>
<trkpt lat="38.23200291" lon="-1.12048861">
<ele>434</ele>
<time>2013-09-20T18:44:37Z</time>
</trkpt>
<trkpt lat="38.23200209" lon="-1.12048612">
<ele>434</ele>
<time>2013-09-20T18:44:39Z</time>
</trkpt>
<trkpt lat="38.23200069" lon="-1.12048451">
<ele>434</ele>
<time>2013-09-20T18:44:41Z</time>
</trkpt>
<trkpt lat="38.23199992" lon="-1.12048102">
<ele>434</ele>
<time>2013-09-20T18:44:43Z</time>
</trkpt>
<trkpt lat="38.23199663" lon="-1.12047872">
<ele>434</ele>
<time>2013-09-20T18:44:45Z</time>
</trkpt>
<trkpt lat="38.23199596" lon="-1.12047852">
<ele>434</ele>
<time>2013-09-20T18:44:47Z</time>
</trkpt>
<trkpt lat="38.23199597" lon="-1.12047892">
<ele>434</ele>
<time>2013-09-20T18:44:49Z</time>
</trkpt>
<trkpt lat="38.23199555" lon="-1.12047789">
<ele>434</ele>
<time>2013-09-20T18:44:51Z</time>
</trkpt>
<trkpt lat="38.23199505" lon="-1.12047647">
<ele>434</ele>
<time>2013-09-20T18:44:53Z</time>
</trkpt>
<trkpt lat="38.2319948" lon="-1.12047592">
<ele>434</ele>
<time>2013-09-20T18:44:55Z</time>
</trkpt>
<trkpt lat="38.23199471" lon="-1.12047577">
<ele>434</ele>
<time>2013-09-20T18:44:57Z</time>
</trkpt>
<trkpt lat="38.2319947" lon="-1.12047572">
<ele>434</ele>
<time>2013-09-20T18:44:59Z</time>
</trkpt>
<trkpt lat="38.2319947" lon="-1.12047571">
<ele>434</ele>
<time>2013-09-20T18:45:01Z</time>
</trkpt>
<trkpt lat="38.23199471" lon="-1.1204757">
<ele>434</ele>
<time>2013-09-20T18:45:03Z</time>
</trkpt>
<trkpt lat="38.23199474" lon="-1.12047568">
<ele>434</ele>
<time>2013-09-20T18:45:05Z</time>
</trkpt>
<trkpt lat="38.23199478" lon="-1.12047566">
<ele>434</ele>
<time>2013-09-20T18:45:07Z</time>
</trkpt>
<trkpt lat="38.23199472" lon="-1.12047562">
<ele>434</ele>
<time>2013-09-20T18:45:09Z</time>
</trkpt>
<trkpt lat="38.2319947" lon="-1.12047559">
<ele>434</ele>
<time>2013-09-20T18:45:11Z</time>
</trkpt>
<trkpt lat="38.2319947" lon="-1.12047558">
<ele>435</ele>
<time>2013-09-20T18:45:13Z</time>
</trkpt>
<trkpt lat="38.2319947" lon="-1.12047558">
<ele>434</ele>
<time>2013-09-20T18:45:15Z</time>
</trkpt>
<trkpt lat="38.23199467" lon="-1.12047554">
<ele>435</ele>
<time>2013-09-20T18:45:17Z</time>
</trkpt>
<trkpt lat="38.23199465" lon="-1.12047552">
<ele>435</ele>
<time>2013-09-20T18:45:19Z</time>
</trkpt>
<trkpt lat="38.23199464" lon="-1.12047552">
<ele>435</ele>
<time>2013-09-20T18:45:21Z</time>
</trkpt>
<trkpt lat="38.23199464" lon="-1.12047552">
<ele>435</ele>
<time>2013-09-20T18:45:23Z</time>
</trkpt>
<trkpt lat="38.23199462" lon="-1.12047552">
<ele>435</ele>
<time>2013-09-20T18:45:25Z</time>
</trkpt>
<trkpt lat="38.23199462" lon="-1.12047551">
<ele>435</ele>
<time>2013-09-20T18:45:27Z</time>
</trkpt>
<trkpt lat="38.23199463" lon="-1.12047547">
<ele>435</ele>
<time>2013-09-20T18:45:29Z</time>
</trkpt>
<trkpt lat="38.23199465" lon="-1.12047541">
<ele>435</ele>
<time>2013-09-20T18:45:31Z</time>
</trkpt>
<trkpt lat="38.23199469" lon="-1.12047538">
<ele>435</ele>
<time>2013-09-20T18:45:33Z</time>
</trkpt>
<trkpt lat="38.2319947" lon="-1.12047533">
<ele>435</ele>
<time>2013-09-20T18:45:35Z</time>
</trkpt>
<trkpt lat="38.23199475" lon="-1.12047531">
<ele>435</ele>
<time>2013-09-20T18:45:37Z</time>
</trkpt>
<trkpt lat="38.23199477" lon="-1.1204753">
<ele>435</ele>
<time>2013-09-20T18:45:39Z</time>
</trkpt>
<trkpt lat="38.2319948" lon="-1.12047529">
<ele>435</ele>
<time>2013-09-20T18:45:41Z</time>
</trkpt>
<trkpt lat="38.23199481" lon="-1.12047528">
<ele>435</ele>
<time>2013-09-20T18:45:43Z</time>
</trkpt>
<trkpt lat="38.23199482" lon="-1.12047528">
<ele>435</ele>
<time>2013-09-20T18:45:45Z</time>
</trkpt>
<trkpt lat="38.23199484" lon="-1.12047528">
<ele>435</ele>
<time>2013-09-20T18:45:47Z</time>
</trkpt>
<trkpt lat="38.23199483" lon="-1.12047534">
<ele>435</ele>
<time>2013-09-20T18:45:49Z</time>
</trkpt>
<trkpt lat="38.23199484" lon="-1.12047536">
<ele>435</ele>
<time>2013-09-20T18:45:51Z</time>
</trkpt>
<trkpt lat="38.23199485" lon="-1.12047535">
<ele>435</ele>
<time>2013-09-20T18:45:53Z</time>
</trkpt>
<trkpt lat="38.23199485" lon="-1.12047531">
<ele>435</ele>
<time>2013-09-20T18:45:55Z</time>
</trkpt>
<trkpt lat="38.23199485" lon="-1.1204753">
<ele>435</ele>
<time>2013-09-20T18:45:57Z</time>
</trkpt>
<trkpt lat="38.23199485" lon="-1.12047529">
<ele>435</ele>
<time>2013-09-20T18:45:59Z</time>
</trkpt>
<trkpt lat="38.23199485" lon="-1.12047528">
<ele>435</ele>
<time>2013-09-20T18:46:01Z</time>
</trkpt>
<trkpt lat="38.23199485" lon="-1.12047528">
<ele>435</ele>
<time>2013-09-20T18:46:03Z</time>
</trkpt>
<trkpt lat="38.23199486" lon="-1.12047524">
<ele>435</ele>
<time>2013-09-20T18:46:05Z</time>
</trkpt>
<trkpt lat="38.23199493" lon="-1.12047526">
<ele>435</ele>
<time>2013-09-20T18:46:07Z</time>
</trkpt>
<trkpt lat="38.23199499" lon="-1.12047527">
<ele>435</ele>
<time>2013-09-20T18:46:09Z</time>
</trkpt>
<trkpt lat="38.231995" lon="-1.12047526">
<ele>435</ele>
<time>2013-09-20T18:46:11Z</time>
</trkpt>
<trkpt lat="38.231995" lon="-1.12047527">
<ele>435</ele>
<time>2013-09-20T18:46:13Z</time>
</trkpt>
<trkpt lat="38.231995" lon="-1.12047528">
<ele>435</ele>
<time>2013-09-20T18:46:15Z</time>
</trkpt>
<trkpt lat="38.23199505" lon="-1.12047518">
<ele>435</ele>
<time>2013-09-20T18:46:17Z</time>
</trkpt>
<trkpt lat="38.231995" lon="-1.12047514">
<ele>435</ele>
<time>2013-09-20T18:46:19Z</time>
</trkpt>
<trkpt lat="38.231995" lon="-1.12047514">
<ele>435</ele>
<time>2013-09-20T18:46:21Z</time>
</trkpt>
<trkpt lat="38.23199501" lon="-1.12047507">
<ele>435</ele>
<time>2013-09-20T18:46:23Z</time>
</trkpt>
<trkpt lat="38.23199501" lon="-1.12047507">
<ele>435</ele>
<time>2013-09-20T18:46:25Z</time>
</trkpt>
<trkpt lat="38.23190209" lon="-1.12043612">
<ele>437</ele>
<time>2013-09-20T18:46:27Z</time>
</trkpt>
<trkpt lat="38.23184178" lon="-1.12041855">
<ele>436</ele>
<time>2013-09-20T18:46:29Z</time>
</trkpt>
<trkpt lat="38.23177959" lon="-1.12041636">
<ele>440</ele>
<time>2013-09-20T18:46:31Z</time>
</trkpt>
<trkpt lat="38.23172113" lon="-1.12043658">
<ele>444</ele>
<time>2013-09-20T18:46:33Z</time>
</trkpt>
<trkpt lat="38.23166091" lon="-1.12043757">
<ele>441</ele>
<time>2013-09-20T18:46:35Z</time>
</trkpt>
<trkpt lat="38.23161635" lon="-1.12045307">
<ele>439</ele>
<time>2013-09-20T18:46:37Z</time>
</trkpt>
<trkpt lat="38.23156161" lon="-1.12043192">
<ele>441</ele>
<time>2013-09-20T18:46:39Z</time>
</trkpt>
<trkpt lat="38.23150705" lon="-1.12042409">
<ele>444</ele>
<time>2013-09-20T18:46:41Z</time>
</trkpt>
<trkpt lat="38.23144665" lon="-1.12042899">
<ele>445</ele>
<time>2013-09-20T18:46:43Z</time>
</trkpt>
<trkpt lat="38.23138289" lon="-1.1204096">
<ele>445</ele>
<time>2013-09-20T18:46:45Z</time>
</trkpt>
<trkpt lat="38.23131803" lon="-1.12040931">
<ele>446</ele>
<time>2013-09-20T18:46:47Z</time>
</trkpt>
<trkpt lat="38.23126021" lon="-1.12039784">
<ele>446</ele>
<time>2013-09-20T18:46:49Z</time>
</trkpt>
<trkpt lat="38.23121232" lon="-1.12037901">
<ele>444</ele>
<time>2013-09-20T18:46:51Z</time>
</trkpt>
<trkpt lat="38.23120659" lon="-1.12031934">
<ele>444</ele>
<time>2013-09-20T18:46:53Z</time>
</trkpt>
<trkpt lat="38.23124807" lon="-1.12022934">
<ele>442</ele>
<time>2013-09-20T18:46:55Z</time>
</trkpt>
<trkpt lat="38.23126685" lon="-1.12015191">
<ele>444</ele>
<time>2013-09-20T18:46:57Z</time>
</trkpt>
<trkpt lat="38.2313397" lon="-1.12004863">
<ele>447</ele>
<time>2013-09-20T18:46:59Z</time>
</trkpt>
<trkpt lat="38.23142587" lon="-1.1199525">
<ele>446</ele>
<time>2013-09-20T18:47:01Z</time>
</trkpt>
<trkpt lat="38.23149702" lon="-1.11989433">
<ele>447</ele>
<time>2013-09-20T18:47:03Z</time>
</trkpt>
<trkpt lat="38.2315895" lon="-1.11977809">
<ele>447</ele>
<time>2013-09-20T18:47:05Z</time>
</trkpt>
<trkpt lat="38.23166638" lon="-1.11969155">
<ele>448</ele>
<time>2013-09-20T18:47:07Z</time>
</trkpt>
<trkpt lat="38.23179993" lon="-1.11954243">
<ele>448</ele>
<time>2013-09-20T18:47:09Z</time>
</trkpt>
<trkpt lat="38.2318719" lon="-1.11945916">
<ele>448</ele>
<time>2013-09-20T18:47:11Z</time>
</trkpt>
<trkpt lat="38.23193612" lon="-1.11939218">
<ele>448</ele>
<time>2013-09-20T18:47:13Z</time>
</trkpt>
<trkpt lat="38.23195045" lon="-1.11928647">
<ele>449</ele>
<time>2013-09-20T18:47:15Z</time>
</trkpt>
<trkpt lat="38.2319957" lon="-1.11922314">
<ele>450</ele>
<time>2013-09-20T18:47:17Z</time>
</trkpt>
<trkpt lat="38.23205616" lon="-1.11915868">
<ele>448</ele>
<time>2013-09-20T18:47:19Z</time>
</trkpt>
<trkpt lat="38.23211808" lon="-1.11908865">
<ele>447</ele>
<time>2013-09-20T18:47:21Z</time>
</trkpt>
<trkpt lat="38.23217618" lon="-1.11898827">
<ele>448</ele>
<time>2013-09-20T18:47:23Z</time>
</trkpt>
<trkpt lat="38.2322082" lon="-1.11886618">
<ele>448</ele>
<time>2013-09-20T18:47:25Z</time>
</trkpt>
<trkpt lat="38.23222859" lon="-1.11878056">
<ele>449</ele>
<time>2013-09-20T18:47:27Z</time>
</trkpt>
<trkpt lat="38.23227777" lon="-1.11870042">
<ele>449</ele>
<time>2013-09-20T18:47:29Z</time>
</trkpt>
<trkpt lat="38.23231201" lon="-1.11856001">
<ele>449</ele>
<time>2013-09-20T18:47:31Z</time>
</trkpt>
<trkpt lat="38.23233299" lon="-1.11842154">
<ele>450</ele>
<time>2013-09-20T18:47:33Z</time>
</trkpt>
<trkpt lat="38.23235433" lon="-1.11837841">
<ele>457</ele>
<time>2013-09-20T18:47:35Z</time>
</trkpt>
<trkpt lat="38.23237946" lon="-1.1183315">
<ele>462</ele>
<time>2013-09-20T18:47:37Z</time>
</trkpt>
<trkpt lat="38.23235257" lon="-1.11818272">
<ele>461</ele>
<time>2013-09-20T18:47:39Z</time>
</trkpt>
<trkpt lat="38.23236031" lon="-1.11809977">
<ele>464</ele>
<time>2013-09-20T18:47:41Z</time>
</trkpt>
<trkpt lat="38.23239756" lon="-1.11809282">
<ele>463</ele>
<time>2013-09-20T18:47:43Z</time>
</trkpt>
<trkpt lat="38.23241864" lon="-1.11805496">
<ele>465</ele>
<time>2013-09-20T18:47:45Z</time>
</trkpt>
<trkpt lat="38.23246968" lon="-1.1178988">
<ele>465</ele>
<time>2013-09-20T18:47:47Z</time>
</trkpt>
<trkpt lat="38.23249409" lon="-1.11781308">
<ele>464</ele>
<time>2013-09-20T18:47:49Z</time>
</trkpt>
<trkpt lat="38.23249322" lon="-1.11773767">
<ele>466</ele>
<time>2013-09-20T18:47:51Z</time>
</trkpt>
<trkpt lat="38.23252174" lon="-1.11766388">
<ele>467</ele>
<time>2013-09-20T18:47:53Z</time>
</trkpt>
<trkpt lat="38.23255317" lon="-1.11759753">
<ele>467</ele>
<time>2013-09-20T18:47:55Z</time>
</trkpt>
<trkpt lat="38.23257534" lon="-1.1175053">
<ele>467</ele>
<time>2013-09-20T18:47:57Z</time>
</trkpt>
<trkpt lat="38.23260069" lon="-1.11741891">
<ele>470</ele>
<time>2013-09-20T18:47:59Z</time>
</trkpt>
<trkpt lat="38.23260822" lon="-1.11733119">
<ele>469</ele>
<time>2013-09-20T18:48:01Z</time>
</trkpt>
<trkpt lat="38.23261434" lon="-1.11723959">
<ele>468</ele>
<time>2013-09-20T18:48:03Z</time>
</trkpt>
<trkpt lat="38.23262326" lon="-1.11715504">
<ele>468</ele>
<time>2013-09-20T18:48:05Z</time>
</trkpt>
<trkpt lat="38.23264557" lon="-1.11703298">
<ele>470</ele>
<time>2013-09-20T18:48:07Z</time>
</trkpt>
<trkpt lat="38.23266047" lon="-1.11692425">
<ele>471</ele>
<time>2013-09-20T18:48:09Z</time>
</trkpt>
<trkpt lat="38.23267048" lon="-1.11680365">
<ele>471</ele>
<time>2013-09-20T18:48:11Z</time>
</trkpt>
<trkpt lat="38.2326718" lon="-1.11672552">
<ele>474</ele>
<time>2013-09-20T18:48:13Z</time>
</trkpt>
<trkpt lat="38.2326641" lon="-1.11667014">
<ele>478</ele>
<time>2013-09-20T18:48:15Z</time>
</trkpt>
<trkpt lat="38.23265347" lon="-1.11660259">
<ele>479</ele>
<time>2013-09-20T18:48:17Z</time>
</trkpt>
<trkpt lat="38.23265699" lon="-1.11653213">
<ele>479</ele>
<time>2013-09-20T18:48:19Z</time>
</trkpt>
<trkpt lat="38.23270429" lon="-1.11641242">
<ele>477</ele>
<time>2013-09-20T18:48:21Z</time>
</trkpt>
<trkpt lat="38.23269601" lon="-1.11637588">
<ele>475</ele>
<time>2013-09-20T18:48:23Z</time>
</trkpt>
<trkpt lat="38.23269065" lon="-1.11629959">
<ele>474</ele>
<time>2013-09-20T18:48:25Z</time>
</trkpt>
<trkpt lat="38.23267582" lon="-1.11619873">
<ele>474</ele>
<time>2013-09-20T18:48:27Z</time>
</trkpt>
<trkpt lat="38.23267671" lon="-1.11609772">
<ele>477</ele>
<time>2013-09-20T18:48:29Z</time>
</trkpt>
<trkpt lat="38.23267449" lon="-1.11601319">
<ele>478</ele>
<time>2013-09-20T18:48:31Z</time>
</trkpt>
<trkpt lat="38.23266346" lon="-1.11599709">
<ele>481</ele>
<time>2013-09-20T18:48:33Z</time>
</trkpt>
<trkpt lat="38.23263275" lon="-1.11599119">
<ele>481</ele>
<time>2013-09-20T18:48:35Z</time>
</trkpt>
<trkpt lat="38.23263963" lon="-1.11590359">
<ele>482</ele>
<time>2013-09-20T18:48:37Z</time>
</trkpt>
<trkpt lat="38.23264728" lon="-1.11582054">
<ele>485</ele>
<time>2013-09-20T18:48:39Z</time>
</trkpt>
<trkpt lat="38.23265415" lon="-1.11575745">
<ele>487</ele>
<time>2013-09-20T18:48:41Z</time>
</trkpt>
<trkpt lat="38.23265911" lon="-1.11569482">
<ele>488</ele>
<time>2013-09-20T18:48:43Z</time>
</trkpt>
<trkpt lat="38.23262793" lon="-1.11562796">
<ele>488</ele>
<time>2013-09-20T18:48:45Z</time>
</trkpt>
<trkpt lat="38.23255934" lon="-1.11564552">
<ele>490</ele>
<time>2013-09-20T18:48:47Z</time>
</trkpt>
<trkpt lat="38.23252094" lon="-1.11560706">
<ele>489</ele>
<time>2013-09-20T18:48:49Z</time>
</trkpt>
<trkpt lat="38.23247886" lon="-1.11557452">
<ele>489</ele>
<time>2013-09-20T18:48:51Z</time>
</trkpt>
<trkpt lat="38.23250872" lon="-1.11553545">
<ele>492</ele>
<time>2013-09-20T18:48:53Z</time>
</trkpt>
<trkpt lat="38.23249293" lon="-1.11546023">
<ele>489</ele>
<time>2013-09-20T18:48:55Z</time>
</trkpt>
<trkpt lat="38.23248305" lon="-1.1153922">
<ele>488</ele>
<time>2013-09-20T18:48:57Z</time>
</trkpt>
<trkpt lat="38.23247556" lon="-1.11532819">
<ele>487</ele>
<time>2013-09-20T18:48:59Z</time>
</trkpt>
<trkpt lat="38.23247629" lon="-1.11526507">
<ele>486</ele>
<time>2013-09-20T18:49:01Z</time>
</trkpt>
<trkpt lat="38.23247014" lon="-1.11518733">
<ele>487</ele>
<time>2013-09-20T18:49:03Z</time>
</trkpt>
<trkpt lat="38.23248231" lon="-1.1151243">
<ele>487</ele>
<time>2013-09-20T18:49:05Z</time>
</trkpt>
<trkpt lat="38.23250621" lon="-1.11503964">
<ele>486</ele>
<time>2013-09-20T18:49:07Z</time>
</trkpt>
<trkpt lat="38.23251283" lon="-1.11495029">
<ele>486</ele>
<time>2013-09-20T18:49:09Z</time>
</trkpt>
<trkpt lat="38.23253777" lon="-1.11486903">
<ele>486</ele>
<time>2013-09-20T18:49:11Z</time>
</trkpt>
<trkpt lat="38.23256615" lon="-1.11479377">
<ele>486</ele>
<time>2013-09-20T18:49:13Z</time>
</trkpt>
<trkpt lat="38.23256131" lon="-1.11473886">
<ele>483</ele>
<time>2013-09-20T18:49:15Z</time>
</trkpt>
<trkpt lat="38.23256287" lon="-1.11465254">
<ele>483</ele>
<time>2013-09-20T18:49:17Z</time>
</trkpt>
<trkpt lat="38.23254862" lon="-1.11456961">
<ele>484</ele>
<time>2013-09-20T18:49:19Z</time>
</trkpt>
<trkpt lat="38.23254722" lon="-1.11449452">
<ele>484</ele>
<time>2013-09-20T18:49:21Z</time>
</trkpt>
<trkpt lat="38.2325435" lon="-1.11441962">
<ele>485</ele>
<time>2013-09-20T18:49:23Z</time>
</trkpt>
<trkpt lat="38.23254532" lon="-1.11433996">
<ele>485</ele>
<time>2013-09-20T18:49:25Z</time>
</trkpt>
<trkpt lat="38.23256851" lon="-1.1143049">
<ele>485</ele>
<time>2013-09-20T18:49:27Z</time>
</trkpt>
<trkpt lat="38.23260463" lon="-1.11421342">
<ele>485</ele>
<time>2013-09-20T18:49:29Z</time>
</trkpt>
<trkpt lat="38.23261406" lon="-1.11415635">
<ele>486</ele>
<time>2013-09-20T18:49:31Z</time>
</trkpt>
<trkpt lat="38.23262138" lon="-1.11410704">
<ele>486</ele>
<time>2013-09-20T18:49:33Z</time>
</trkpt>
<trkpt lat="38.23263207" lon="-1.11406385">
<ele>484</ele>
<time>2013-09-20T18:49:35Z</time>
</trkpt>
<trkpt lat="38.23263924" lon="-1.11398469">
<ele>484</ele>
<time>2013-09-20T18:49:37Z</time>
</trkpt>
<trkpt lat="38.23263831" lon="-1.11392115">
<ele>485</ele>
<time>2013-09-20T18:49:39Z</time>
</trkpt>
<trkpt lat="38.23263959" lon="-1.11384164">
<ele>485</ele>
<time>2013-09-20T18:49:41Z</time>
</trkpt>
<trkpt lat="38.23264948" lon="-1.11373408">
<ele>484</ele>
<time>2013-09-20T18:49:43Z</time>
</trkpt>
<trkpt lat="38.23266275" lon="-1.11362493">
<ele>483</ele>
<time>2013-09-20T18:49:45Z</time>
</trkpt>
<trkpt lat="38.23266891" lon="-1.11351888">
<ele>481</ele>
<time>2013-09-20T18:49:47Z</time>
</trkpt>
<trkpt lat="38.23265999" lon="-1.11341816">
<ele>480</ele>
<time>2013-09-20T18:49:49Z</time>
</trkpt>
<trkpt lat="38.23266466" lon="-1.11332389">
<ele>479</ele>
<time>2013-09-20T18:49:51Z</time>
</trkpt>
<trkpt lat="38.23265782" lon="-1.11324217">
<ele>480</ele>
<time>2013-09-20T18:49:53Z</time>
</trkpt>
<trkpt lat="38.2326559" lon="-1.11314924">
<ele>482</ele>
<time>2013-09-20T18:49:55Z</time>
</trkpt>
<trkpt lat="38.23267101" lon="-1.11309512">
<ele>481</ele>
<time>2013-09-20T18:49:57Z</time>
</trkpt>
<trkpt lat="38.23267658" lon="-1.11300698">
<ele>480</ele>
<time>2013-09-20T18:49:59Z</time>
</trkpt>
<trkpt lat="38.23269121" lon="-1.11289219">
<ele>478</ele>
<time>2013-09-20T18:50:01Z</time>
</trkpt>
<trkpt lat="38.23270459" lon="-1.11284279">
<ele>477</ele>
<time>2013-09-20T18:50:03Z</time>
</trkpt>
<trkpt lat="38.23267608" lon="-1.11277471">
<ele>475</ele>
<time>2013-09-20T18:50:05Z</time>
</trkpt>
<trkpt lat="38.23267621" lon="-1.11268286">
<ele>475</ele>
<time>2013-09-20T18:50:07Z</time>
</trkpt>
<trkpt lat="38.23269815" lon="-1.11260839">
<ele>479</ele>
<time>2013-09-20T18:50:09Z</time>
</trkpt>
<trkpt lat="38.23271668" lon="-1.11259661">
<ele>481</ele>
<time>2013-09-20T18:50:11Z</time>
</trkpt>
<trkpt lat="38.23271244" lon="-1.11255654">
<ele>479</ele>
<time>2013-09-20T18:50:13Z</time>
</trkpt>
<trkpt lat="38.23270254" lon="-1.11246901">
<ele>479</ele>
<time>2013-09-20T18:50:15Z</time>
</trkpt>
<trkpt lat="38.23273072" lon="-1.11242717">
<ele>483</ele>
<time>2013-09-20T18:50:17Z</time>
</trkpt>
<trkpt lat="38.23273208" lon="-1.1124123">
<ele>481</ele>
<time>2013-09-20T18:50:19Z</time>
</trkpt>
<trkpt lat="38.23272617" lon="-1.1123347">
<ele>480</ele>
<time>2013-09-20T18:50:21Z</time>
</trkpt>
<trkpt lat="38.23274739" lon="-1.1122581">
<ele>483</ele>
<time>2013-09-20T18:50:23Z</time>
</trkpt>
<trkpt lat="38.23278353" lon="-1.11222016">
<ele>482</ele>
<time>2013-09-20T18:50:25Z</time>
</trkpt>
<trkpt lat="38.23280548" lon="-1.11214231">
<ele>479</ele>
<time>2013-09-20T18:50:27Z</time>
</trkpt>
<trkpt lat="38.23283893" lon="-1.11204944">
<ele>479</ele>
<time>2013-09-20T18:50:29Z</time>
</trkpt>
<trkpt lat="38.23287086" lon="-1.11199111">
<ele>479</ele>
<time>2013-09-20T18:50:31Z</time>
</trkpt>
<trkpt lat="38.23288444" lon="-1.11193565">
<ele>479</ele>
<time>2013-09-20T18:50:33Z</time>
</trkpt>
<trkpt lat="38.23290429" lon="-1.11187471">
<ele>478</ele>
<time>2013-09-20T18:50:35Z</time>
</trkpt>
<trkpt lat="38.23292465" lon="-1.11180312">
<ele>477</ele>
<time>2013-09-20T18:50:37Z</time>
</trkpt>
<trkpt lat="38.23295632" lon="-1.11171811">
<ele>478</ele>
<time>2013-09-20T18:50:39Z</time>
</trkpt>
<trkpt lat="38.23302737" lon="-1.11160314">
<ele>478</ele>
<time>2013-09-20T18:50:41Z</time>
</trkpt>
<trkpt lat="38.23306056" lon="-1.11149799">
<ele>479</ele>
<time>2013-09-20T18:50:43Z</time>
</trkpt>
<trkpt lat="38.23309668" lon="-1.11140861">
<ele>478</ele>
<time>2013-09-20T18:50:45Z</time>
</trkpt>
<trkpt lat="38.23316246" lon="-1.1113018">
<ele>479</ele>
<time>2013-09-20T18:50:47Z</time>
</trkpt>
<trkpt lat="38.23323129" lon="-1.11121779">
<ele>480</ele>
<time>2013-09-20T18:50:49Z</time>
</trkpt>
<trkpt lat="38.23330403" lon="-1.11112959">
<ele>481</ele>
<time>2013-09-20T18:50:51Z</time>
</trkpt>
<trkpt lat="38.23336629" lon="-1.11105226">
<ele>482</ele>
<time>2013-09-20T18:50:53Z</time>
</trkpt>
<trkpt lat="38.23341941" lon="-1.11098575">
<ele>486</ele>
<time>2013-09-20T18:50:55Z</time>
</trkpt>
<trkpt lat="38.23341727" lon="-1.11089322">
<ele>492</ele>
<time>2013-09-20T18:50:57Z</time>
</trkpt>
<trkpt lat="38.23341989" lon="-1.11080172">
<ele>495</ele>
<time>2013-09-20T18:50:59Z</time>
</trkpt>
<trkpt lat="38.23343931" lon="-1.11069663">
<ele>496</ele>
<time>2013-09-20T18:51:01Z</time>
</trkpt>
<trkpt lat="38.23348091" lon="-1.11059747">
<ele>497</ele>
<time>2013-09-20T18:51:03Z</time>
</trkpt>
<trkpt lat="38.23348777" lon="-1.1105211">
<ele>498</ele>
<time>2013-09-20T18:51:05Z</time>
</trkpt>
<trkpt lat="38.23349647" lon="-1.11037673">
<ele>502</ele>
<time>2013-09-20T18:51:07Z</time>
</trkpt>
<trkpt lat="38.23352704" lon="-1.11029062">
<ele>503</ele>
<time>2013-09-20T18:51:09Z</time>
</trkpt>
<trkpt lat="38.23357555" lon="-1.11022014">
<ele>503</ele>
<time>2013-09-20T18:51:11Z</time>
</trkpt>
<trkpt lat="38.23360673" lon="-1.11012193">
<ele>503</ele>
<time>2013-09-20T18:51:13Z</time>
</trkpt>
<trkpt lat="38.23365749" lon="-1.11008709">
<ele>505</ele>
<time>2013-09-20T18:51:15Z</time>
</trkpt>
<trkpt lat="38.23371498" lon="-1.11002523">
<ele>507</ele>
<time>2013-09-20T18:51:17Z</time>
</trkpt>
<trkpt lat="38.23376747" lon="-1.10993146">
<ele>509</ele>
<time>2013-09-20T18:51:19Z</time>
</trkpt>
<trkpt lat="38.23383642" lon="-1.10980825">
<ele>514</ele>
<time>2013-09-20T18:51:21Z</time>
</trkpt>
<trkpt lat="38.23392682" lon="-1.10974001">
<ele>513</ele>
<time>2013-09-20T18:51:23Z</time>
</trkpt>
<trkpt lat="38.23400974" lon="-1.10967826">
<ele>511</ele>
<time>2013-09-20T18:51:25Z</time>
</trkpt>
<trkpt lat="38.23409472" lon="-1.10959018">
<ele>514</ele>
<time>2013-09-20T18:51:27Z</time>
</trkpt>
<trkpt lat="38.23419339" lon="-1.10954443">
<ele>513</ele>
<time>2013-09-20T18:51:29Z</time>
</trkpt>
<trkpt lat="38.23430388" lon="-1.10946405">
<ele>512</ele>
<time>2013-09-20T18:51:31Z</time>
</trkpt>
<trkpt lat="38.23439365" lon="-1.10938955">
<ele>513</ele>
<time>2013-09-20T18:51:33Z</time>
</trkpt>
<trkpt lat="38.23448031" lon="-1.10931355">
<ele>513</ele>
<time>2013-09-20T18:51:35Z</time>
</trkpt>
<trkpt lat="38.23457409" lon="-1.10922577">
<ele>516</ele>
<time>2013-09-20T18:51:37Z</time>
</trkpt>
<trkpt lat="38.23465716" lon="-1.10913749">
<ele>515</ele>
<time>2013-09-20T18:51:39Z</time>
</trkpt>
<trkpt lat="38.23475072" lon="-1.10903646">
<ele>517</ele>
<time>2013-09-20T18:51:41Z</time>
</trkpt>
<trkpt lat="38.23484253" lon="-1.10893261">
<ele>520</ele>
<time>2013-09-20T18:51:43Z</time>
</trkpt>
<trkpt lat="38.2349169" lon="-1.10884059">
<ele>521</ele>
<time>2013-09-20T18:51:45Z</time>
</trkpt>
<trkpt lat="38.23501917" lon="-1.10873927">
<ele>522</ele>
<time>2013-09-20T18:51:47Z</time>
</trkpt>
<trkpt lat="38.23513087" lon="-1.1086408">
<ele>524</ele>
<time>2013-09-20T18:51:49Z</time>
</trkpt>
<trkpt lat="38.23521607" lon="-1.10853684">
<ele>526</ele>
<time>2013-09-20T18:51:51Z</time>
</trkpt>
<trkpt lat="38.23535772" lon="-1.10842233">
<ele>526</ele>
<time>2013-09-20T18:51:53Z</time>
</trkpt>
<trkpt lat="38.23548627" lon="-1.10832749">
<ele>534</ele>
<time>2013-09-20T18:51:55Z</time>
</trkpt>
<trkpt lat="38.23558601" lon="-1.10824849">
<ele>539</ele>
<time>2013-09-20T18:51:57Z</time>
</trkpt>
<trkpt lat="38.23567973" lon="-1.10815403">
<ele>541</ele>
<time>2013-09-20T18:51:59Z</time>
</trkpt>
<trkpt lat="38.23577692" lon="-1.10800015">
<ele>544</ele>
<time>2013-09-20T18:52:01Z</time>
</trkpt>
<trkpt lat="38.23583617" lon="-1.1079255">
<ele>549</ele>
<time>2013-09-20T18:52:03Z</time>
</trkpt>
<trkpt lat="38.23590356" lon="-1.10786245">
<ele>553</ele>
<time>2013-09-20T18:52:05Z</time>
</trkpt>
<trkpt lat="38.23597547" lon="-1.10775312">
<ele>557</ele>
<time>2013-09-20T18:52:07Z</time>
</trkpt>
<trkpt lat="38.23599861" lon="-1.10763276">
<ele>561</ele>
<time>2013-09-20T18:52:09Z</time>
</trkpt>
<trkpt lat="38.23599771" lon="-1.10755038">
<ele>566</ele>
<time>2013-09-20T18:52:11Z</time>
</trkpt>
<trkpt lat="38.23600231" lon="-1.10747917">
<ele>567</ele>
<time>2013-09-20T18:52:13Z</time>
</trkpt>
<trkpt lat="38.23598988" lon="-1.10739221">
<ele>569</ele>
<time>2013-09-20T18:52:15Z</time>
</trkpt>
<trkpt lat="38.23596594" lon="-1.10733673">
<ele>569</ele>
<time>2013-09-20T18:52:17Z</time>
</trkpt>
<trkpt lat="38.23592884" lon="-1.10726205">
<ele>569</ele>
<time>2013-09-20T18:52:19Z</time>
</trkpt>
<trkpt lat="38.23587871" lon="-1.10719879">
<ele>570</ele>
<time>2013-09-20T18:52:21Z</time>
</trkpt>
<trkpt lat="38.23581175" lon="-1.10714376">
<ele>572</ele>
<time>2013-09-20T18:52:23Z</time>
</trkpt>
<trkpt lat="38.23574722" lon="-1.10716163">
<ele>573</ele>
<time>2013-09-20T18:52:25Z</time>
</trkpt>
<trkpt lat="38.23561509" lon="-1.1072091">
<ele>573</ele>
<time>2013-09-20T18:52:27Z</time>
</trkpt>
<trkpt lat="38.23549266" lon="-1.10727256">
<ele>574</ele>
<time>2013-09-20T18:52:29Z</time>
</trkpt>
<trkpt lat="38.2354051" lon="-1.10741088">
<ele>578</ele>
<time>2013-09-20T18:52:31Z</time>
</trkpt>
<trkpt lat="38.23531112" lon="-1.10751173">
<ele>577</ele>
<time>2013-09-20T18:52:33Z</time>
</trkpt>
<trkpt lat="38.23522006" lon="-1.10761735">
<ele>578</ele>
<time>2013-09-20T18:52:35Z</time>
</trkpt>
<trkpt lat="38.23511811" lon="-1.10773787">
<ele>579</ele>
<time>2013-09-20T18:52:37Z</time>
</trkpt>
<trkpt lat="38.23506431" lon="-1.10786966">
<ele>580</ele>
<time>2013-09-20T18:52:39Z</time>
</trkpt>
<trkpt lat="38.23495757" lon="-1.10801279">
<ele>579</ele>
<time>2013-09-20T18:52:41Z</time>
</trkpt>
<trkpt lat="38.23483249" lon="-1.10818332">
<ele>582</ele>
<time>2013-09-20T18:52:43Z</time>
</trkpt>
<trkpt lat="38.23476726" lon="-1.10836264">
<ele>584</ele>
<time>2013-09-20T18:52:45Z</time>
</trkpt>
<trkpt lat="38.23469244" lon="-1.10859075">
<ele>585</ele>
<time>2013-09-20T18:52:47Z</time>
</trkpt>
<trkpt lat="38.23459516" lon="-1.10878915">
<ele>585</ele>
<time>2013-09-20T18:52:49Z</time>
</trkpt>
<trkpt lat="38.23454699" lon="-1.1090189">
<ele>586</ele>
<time>2013-09-20T18:52:51Z</time>
</trkpt>
<trkpt lat="38.23449541" lon="-1.10919578">
<ele>586</ele>
<time>2013-09-20T18:52:53Z</time>
</trkpt>
<trkpt lat="38.23440777" lon="-1.10939465">
<ele>586</ele>
<time>2013-09-20T18:52:55Z</time>
</trkpt>
<trkpt lat="38.23431645" lon="-1.10956746">
<ele>587</ele>
<time>2013-09-20T18:52:57Z</time>
</trkpt>
<trkpt lat="38.2342059" lon="-1.10961211">
<ele>584</ele>
<time>2013-09-20T18:52:59Z</time>
</trkpt>
<trkpt lat="38.23416244" lon="-1.10958072">
<ele>580</ele>
<time>2013-09-20T18:53:01Z</time>
</trkpt>
<trkpt lat="38.23416069" lon="-1.10948808">
<ele>578</ele>
<time>2013-09-20T18:53:03Z</time>
</trkpt>
<trkpt lat="38.23424421" lon="-1.10940336">
<ele>578</ele>
<time>2013-09-20T18:53:05Z</time>
</trkpt>
<trkpt lat="38.23436087" lon="-1.10931706">
<ele>579</ele>
<time>2013-09-20T18:53:07Z</time>
</trkpt>
<trkpt lat="38.23448736" lon="-1.1092869">
<ele>578</ele>
<time>2013-09-20T18:53:09Z</time>
</trkpt>
<trkpt lat="38.23462881" lon="-1.10924898">
<ele>576</ele>
<time>2013-09-20T18:53:11Z</time>
</trkpt>
<trkpt lat="38.23478411" lon="-1.10919356">
<ele>576</ele>
<time>2013-09-20T18:53:13Z</time>
</trkpt>
<trkpt lat="38.23491168" lon="-1.10915588">
<ele>577</ele>
<time>2013-09-20T18:53:15Z</time>
</trkpt>
<trkpt lat="38.23506605" lon="-1.1090905">
<ele>576</ele>
<time>2013-09-20T18:53:17Z</time>
</trkpt>
<trkpt lat="38.23522297" lon="-1.109007">
<ele>578</ele>
<time>2013-09-20T18:53:19Z</time>
</trkpt>
<trkpt lat="38.23536386" lon="-1.1089567">
<ele>579</ele>
<time>2013-09-20T18:53:21Z</time>
</trkpt>
<trkpt lat="38.23550309" lon="-1.10886024">
<ele>580</ele>
<time>2013-09-20T18:53:23Z</time>
</trkpt>
<trkpt lat="38.23562122" lon="-1.10875964">
<ele>582</ele>
<time>2013-09-20T18:53:25Z</time>
</trkpt>
<trkpt lat="38.23573536" lon="-1.10866424">
<ele>584</ele>
<time>2013-09-20T18:53:27Z</time>
</trkpt>
<trkpt lat="38.23582372" lon="-1.10855718">
<ele>586</ele>
<time>2013-09-20T18:53:29Z</time>
</trkpt>
<trkpt lat="38.235902" lon="-1.10846971">
<ele>589</ele>
<time>2013-09-20T18:53:31Z</time>
</trkpt>
<trkpt lat="38.23598512" lon="-1.10837954">
<ele>593</ele>
<time>2013-09-20T18:53:33Z</time>
</trkpt>
<trkpt lat="38.23602822" lon="-1.10831592">
<ele>592</ele>
<time>2013-09-20T18:53:35Z</time>
</trkpt>
<trkpt lat="38.2360951" lon="-1.10820853">
<ele>592</ele>
<time>2013-09-20T18:53:37Z</time>
</trkpt>
<trkpt lat="38.23616307" lon="-1.1081118">
<ele>592</ele>
<time>2013-09-20T18:53:39Z</time>
</trkpt>
<trkpt lat="38.23615966" lon="-1.10801958">
<ele>597</ele>
<time>2013-09-20T18:53:41Z</time>
</trkpt>
<trkpt lat="38.23620378" lon="-1.10791935">
<ele>599</ele>
<time>2013-09-20T18:53:43Z</time>
</trkpt>
<trkpt lat="38.23629223" lon="-1.10787668">
<ele>606</ele>
<time>2013-09-20T18:53:45Z</time>
</trkpt>
<trkpt lat="38.23634427" lon="-1.1077711">
<ele>605</ele>
<time>2013-09-20T18:53:47Z</time>
</trkpt>
<trkpt lat="38.23640312" lon="-1.1076898">
<ele>605</ele>
<time>2013-09-20T18:53:49Z</time>
</trkpt>
<trkpt lat="38.23637979" lon="-1.10759411">
<ele>615</ele>
<time>2013-09-20T18:53:51Z</time>
</trkpt>
<trkpt lat="38.23639179" lon="-1.10750938">
<ele>617</ele>
<time>2013-09-20T18:53:53Z</time>
</trkpt>
<trkpt lat="38.23640082" lon="-1.10746985">
<ele>621</ele>
<time>2013-09-20T18:53:55Z</time>
</trkpt>
<trkpt lat="38.23638605" lon="-1.10743745">
<ele>622</ele>
<time>2013-09-20T18:53:57Z</time>
</trkpt>
<trkpt lat="38.2363706" lon="-1.10738078">
<ele>624</ele>
<time>2013-09-20T18:53:59Z</time>
</trkpt>
<trkpt lat="38.2363282" lon="-1.10735525">
<ele>624</ele>
<time>2013-09-20T18:54:01Z</time>
</trkpt>
<trkpt lat="38.23627043" lon="-1.10735627">
<ele>625</ele>
<time>2013-09-20T18:54:03Z</time>
</trkpt>
<trkpt lat="38.23617821" lon="-1.10734641">
<ele>627</ele>
<time>2013-09-20T18:54:05Z</time>
</trkpt>
<trkpt lat="38.23604996" lon="-1.10750141">
<ele>625</ele>
<time>2013-09-20T18:54:07Z</time>
</trkpt>
<trkpt lat="38.23594524" lon="-1.10766796">
<ele>625</ele>
<time>2013-09-20T18:54:09Z</time>
</trkpt>
<trkpt lat="38.23586517" lon="-1.10790082">
<ele>626</ele>
<time>2013-09-20T18:54:11Z</time>
</trkpt>
<trkpt lat="38.23579697" lon="-1.10813054">
<ele>624</ele>
<time>2013-09-20T18:54:13Z</time>
</trkpt>
<trkpt lat="38.23577947" lon="-1.10838693">
<ele>624</ele>
<time>2013-09-20T18:54:15Z</time>
</trkpt>
<trkpt lat="38.23574245" lon="-1.10867027">
<ele>622</ele>
<time>2013-09-20T18:54:17Z</time>
</trkpt>
<trkpt lat="38.23571347" lon="-1.10896565">
<ele>623</ele>
<time>2013-09-20T18:54:19Z</time>
</trkpt>
<trkpt lat="38.2356747" lon="-1.1092422">
<ele>624</ele>
<time>2013-09-20T18:54:21Z</time>
</trkpt>
<trkpt lat="38.23560632" lon="-1.10948551">
<ele>623</ele>
<time>2013-09-20T18:54:23Z</time>
</trkpt>
<trkpt lat="38.23554698" lon="-1.10974718">
<ele>623</ele>
<time>2013-09-20T18:54:25Z</time>
</trkpt>
<trkpt lat="38.23551798" lon="-1.11002178">
<ele>622</ele>
<time>2013-09-20T18:54:27Z</time>
</trkpt>
<trkpt lat="38.23547557" lon="-1.11028454">
<ele>625</ele>
<time>2013-09-20T18:54:29Z</time>
</trkpt>
<trkpt lat="38.23542484" lon="-1.11054033">
<ele>628</ele>
<time>2013-09-20T18:54:31Z</time>
</trkpt>
<trkpt lat="38.23536924" lon="-1.11078289">
<ele>629</ele>
<time>2013-09-20T18:54:33Z</time>
</trkpt>
<trkpt lat="38.23526063" lon="-1.11091655">
<ele>632</ele>
<time>2013-09-20T18:54:35Z</time>
</trkpt>
<trkpt lat="38.23513301" lon="-1.11103012">
<ele>630</ele>
<time>2013-09-20T18:54:37Z</time>
</trkpt>
<trkpt lat="38.23501094" lon="-1.11112659">
<ele>630</ele>
<time>2013-09-20T18:54:39Z</time>
</trkpt>
<trkpt lat="38.2349225" lon="-1.11119794">
<ele>630</ele>
<time>2013-09-20T18:54:41Z</time>
</trkpt>
<trkpt lat="38.23481589" lon="-1.11124977">
<ele>631</ele>
<time>2013-09-20T18:54:43Z</time>
</trkpt>
<trkpt lat="38.23471885" lon="-1.11125359">
<ele>630</ele>
<time>2013-09-20T18:54:45Z</time>
</trkpt>
<trkpt lat="38.23466416" lon="-1.11120394">
<ele>632</ele>
<time>2013-09-20T18:54:47Z</time>
</trkpt>
<trkpt lat="38.23463227" lon="-1.11114102">
<ele>631</ele>
<time>2013-09-20T18:54:49Z</time>
</trkpt>
<trkpt lat="38.23463535" lon="-1.11111415">
<ele>632</ele>
<time>2013-09-20T18:54:51Z</time>
</trkpt>
<trkpt lat="38.23464569" lon="-1.11098968">
<ele>630</ele>
<time>2013-09-20T18:54:53Z</time>
</trkpt>
<trkpt lat="38.23466825" lon="-1.11087648">
<ele>634</ele>
<time>2013-09-20T18:54:55Z</time>
</trkpt>
<trkpt lat="38.23470607" lon="-1.11076945">
<ele>638</ele>
<time>2013-09-20T18:54:57Z</time>
</trkpt>
<trkpt lat="38.23476029" lon="-1.11073754">
<ele>637</ele>
<time>2013-09-20T18:54:59Z</time>
</trkpt>
<trkpt lat="38.23481578" lon="-1.11067553">
<ele>637</ele>
<time>2013-09-20T18:55:01Z</time>
</trkpt>
<trkpt lat="38.23488946" lon="-1.11059882">
<ele>641</ele>
<time>2013-09-20T18:55:03Z</time>
</trkpt>
<trkpt lat="38.23491702" lon="-1.11051439">
<ele>640</ele>
<time>2013-09-20T18:55:05Z</time>
</trkpt>
<trkpt lat="38.23495676" lon="-1.11041189">
<ele>641</ele>
<time>2013-09-20T18:55:07Z</time>
</trkpt>
<trkpt lat="38.23499043" lon="-1.11032108">
<ele>644</ele>
<time>2013-09-20T18:55:09Z</time>
</trkpt>
<trkpt lat="38.23502068" lon="-1.11025682">
<ele>644</ele>
<time>2013-09-20T18:55:11Z</time>
</trkpt>
<trkpt lat="38.23506363" lon="-1.11019016">
<ele>643</ele>
<time>2013-09-20T18:55:13Z</time>
</trkpt>
<trkpt lat="38.23510831" lon="-1.11013272">
<ele>641</ele>
<time>2013-09-20T18:55:15Z</time>
</trkpt>
<trkpt lat="38.23512324" lon="-1.11006291">
<ele>643</ele>
<time>2013-09-20T18:55:17Z</time>
</trkpt>
<trkpt lat="38.23514474" lon="-1.10999215">
<ele>646</ele>
<time>2013-09-20T18:55:19Z</time>
</trkpt>
<trkpt lat="38.23518461" lon="-1.10994831">
<ele>642</ele>
<time>2013-09-20T18:55:21Z</time>
</trkpt>
<trkpt lat="38.23521704" lon="-1.10986529">
<ele>644</ele>
<time>2013-09-20T18:55:23Z</time>
</trkpt>
<trkpt lat="38.23525274" lon="-1.10977785">
<ele>644</ele>
<time>2013-09-20T18:55:25Z</time>
</trkpt>
<trkpt lat="38.23531961" lon="-1.10974484">
<ele>643</ele>
<time>2013-09-20T18:55:27Z</time>
</trkpt>
<trkpt lat="38.23539414" lon="-1.10965606">
<ele>642</ele>
<time>2013-09-20T18:55:29Z</time>
</trkpt>
<trkpt lat="38.23547789" lon="-1.10954901">
<ele>642</ele>
<time>2013-09-20T18:55:31Z</time>
</trkpt>
<trkpt lat="38.23557533" lon="-1.1094662">
<ele>643</ele>
<time>2013-09-20T18:55:33Z</time>
</trkpt>
<trkpt lat="38.23566857" lon="-1.10938188">
<ele>642</ele>
<time>2013-09-20T18:55:35Z</time>
</trkpt>
<trkpt lat="38.23575988" lon="-1.10930896">
<ele>645</ele>
<time>2013-09-20T18:55:37Z</time>
</trkpt>
<trkpt lat="38.23584385" lon="-1.10922759">
<ele>645</ele>
<time>2013-09-20T18:55:39Z</time>
</trkpt>
<trkpt lat="38.23587401" lon="-1.10912088">
<ele>645</ele>
<time>2013-09-20T18:55:41Z</time>
</trkpt>
<trkpt lat="38.23591352" lon="-1.10903127">
<ele>643</ele>
<time>2013-09-20T18:55:43Z</time>
</trkpt>
<trkpt lat="38.2359608" lon="-1.10893482">
<ele>642</ele>
<time>2013-09-20T18:55:45Z</time>
</trkpt>
<trkpt lat="38.23599044" lon="-1.10883479">
<ele>642</ele>
<time>2013-09-20T18:55:47Z</time>
</trkpt>
<trkpt lat="38.23603573" lon="-1.10876088">
<ele>641</ele>
<time>2013-09-20T18:55:49Z</time>
</trkpt>
<trkpt lat="38.23608329" lon="-1.10867028">
<ele>642</ele>
<time>2013-09-20T18:55:51Z</time>
</trkpt>
<trkpt lat="38.236161" lon="-1.10857137">
<ele>645</ele>
<time>2013-09-20T18:55:53Z</time>
</trkpt>
<trkpt lat="38.23622467" lon="-1.1084618">
<ele>647</ele>
<time>2013-09-20T18:55:55Z</time>
</trkpt>
<trkpt lat="38.23628584" lon="-1.10835349">
<ele>651</ele>
<time>2013-09-20T18:55:57Z</time>
</trkpt>
<trkpt lat="38.2363699" lon="-1.10830533">
<ele>652</ele>
<time>2013-09-20T18:55:59Z</time>
</trkpt>
<trkpt lat="38.23643747" lon="-1.10822518">
<ele>653</ele>
<time>2013-09-20T18:56:01Z</time>
</trkpt>
<trkpt lat="38.23650071" lon="-1.10815163">
<ele>654</ele>
<time>2013-09-20T18:56:03Z</time>
</trkpt>
<trkpt lat="38.23650977" lon="-1.10802409">
<ele>661</ele>
<time>2013-09-20T18:56:05Z</time>
</trkpt>
<trkpt lat="38.23648995" lon="-1.1079503">
<ele>664</ele>
<time>2013-09-20T18:56:07Z</time>
</trkpt>
<trkpt lat="38.23650746" lon="-1.10790361">
<ele>667</ele>
<time>2013-09-20T18:56:09Z</time>
</trkpt>
<trkpt lat="38.23654244" lon="-1.10781634">
<ele>666</ele>
<time>2013-09-20T18:56:11Z</time>
</trkpt>
<trkpt lat="38.23656023" lon="-1.10769702">
<ele>666</ele>
<time>2013-09-20T18:56:13Z</time>
</trkpt>
<trkpt lat="38.23653345" lon="-1.10759358">
<ele>668</ele>
<time>2013-09-20T18:56:15Z</time>
</trkpt>
<trkpt lat="38.236505" lon="-1.10752637">
<ele>672</ele>
<time>2013-09-20T18:56:17Z</time>
</trkpt>
<trkpt lat="38.23643777" lon="-1.10745423">
<ele>673</ele>
<time>2013-09-20T18:56:19Z</time>
</trkpt>
<trkpt lat="38.23637253" lon="-1.10739479">
<ele>672</ele>
<time>2013-09-20T18:56:21Z</time>
</trkpt>
<trkpt lat="38.23629838" lon="-1.10734111">
<ele>672</ele>
<time>2013-09-20T18:56:23Z</time>
</trkpt>
<trkpt lat="38.23617338" lon="-1.10734451">
<ele>673</ele>
<time>2013-09-20T18:56:25Z</time>
</trkpt>
<trkpt lat="38.23603528" lon="-1.10737728">
<ele>673</ele>
<time>2013-09-20T18:56:27Z</time>
</trkpt>
<trkpt lat="38.23590612" lon="-1.10741625">
<ele>674</ele>
<time>2013-09-20T18:56:29Z</time>
</trkpt>
<trkpt lat="38.23576392" lon="-1.10750259">
<ele>676</ele>
<time>2013-09-20T18:56:31Z</time>
</trkpt>
<trkpt lat="38.23564746" lon="-1.10754128">
<ele>677</ele>
<time>2013-09-20T18:56:33Z</time>
</trkpt>
<trkpt lat="38.235524" lon="-1.1075948">
<ele>677</ele>
<time>2013-09-20T18:56:35Z</time>
</trkpt>
<trkpt lat="38.23544814" lon="-1.10773852">
<ele>678</ele>
<time>2013-09-20T18:56:37Z</time>
</trkpt>
<trkpt lat="38.2353745" lon="-1.1078648">
<ele>679</ele>
<time>2013-09-20T18:56:39Z</time>
</trkpt>
<trkpt lat="38.23526491" lon="-1.10801875">
<ele>675</ele>
<time>2013-09-20T18:56:41Z</time>
</trkpt>
<trkpt lat="38.23516915" lon="-1.10817494">
<ele>675</ele>
<time>2013-09-20T18:56:43Z</time>
</trkpt>
<trkpt lat="38.23507193" lon="-1.10829248">
<ele>677</ele>
<time>2013-09-20T18:56:45Z</time>
</trkpt>
<trkpt lat="38.23494364" lon="-1.10844817">
<ele>675</ele>
<time>2013-09-20T18:56:47Z</time>
</trkpt>
<trkpt lat="38.2348181" lon="-1.10858477">
<ele>677</ele>
<time>2013-09-20T18:56:49Z</time>
</trkpt>
<trkpt lat="38.23474676" lon="-1.10866582">
<ele>675</ele>
<time>2013-09-20T18:56:51Z</time>
</trkpt>
<trkpt lat="38.23462162" lon="-1.10874037">
<ele>673</ele>
<time>2013-09-20T18:56:53Z</time>
</trkpt>
<trkpt lat="38.23451581" lon="-1.10884349">
<ele>672</ele>
<time>2013-09-20T18:56:55Z</time>
</trkpt>
<trkpt lat="38.2344304" lon="-1.10887566">
<ele>674</ele>
<time>2013-09-20T18:56:57Z</time>
</trkpt>
<trkpt lat="38.23434346" lon="-1.10884707">
<ele>675</ele>
<time>2013-09-20T18:56:59Z</time>
</trkpt>
<trkpt lat="38.23426114" lon="-1.10882915">
<ele>674</ele>
<time>2013-09-20T18:57:01Z</time>
</trkpt>
<trkpt lat="38.23430235" lon="-1.10873184">
<ele>673</ele>
<time>2013-09-20T18:57:03Z</time>
</trkpt>
<trkpt lat="38.23437944" lon="-1.1086707">
<ele>671</ele>
<time>2013-09-20T18:57:05Z</time>
</trkpt>
<trkpt lat="38.23444607" lon="-1.10859527">
<ele>671</ele>
<time>2013-09-20T18:57:07Z</time>
</trkpt>
<trkpt lat="38.23466983" lon="-1.10856592">
<ele>668</ele>
<time>2013-09-20T18:57:09Z</time>
</trkpt>
<trkpt lat="38.23480416" lon="-1.10850618">
<ele>668</ele>
<time>2013-09-20T18:57:11Z</time>
</trkpt>
<trkpt lat="38.23493021" lon="-1.10845532">
<ele>668</ele>
<time>2013-09-20T18:57:13Z</time>
</trkpt>
<trkpt lat="38.23508947" lon="-1.10842176">
<ele>668</ele>
<time>2013-09-20T18:57:15Z</time>
</trkpt>
<trkpt lat="38.23522592" lon="-1.10836196">
<ele>669</ele>
<time>2013-09-20T18:57:17Z</time>
</trkpt>
<trkpt lat="38.23536145" lon="-1.10830777">
<ele>669</ele>
<time>2013-09-20T18:57:19Z</time>
</trkpt>
<trkpt lat="38.23548313" lon="-1.10827324">
<ele>669</ele>
<time>2013-09-20T18:57:21Z</time>
</trkpt>
<trkpt lat="38.23562045" lon="-1.10821072">
<ele>668</ele>
<time>2013-09-20T18:57:23Z</time>
</trkpt>
<trkpt lat="38.23573154" lon="-1.108118">
<ele>661</ele>
<time>2013-09-20T18:57:25Z</time>
</trkpt>
<trkpt lat="38.23585541" lon="-1.10803049">
<ele>659</ele>
<time>2013-09-20T18:57:27Z</time>
</trkpt>
<trkpt lat="38.23595744" lon="-1.10791202">
<ele>661</ele>
<time>2013-09-20T18:57:29Z</time>
</trkpt>
<trkpt lat="38.23605175" lon="-1.10780464">
<ele>662</ele>
<time>2013-09-20T18:57:31Z</time>
</trkpt>
<trkpt lat="38.23612022" lon="-1.10770661">
<ele>661</ele>
<time>2013-09-20T18:57:33Z</time>
</trkpt>
<trkpt lat="38.2361748" lon="-1.10761949">
<ele>664</ele>
<time>2013-09-20T18:57:35Z</time>
</trkpt>
<trkpt lat="38.23622114" lon="-1.10751585">
<ele>664</ele>
<time>2013-09-20T18:57:37Z</time>
</trkpt>
<trkpt lat="38.23630611" lon="-1.10742119">
<ele>666</ele>
<time>2013-09-20T18:57:39Z</time>
</trkpt>
<trkpt lat="38.23639434" lon="-1.10730763">
<ele>668</ele>
<time>2013-09-20T18:57:41Z</time>
</trkpt>
<trkpt lat="38.23649385" lon="-1.10718993">
<ele>669</ele>
<time>2013-09-20T18:57:43Z</time>
</trkpt>
<trkpt lat="38.23656146" lon="-1.10711502">
<ele>670</ele>
<time>2013-09-20T18:57:45Z</time>
</trkpt>
<trkpt lat="38.23663024" lon="-1.10700762">
<ele>674</ele>
<time>2013-09-20T18:57:47Z</time>
</trkpt>
<trkpt lat="38.23668041" lon="-1.10691261">
<ele>674</ele>
<time>2013-09-20T18:57:49Z</time>
</trkpt>
<trkpt lat="38.23674135" lon="-1.10682779">
<ele>676</ele>
<time>2013-09-20T18:57:51Z</time>
</trkpt>
<trkpt lat="38.23679998" lon="-1.10671958">
<ele>676</ele>
<time>2013-09-20T18:57:53Z</time>
</trkpt>
<trkpt lat="38.23684109" lon="-1.1066003">
<ele>678</ele>
<time>2013-09-20T18:57:55Z</time>
</trkpt>
<trkpt lat="38.23687376" lon="-1.10649535">
<ele>681</ele>
<time>2013-09-20T18:57:57Z</time>
</trkpt>
<trkpt lat="38.23688098" lon="-1.10637987">
<ele>681</ele>
<time>2013-09-20T18:57:59Z</time>
</trkpt>
<trkpt lat="38.23690527" lon="-1.10627153">
<ele>681</ele>
<time>2013-09-20T18:58:01Z</time>
</trkpt>
<trkpt lat="38.23676111" lon="-1.10618137">
<ele>680</ele>
<time>2013-09-20T18:58:03Z</time>
</trkpt>
<trkpt lat="38.23663621" lon="-1.10618643">
<ele>682</ele>
<time>2013-09-20T18:58:05Z</time>
</trkpt>
<trkpt lat="38.23650569" lon="-1.10620282">
<ele>682</ele>
<time>2013-09-20T18:58:07Z</time>
</trkpt>
<trkpt lat="38.23638004" lon="-1.10624401">
<ele>683</ele>
<time>2013-09-20T18:58:09Z</time>
</trkpt>
<trkpt lat="38.23628888" lon="-1.10642336">
<ele>685</ele>
<time>2013-09-20T18:58:11Z</time>
</trkpt>
<trkpt lat="38.23619069" lon="-1.1065533">
<ele>685</ele>
<time>2013-09-20T18:58:13Z</time>
</trkpt>
<trkpt lat="38.23606992" lon="-1.10667756">
<ele>686</ele>
<time>2013-09-20T18:58:15Z</time>
</trkpt>
<trkpt lat="38.2359851" lon="-1.10691195">
<ele>685</ele>
<time>2013-09-20T18:58:17Z</time>
</trkpt>
<trkpt lat="38.23591724" lon="-1.10716282">
<ele>686</ele>
<time>2013-09-20T18:58:19Z</time>
</trkpt>
<trkpt lat="38.23585602" lon="-1.10740189">
<ele>685</ele>
<time>2013-09-20T18:58:21Z</time>
</trkpt>
<trkpt lat="38.23580339" lon="-1.10767673">
<ele>684</ele>
<time>2013-09-20T18:58:23Z</time>
</trkpt>
<trkpt lat="38.23580633" lon="-1.10797363">
<ele>683</ele>
<time>2013-09-20T18:58:25Z</time>
</trkpt>
<trkpt lat="38.23582012" lon="-1.10826276">
<ele>684</ele>
<time>2013-09-20T18:58:27Z</time>
</trkpt>
<trkpt lat="38.23591312" lon="-1.10852539">
<ele>682</ele>
<time>2013-09-20T18:58:29Z</time>
</trkpt>
<trkpt lat="38.23599363" lon="-1.10881074">
<ele>681</ele>
<time>2013-09-20T18:58:31Z</time>
</trkpt>
<trkpt lat="38.23607431" lon="-1.10913291">
<ele>691</ele>
<time>2013-09-20T18:58:33Z</time>
</trkpt>
<trkpt lat="38.23611825" lon="-1.10943268">
<ele>692</ele>
<time>2013-09-20T18:58:35Z</time>
</trkpt>
<trkpt lat="38.23606553" lon="-1.1097112">
<ele>691</ele>
<time>2013-09-20T18:58:37Z</time>
</trkpt>
<trkpt lat="38.23604437" lon="-1.11001759">
<ele>693</ele>
<time>2013-09-20T18:58:39Z</time>
</trkpt>
<trkpt lat="38.23601353" lon="-1.110302">
<ele>694</ele>
<time>2013-09-20T18:58:41Z</time>
</trkpt>
<trkpt lat="38.23597372" lon="-1.11059532">
<ele>698</ele>
<time>2013-09-20T18:58:43Z</time>
</trkpt>
<trkpt lat="38.23591057" lon="-1.11081593">
<ele>701</ele>
<time>2013-09-20T18:58:45Z</time>
</trkpt>
<trkpt lat="38.23586311" lon="-1.11102692">
<ele>700</ele>
<time>2013-09-20T18:58:47Z</time>
</trkpt>
<trkpt lat="38.23579869" lon="-1.11123987">
<ele>696</ele>
<time>2013-09-20T18:58:49Z</time>
</trkpt>
<trkpt lat="38.2356656" lon="-1.11137325">
<ele>696</ele>
<time>2013-09-20T18:58:51Z</time>
</trkpt>
<trkpt lat="38.23562278" lon="-1.1113091">
<ele>695</ele>
<time>2013-09-20T18:58:53Z</time>
</trkpt>
<trkpt lat="38.23551999" lon="-1.11131158">
<ele>693</ele>
<time>2013-09-20T18:58:55Z</time>
</trkpt>
<trkpt lat="38.23545247" lon="-1.11129748">
<ele>690</ele>
<time>2013-09-20T18:58:57Z</time>
</trkpt>
<trkpt lat="38.23536515" lon="-1.11124466">
<ele>692</ele>
<time>2013-09-20T18:58:59Z</time>
</trkpt>
<trkpt lat="38.2353861" lon="-1.11112986">
<ele>691</ele>
<time>2013-09-20T18:59:01Z</time>
</trkpt>
<trkpt lat="38.23543025" lon="-1.11103563">
<ele>691</ele>
<time>2013-09-20T18:59:03Z</time>
</trkpt>
<trkpt lat="38.23543849" lon="-1.11093853">
<ele>691</ele>
<time>2013-09-20T18:59:05Z</time>
</trkpt>
<trkpt lat="38.2355312" lon="-1.11084911">
<ele>690</ele>
<time>2013-09-20T18:59:07Z</time>
</trkpt>
<trkpt lat="38.2355938" lon="-1.11077964">
<ele>691</ele>
<time>2013-09-20T18:59:09Z</time>
</trkpt>
<trkpt lat="38.23564832" lon="-1.11071418">
<ele>692</ele>
<time>2013-09-20T18:59:11Z</time>
</trkpt>
<trkpt lat="38.23568302" lon="-1.11064027">
<ele>692</ele>
<time>2013-09-20T18:59:13Z</time>
</trkpt>
<trkpt lat="38.23569174" lon="-1.1105379">
<ele>693</ele>
<time>2013-09-20T18:59:15Z</time>
</trkpt>
<trkpt lat="38.23571033" lon="-1.11045111">
<ele>693</ele>
<time>2013-09-20T18:59:17Z</time>
</trkpt>
<trkpt lat="38.23571222" lon="-1.11040132">
<ele>692</ele>
<time>2013-09-20T18:59:19Z</time>
</trkpt>
<trkpt lat="38.23572643" lon="-1.11028509">
<ele>690</ele>
<time>2013-09-20T18:59:21Z</time>
</trkpt>
<trkpt lat="38.23575577" lon="-1.11021106">
<ele>689</ele>
<time>2013-09-20T18:59:23Z</time>
</trkpt>
<trkpt lat="38.23579012" lon="-1.11016065">
<ele>690</ele>
<time>2013-09-20T18:59:25Z</time>
</trkpt>
<trkpt lat="38.23583082" lon="-1.11007882">
<ele>692</ele>
<time>2013-09-20T18:59:27Z</time>
</trkpt>
<trkpt lat="38.23586524" lon="-1.1100135">
<ele>691</ele>
<time>2013-09-20T18:59:29Z</time>
</trkpt>
<trkpt lat="38.23588107" lon="-1.10991867">
<ele>691</ele>
<time>2013-09-20T18:59:31Z</time>
</trkpt>
<trkpt lat="38.23583676" lon="-1.10980751">
<ele>694</ele>
<time>2013-09-20T18:59:33Z</time>
</trkpt>
<trkpt lat="38.23582713" lon="-1.10971098">
<ele>694</ele>
<time>2013-09-20T18:59:35Z</time>
</trkpt>
<trkpt lat="38.23576962" lon="-1.10967363">
<ele>693</ele>
<time>2013-09-20T18:59:37Z</time>
</trkpt>
<trkpt lat="38.23578721" lon="-1.10956666">
<ele>690</ele>
<time>2013-09-20T18:59:39Z</time>
</trkpt>
<trkpt lat="38.23586421" lon="-1.10947601">
<ele>689</ele>
<time>2013-09-20T18:59:41Z</time>
</trkpt>
<trkpt lat="38.23591635" lon="-1.10939498">
<ele>688</ele>
<time>2013-09-20T18:59:43Z</time>
</trkpt>
<trkpt lat="38.23594018" lon="-1.10928801">
<ele>687</ele>
<time>2013-09-20T18:59:45Z</time>
</trkpt>
<trkpt lat="38.23599691" lon="-1.10920507">
<ele>687</ele>
<time>2013-09-20T18:59:47Z</time>
</trkpt>
<trkpt lat="38.23606689" lon="-1.10907796">
<ele>688</ele>
<time>2013-09-20T18:59:49Z</time>
</trkpt>
<trkpt lat="38.23610464" lon="-1.10895635">
<ele>689</ele>
<time>2013-09-20T18:59:51Z</time>
</trkpt>
<trkpt lat="38.23615721" lon="-1.10885019">
<ele>689</ele>
<time>2013-09-20T18:59:53Z</time>
</trkpt>
<trkpt lat="38.23620471" lon="-1.10876668">
<ele>689</ele>
<time>2013-09-20T18:59:55Z</time>
</trkpt>
<trkpt lat="38.23621181" lon="-1.10868083">
<ele>685</ele>
<time>2013-09-20T18:59:57Z</time>
</trkpt>
<trkpt lat="38.23624062" lon="-1.10857499">
<ele>683</ele>
<time>2013-09-20T18:59:59Z</time>
</trkpt>
<trkpt lat="38.23627592" lon="-1.10847692">
<ele>682</ele>
<time>2013-09-20T19:00:01Z</time>
</trkpt>
<trkpt lat="38.23632178" lon="-1.1083968">
<ele>679</ele>
<time>2013-09-20T19:00:03Z</time>
</trkpt>
<trkpt lat="38.23638194" lon="-1.10828842">
<ele>678</ele>
<time>2013-09-20T19:00:05Z</time>
</trkpt>
<trkpt lat="38.23642861" lon="-1.10819249">
<ele>676</ele>
<time>2013-09-20T19:00:07Z</time>
</trkpt>
<trkpt lat="38.23646054" lon="-1.1080765">
<ele>678</ele>
<time>2013-09-20T19:00:09Z</time>
</trkpt>
<trkpt lat="38.23650994" lon="-1.10797489">
<ele>680</ele>
<time>2013-09-20T19:00:11Z</time>
</trkpt>
<trkpt lat="38.23654117" lon="-1.10786641">
<ele>680</ele>
<time>2013-09-20T19:00:13Z</time>
</trkpt>
<trkpt lat="38.23658474" lon="-1.10776002">
<ele>678</ele>
<time>2013-09-20T19:00:15Z</time>
</trkpt>
<trkpt lat="38.23664247" lon="-1.1076569">
<ele>678</ele>
<time>2013-09-20T19:00:17Z</time>
</trkpt>
<trkpt lat="38.23668617" lon="-1.10754673">
<ele>678</ele>
<time>2013-09-20T19:00:19Z</time>
</trkpt>
<trkpt lat="38.23672059" lon="-1.10749336">
<ele>674</ele>
<time>2013-09-20T19:00:21Z</time>
</trkpt>
<trkpt lat="38.23678029" lon="-1.1073934">
<ele>672</ele>
<time>2013-09-20T19:00:23Z</time>
</trkpt>
<trkpt lat="38.23683519" lon="-1.10726647">
<ele>674</ele>
<time>2013-09-20T19:00:25Z</time>
</trkpt>
<trkpt lat="38.23687601" lon="-1.1071804">
<ele>675</ele>
<time>2013-09-20T19:00:27Z</time>
</trkpt>
<trkpt lat="38.23693007" lon="-1.10709495">
<ele>671</ele>
<time>2013-09-20T19:00:29Z</time>
</trkpt>
<trkpt lat="38.23698698" lon="-1.10694799">
<ele>671</ele>
<time>2013-09-20T19:00:31Z</time>
</trkpt>
<trkpt lat="38.2370339" lon="-1.10683669">
<ele>670</ele>
<time>2013-09-20T19:00:33Z</time>
</trkpt>
<trkpt lat="38.23704341" lon="-1.10674748">
<ele>668</ele>
<time>2013-09-20T19:00:35Z</time>
</trkpt>
<trkpt lat="38.23708619" lon="-1.10665104">
<ele>666</ele>
<time>2013-09-20T19:00:37Z</time>
</trkpt>
<trkpt lat="38.23714127" lon="-1.10651684">
<ele>663</ele>
<time>2013-09-20T19:00:39Z</time>
</trkpt>
<trkpt lat="38.23718478" lon="-1.10640555">
<ele>660</ele>
<time>2013-09-20T19:00:41Z</time>
</trkpt>
<trkpt lat="38.23719748" lon="-1.1063077">
<ele>658</ele>
<time>2013-09-20T19:00:43Z</time>
</trkpt>
<trkpt lat="38.23725846" lon="-1.10617976">
<ele>657</ele>
<time>2013-09-20T19:00:45Z</time>
</trkpt>
<trkpt lat="38.23733679" lon="-1.10604377">
<ele>657</ele>
<time>2013-09-20T19:00:47Z</time>
</trkpt>
<trkpt lat="38.2374172" lon="-1.10592664">
<ele>656</ele>
<time>2013-09-20T19:00:49Z</time>
</trkpt>
<trkpt lat="38.237499" lon="-1.10585693">
<ele>655</ele>
<time>2013-09-20T19:00:51Z</time>
</trkpt>
<trkpt lat="38.23755815" lon="-1.10573032">
<ele>653</ele>
<time>2013-09-20T19:00:53Z</time>
</trkpt>
<trkpt lat="38.23755678" lon="-1.10560787">
<ele>653</ele>
<time>2013-09-20T19:00:55Z</time>
</trkpt>
<trkpt lat="38.23747599" lon="-1.10552676">
<ele>652</ele>
<time>2013-09-20T19:00:57Z</time>
</trkpt>
<trkpt lat="38.23738145" lon="-1.10552778">
<ele>649</ele>
<time>2013-09-20T19:00:59Z</time>
</trkpt>
<trkpt lat="38.23726142" lon="-1.10554332">
<ele>647</ele>
<time>2013-09-20T19:01:01Z</time>
</trkpt>
<trkpt lat="38.23717721" lon="-1.10572359">
<ele>650</ele>
<time>2013-09-20T19:01:03Z</time>
</trkpt>
<trkpt lat="38.23711557" lon="-1.10592392">
<ele>645</ele>
<time>2013-09-20T19:01:05Z</time>
</trkpt>
<trkpt lat="38.23706118" lon="-1.10615428">
<ele>640</ele>
<time>2013-09-20T19:01:07Z</time>
</trkpt>
<trkpt lat="38.2369894" lon="-1.10638816">
<ele>639</ele>
<time>2013-09-20T19:01:09Z</time>
</trkpt>
<trkpt lat="38.23690747" lon="-1.10658651">
<ele>636</ele>
<time>2013-09-20T19:01:11Z</time>
</trkpt>
<trkpt lat="38.23678975" lon="-1.10674663">
<ele>635</ele>
<time>2013-09-20T19:01:13Z</time>
</trkpt>
<trkpt lat="38.23667708" lon="-1.10692072">
<ele>634</ele>
<time>2013-09-20T19:01:15Z</time>
</trkpt>
<trkpt lat="38.23659664" lon="-1.10707311">
<ele>634</ele>
<time>2013-09-20T19:01:17Z</time>
</trkpt>
<trkpt lat="38.23649321" lon="-1.10722895">
<ele>633</ele>
<time>2013-09-20T19:01:19Z</time>
</trkpt>
<trkpt lat="38.23638967" lon="-1.10738295">
<ele>632</ele>
<time>2013-09-20T19:01:21Z</time>
</trkpt>
<trkpt lat="38.23629198" lon="-1.10755901">
<ele>635</ele>
<time>2013-09-20T19:01:23Z</time>
</trkpt>
<trkpt lat="38.23620128" lon="-1.10772966">
<ele>635</ele>
<time>2013-09-20T19:01:25Z</time>
</trkpt>
<trkpt lat="38.23609833" lon="-1.10789002">
<ele>633</ele>
<time>2013-09-20T19:01:27Z</time>
</trkpt>
<trkpt lat="38.23596992" lon="-1.1080301">
<ele>633</ele>
<time>2013-09-20T19:01:29Z</time>
</trkpt>
<trkpt lat="38.23584029" lon="-1.10817357">
<ele>634</ele>
<time>2013-09-20T19:01:31Z</time>
</trkpt>
<trkpt lat="38.23569156" lon="-1.10829409">
<ele>633</ele>
<time>2013-09-20T19:01:33Z</time>
</trkpt>
<trkpt lat="38.23556836" lon="-1.108417">
<ele>631</ele>
<time>2013-09-20T19:01:35Z</time>
</trkpt>
<trkpt lat="38.23544656" lon="-1.10855002">
<ele>631</ele>
<time>2013-09-20T19:01:37Z</time>
</trkpt>
<trkpt lat="38.23537109" lon="-1.10881235">
<ele>630</ele>
<time>2013-09-20T19:01:39Z</time>
</trkpt>
<trkpt lat="38.23534187" lon="-1.10903951">
<ele>629</ele>
<time>2013-09-20T19:01:41Z</time>
</trkpt>
<trkpt lat="38.23529834" lon="-1.1092775">
<ele>628</ele>
<time>2013-09-20T19:01:43Z</time>
</trkpt>
<trkpt lat="38.23526779" lon="-1.1095576">
<ele>626</ele>
<time>2013-09-20T19:01:45Z</time>
</trkpt>
<trkpt lat="38.23522647" lon="-1.10984514">
<ele>626</ele>
<time>2013-09-20T19:01:47Z</time>
</trkpt>
<trkpt lat="38.23515254" lon="-1.11010701">
<ele>627</ele>
<time>2013-09-20T19:01:49Z</time>
</trkpt>
<trkpt lat="38.23507759" lon="-1.11035528">
<ele>630</ele>
<time>2013-09-20T19:01:51Z</time>
</trkpt>
<trkpt lat="38.23500094" lon="-1.11057065">
<ele>627</ele>
<time>2013-09-20T19:01:53Z</time>
</trkpt>
<trkpt lat="38.23491789" lon="-1.11079725">
<ele>626</ele>
<time>2013-09-20T19:01:55Z</time>
</trkpt>
<trkpt lat="38.23482874" lon="-1.11099688">
<ele>626</ele>
<time>2013-09-20T19:01:57Z</time>
</trkpt>
<trkpt lat="38.23473034" lon="-1.11111815">
<ele>626</ele>
<time>2013-09-20T19:01:59Z</time>
</trkpt>
<trkpt lat="38.23461696" lon="-1.11116935">
<ele>626</ele>
<time>2013-09-20T19:02:01Z</time>
</trkpt>
<trkpt lat="38.23452272" lon="-1.11109291">
<ele>629</ele>
<time>2013-09-20T19:02:03Z</time>
</trkpt>
<trkpt lat="38.23443244" lon="-1.11105284">
<ele>631</ele>
<time>2013-09-20T19:02:05Z</time>
</trkpt>
<trkpt lat="38.23437247" lon="-1.11099745">
<ele>631</ele>
<time>2013-09-20T19:02:07Z</time>
</trkpt>
<trkpt lat="38.23438484" lon="-1.11087293">
<ele>630</ele>
<time>2013-09-20T19:02:09Z</time>
</trkpt>
<trkpt lat="38.23440442" lon="-1.11076627">
<ele>629</ele>
<time>2013-09-20T19:02:11Z</time>
</trkpt>
<trkpt lat="38.23448589" lon="-1.11068096">
<ele>627</ele>
<time>2013-09-20T19:02:13Z</time>
</trkpt>
<trkpt lat="38.23458875" lon="-1.1105615">
<ele>627</ele>
<time>2013-09-20T19:02:15Z</time>
</trkpt>
<trkpt lat="38.23467792" lon="-1.11049736">
<ele>628</ele>
<time>2013-09-20T19:02:17Z</time>
</trkpt>
<trkpt lat="38.23475027" lon="-1.1104036">
<ele>629</ele>
<time>2013-09-20T19:02:19Z</time>
</trkpt>
<trkpt lat="38.23481049" lon="-1.11031162">
<ele>629</ele>
<time>2013-09-20T19:02:21Z</time>
</trkpt>
<trkpt lat="38.23488347" lon="-1.11023322">
<ele>627</ele>
<time>2013-09-20T19:02:23Z</time>
</trkpt>
<trkpt lat="38.23496081" lon="-1.11017748">
<ele>626</ele>
<time>2013-09-20T19:02:25Z</time>
</trkpt>
<trkpt lat="38.23508491" lon="-1.1100627">
<ele>625</ele>
<time>2013-09-20T19:02:27Z</time>
</trkpt>
<trkpt lat="38.23516948" lon="-1.10998526">
<ele>628</ele>
<time>2013-09-20T19:02:29Z</time>
</trkpt>
<trkpt lat="38.2352305" lon="-1.10989794">
<ele>627</ele>
<time>2013-09-20T19:02:31Z</time>
</trkpt>
<trkpt lat="38.23531986" lon="-1.10983008">
<ele>626</ele>
<time>2013-09-20T19:02:33Z</time>
</trkpt>
<trkpt lat="38.23540685" lon="-1.10969246">
<ele>627</ele>
<time>2013-09-20T19:02:35Z</time>
</trkpt>
<trkpt lat="38.23547375" lon="-1.10964808">
<ele>627</ele>
<time>2013-09-20T19:02:37Z</time>
</trkpt>
<trkpt lat="38.2355412" lon="-1.10955368">
<ele>626</ele>
<time>2013-09-20T19:02:39Z</time>
</trkpt>
<trkpt lat="38.23564856" lon="-1.10943931">
<ele>625</ele>
<time>2013-09-20T19:02:41Z</time>
</trkpt>
<trkpt lat="38.23573632" lon="-1.10933855">
<ele>626</ele>
<time>2013-09-20T19:02:43Z</time>
</trkpt>
<trkpt lat="38.23576922" lon="-1.10924862">
<ele>625</ele>
<time>2013-09-20T19:02:45Z</time>
</trkpt>
<trkpt lat="38.23579135" lon="-1.10914846">
<ele>626</ele>
<time>2013-09-20T19:02:47Z</time>
</trkpt>
<trkpt lat="38.23581995" lon="-1.10903062">
<ele>627</ele>
<time>2013-09-20T19:02:49Z</time>
</trkpt>
<trkpt lat="38.23587608" lon="-1.10891816">
<ele>629</ele>
<time>2013-09-20T19:02:51Z</time>
</trkpt>
<trkpt lat="38.23591602" lon="-1.10880998">
<ele>629</ele>
<time>2013-09-20T19:02:53Z</time>
</trkpt>
<trkpt lat="38.23597649" lon="-1.10869655">
<ele>629</ele>
<time>2013-09-20T19:02:55Z</time>
</trkpt>
<trkpt lat="38.23601157" lon="-1.10860178">
<ele>630</ele>
<time>2013-09-20T19:02:57Z</time>
</trkpt>
<trkpt lat="38.23599879" lon="-1.10852112">
<ele>634</ele>
<time>2013-09-20T19:02:59Z</time>
</trkpt>
<trkpt lat="38.23601115" lon="-1.1084075">
<ele>635</ele>
<time>2013-09-20T19:03:01Z</time>
</trkpt>
<trkpt lat="38.23605914" lon="-1.10830389">
<ele>637</ele>
<time>2013-09-20T19:03:03Z</time>
</trkpt>
<trkpt lat="38.23610991" lon="-1.10819875">
<ele>641</ele>
<time>2013-09-20T19:03:05Z</time>
</trkpt>
<trkpt lat="38.23613705" lon="-1.10810638">
<ele>642</ele>
<time>2013-09-20T19:03:07Z</time>
</trkpt>
<trkpt lat="38.23618221" lon="-1.10802636">
<ele>639</ele>
<time>2013-09-20T19:03:09Z</time>
</trkpt>
<trkpt lat="38.23623654" lon="-1.1079297">
<ele>639</ele>
<time>2013-09-20T19:03:11Z</time>
</trkpt>
<trkpt lat="38.23632634" lon="-1.10782686">
<ele>639</ele>
<time>2013-09-20T19:03:13Z</time>
</trkpt>
<trkpt lat="38.2364495" lon="-1.10774627">
<ele>640</ele>
<time>2013-09-20T19:03:15Z</time>
</trkpt>
<trkpt lat="38.23655401" lon="-1.10772786">
<ele>639</ele>
<time>2013-09-20T19:03:17Z</time>
</trkpt>
<trkpt lat="38.23666058" lon="-1.10760951">
<ele>638</ele>
<time>2013-09-20T19:03:19Z</time>
</trkpt>
<trkpt lat="38.23669997" lon="-1.10748492">
<ele>640</ele>
<time>2013-09-20T19:03:21Z</time>
</trkpt>
<trkpt lat="38.23672776" lon="-1.10738422">
<ele>639</ele>
<time>2013-09-20T19:03:23Z</time>
</trkpt>
<trkpt lat="38.23676602" lon="-1.10728864">
<ele>639</ele>
<time>2013-09-20T19:03:25Z</time>
</trkpt>
<trkpt lat="38.2367974" lon="-1.10717465">
<ele>639</ele>
<time>2013-09-20T19:03:27Z</time>
</trkpt>
<trkpt lat="38.23681342" lon="-1.10711623">
<ele>637</ele>
<time>2013-09-20T19:03:29Z</time>
</trkpt>
<trkpt lat="38.23685573" lon="-1.10698954">
<ele>636</ele>
<time>2013-09-20T19:03:31Z</time>
</trkpt>
<trkpt lat="38.23696965" lon="-1.10688634">
<ele>636</ele>
<time>2013-09-20T19:03:33Z</time>
</trkpt>
<trkpt lat="38.23706126" lon="-1.10678179">
<ele>636</ele>
<time>2013-09-20T19:03:35Z</time>
</trkpt>
<trkpt lat="38.2371107" lon="-1.10672046">
<ele>635</ele>
<time>2013-09-20T19:03:37Z</time>
</trkpt>
<trkpt lat="38.23715769" lon="-1.10660777">
<ele>635</ele>
<time>2013-09-20T19:03:39Z</time>
</trkpt>
<trkpt lat="38.23710477" lon="-1.10651892">
<ele>631</ele>
<time>2013-09-20T19:03:41Z</time>
</trkpt>
<trkpt lat="38.23705487" lon="-1.10652667">
<ele>637</ele>
<time>2013-09-20T19:03:43Z</time>
</trkpt>
<trkpt lat="38.23693584" lon="-1.10657872">
<ele>639</ele>
<time>2013-09-20T19:03:45Z</time>
</trkpt>
<trkpt lat="38.23680114" lon="-1.10669365">
<ele>637</ele>
<time>2013-09-20T19:03:47Z</time>
</trkpt>
<trkpt lat="38.23669494" lon="-1.10684833">
<ele>636</ele>
<time>2013-09-20T19:03:49Z</time>
</trkpt>
<trkpt lat="38.23664127" lon="-1.10704227">
<ele>634</ele>
<time>2013-09-20T19:03:51Z</time>
</trkpt>
<trkpt lat="38.23659855" lon="-1.10729057">
<ele>635</ele>
<time>2013-09-20T19:03:53Z</time>
</trkpt>
<trkpt lat="38.2365125" lon="-1.10752464">
<ele>636</ele>
<time>2013-09-20T19:03:55Z</time>
</trkpt>
<trkpt lat="38.23646288" lon="-1.10774241">
<ele>638</ele>
<time>2013-09-20T19:03:57Z</time>
</trkpt>
<trkpt lat="38.2364187" lon="-1.10795187">
<ele>638</ele>
<time>2013-09-20T19:03:59Z</time>
</trkpt>
<trkpt lat="38.23635541" lon="-1.10816725">
<ele>639</ele>
<time>2013-09-20T19:04:01Z</time>
</trkpt>
<trkpt lat="38.23627398" lon="-1.10836812">
<ele>640</ele>
<time>2013-09-20T19:04:03Z</time>
</trkpt>
<trkpt lat="38.2361853" lon="-1.10854224">
<ele>643</ele>
<time>2013-09-20T19:04:05Z</time>
</trkpt>
<trkpt lat="38.23611408" lon="-1.10878816">
<ele>644</ele>
<time>2013-09-20T19:04:07Z</time>
</trkpt>
<trkpt lat="38.23605153" lon="-1.10899993">
<ele>642</ele>
<time>2013-09-20T19:04:09Z</time>
</trkpt>
<trkpt lat="38.23597878" lon="-1.10921598">
<ele>643</ele>
<time>2013-09-20T19:04:11Z</time>
</trkpt>
<trkpt lat="38.23582798" lon="-1.1092702">
<ele>644</ele>
<time>2013-09-20T19:04:13Z</time>
</trkpt>
<trkpt lat="38.23571096" lon="-1.10934687">
<ele>646</ele>
<time>2013-09-20T19:04:15Z</time>
</trkpt>
<trkpt lat="38.23563711" lon="-1.10936382">
<ele>645</ele>
<time>2013-09-20T19:04:17Z</time>
</trkpt>
<trkpt lat="38.23553621" lon="-1.10940507">
<ele>645</ele>
<time>2013-09-20T19:04:19Z</time>
</trkpt>
<trkpt lat="38.23544232" lon="-1.10939772">
<ele>645</ele>
<time>2013-09-20T19:04:21Z</time>
</trkpt>
<trkpt lat="38.23535404" lon="-1.10939522">
<ele>645</ele>
<time>2013-09-20T19:04:23Z</time>
</trkpt>
<trkpt lat="38.23533703" lon="-1.10932281">
<ele>646</ele>
<time>2013-09-20T19:04:25Z</time>
</trkpt>
<trkpt lat="38.23537591" lon="-1.10921255">
<ele>647</ele>
<time>2013-09-20T19:04:27Z</time>
</trkpt>
<trkpt lat="38.23541998" lon="-1.10913242">
<ele>646</ele>
<time>2013-09-20T19:04:29Z</time>
</trkpt>
<trkpt lat="38.23548656" lon="-1.10900335">
<ele>647</ele>
<time>2013-09-20T19:04:31Z</time>
</trkpt>
<trkpt lat="38.23560367" lon="-1.10895345">
<ele>647</ele>
<time>2013-09-20T19:04:33Z</time>
</trkpt>
<trkpt lat="38.23572297" lon="-1.1088962">
<ele>645</ele>
<time>2013-09-20T19:04:35Z</time>
</trkpt>
<trkpt lat="38.23587474" lon="-1.10885667">
<ele>645</ele>
<time>2013-09-20T19:04:37Z</time>
</trkpt>
<trkpt lat="38.23605637" lon="-1.10888408">
<ele>645</ele>
<time>2013-09-20T19:04:39Z</time>
</trkpt>
<trkpt lat="38.23622573" lon="-1.10898586">
<ele>645</ele>
<time>2013-09-20T19:04:41Z</time>
</trkpt>
<trkpt lat="38.23637866" lon="-1.10917458">
<ele>644</ele>
<time>2013-09-20T19:04:43Z</time>
</trkpt>
<trkpt lat="38.23647952" lon="-1.10942763">
<ele>644</ele>
<time>2013-09-20T19:04:45Z</time>
</trkpt>
<trkpt lat="38.23651117" lon="-1.1096873">
<ele>643</ele>
<time>2013-09-20T19:04:47Z</time>
</trkpt>
<trkpt lat="38.23647102" lon="-1.1099238">
<ele>645</ele>
<time>2013-09-20T19:04:49Z</time>
</trkpt>
<trkpt lat="38.23638296" lon="-1.11012097">
<ele>644</ele>
<time>2013-09-20T19:04:51Z</time>
</trkpt>
<trkpt lat="38.23626851" lon="-1.11019178">
<ele>644</ele>
<time>2013-09-20T19:04:53Z</time>
</trkpt>
<trkpt lat="38.23616294" lon="-1.11024378">
<ele>644</ele>
<time>2013-09-20T19:04:55Z</time>
</trkpt>
<trkpt lat="38.23607675" lon="-1.11024523">
<ele>645</ele>
<time>2013-09-20T19:04:57Z</time>
</trkpt>
<trkpt lat="38.2359872" lon="-1.11022452">
<ele>646</ele>
<time>2013-09-20T19:04:59Z</time>
</trkpt>
<trkpt lat="38.23593354" lon="-1.11018292">
<ele>649</ele>
<time>2013-09-20T19:05:01Z</time>
</trkpt>
<trkpt lat="38.23588675" lon="-1.11014219">
<ele>652</ele>
<time>2013-09-20T19:05:03Z</time>
</trkpt>
<trkpt lat="38.23583056" lon="-1.11009831">
<ele>653</ele>
<time>2013-09-20T19:05:05Z</time>
</trkpt>
<trkpt lat="38.23579635" lon="-1.11002857">
<ele>652</ele>
<time>2013-09-20T19:05:07Z</time>
</trkpt>
<trkpt lat="38.23576695" lon="-1.10995791">
<ele>652</ele>
<time>2013-09-20T19:05:09Z</time>
</trkpt>
<trkpt lat="38.23571066" lon="-1.10989217">
<ele>649</ele>
<time>2013-09-20T19:05:11Z</time>
</trkpt>
<trkpt lat="38.23563245" lon="-1.1098443">
<ele>648</ele>
<time>2013-09-20T19:05:13Z</time>
</trkpt>
<trkpt lat="38.2355451" lon="-1.1097828">
<ele>648</ele>
<time>2013-09-20T19:05:15Z</time>
</trkpt>
<trkpt lat="38.2354766" lon="-1.10973876">
<ele>648</ele>
<time>2013-09-20T19:05:17Z</time>
</trkpt>
<trkpt lat="38.23546943" lon="-1.10963943">
<ele>650</ele>
<time>2013-09-20T19:05:19Z</time>
</trkpt>
<trkpt lat="38.2354747" lon="-1.1095617">
<ele>650</ele>
<time>2013-09-20T19:05:21Z</time>
</trkpt>
<trkpt lat="38.23548286" lon="-1.10947352">
<ele>650</ele>
<time>2013-09-20T19:05:23Z</time>
</trkpt>
<trkpt lat="38.23548767" lon="-1.10938044">
<ele>649</ele>
<time>2013-09-20T19:05:25Z</time>
</trkpt>
<trkpt lat="38.23549918" lon="-1.10927379">
<ele>649</ele>
<time>2013-09-20T19:05:27Z</time>
</trkpt>
<trkpt lat="38.2355433" lon="-1.10920217">
<ele>650</ele>
<time>2013-09-20T19:05:29Z</time>
</trkpt>
<trkpt lat="38.23557141" lon="-1.10909478">
<ele>651</ele>
<time>2013-09-20T19:05:31Z</time>
</trkpt>
<trkpt lat="38.23561155" lon="-1.10898843">
<ele>654</ele>
<time>2013-09-20T19:05:33Z</time>
</trkpt>
<trkpt lat="38.23564945" lon="-1.10889099">
<ele>652</ele>
<time>2013-09-20T19:05:35Z</time>
</trkpt>
<trkpt lat="38.23571359" lon="-1.10876918">
<ele>653</ele>
<time>2013-09-20T19:05:37Z</time>
</trkpt>
<trkpt lat="38.23576285" lon="-1.10868822">
<ele>656</ele>
<time>2013-09-20T19:05:39Z</time>
</trkpt>
<trkpt lat="38.23577335" lon="-1.10858221">
<ele>655</ele>
<time>2013-09-20T19:05:41Z</time>
</trkpt>
<trkpt lat="38.23578842" lon="-1.10845353">
<ele>653</ele>
<time>2013-09-20T19:05:43Z</time>
</trkpt>
<trkpt lat="38.23581408" lon="-1.1083584">
<ele>652</ele>
<time>2013-09-20T19:05:45Z</time>
</trkpt>
<trkpt lat="38.23585318" lon="-1.10825657">
<ele>653</ele>
<time>2013-09-20T19:05:47Z</time>
</trkpt>
<trkpt lat="38.23590476" lon="-1.10817017">
<ele>652</ele>
<time>2013-09-20T19:05:49Z</time>
</trkpt>
<trkpt lat="38.23595855" lon="-1.10804832">
<ele>651</ele>
<time>2013-09-20T19:05:51Z</time>
</trkpt>
<trkpt lat="38.23600811" lon="-1.10792752">
<ele>652</ele>
<time>2013-09-20T19:05:53Z</time>
</trkpt>
<trkpt lat="38.23601028" lon="-1.10783805">
<ele>655</ele>
<time>2013-09-20T19:05:55Z</time>
</trkpt>
<trkpt lat="38.23602667" lon="-1.10774294">
<ele>656</ele>
<time>2013-09-20T19:05:57Z</time>
</trkpt>
<trkpt lat="38.23605071" lon="-1.10763545">
<ele>655</ele>
<time>2013-09-20T19:05:59Z</time>
</trkpt>
<trkpt lat="38.23607724" lon="-1.10753718">
<ele>654</ele>
<time>2013-09-20T19:06:01Z</time>
</trkpt>
<trkpt lat="38.23617075" lon="-1.10743906">
<ele>654</ele>
<time>2013-09-20T19:06:03Z</time>
</trkpt>
<trkpt lat="38.23621547" lon="-1.1073307">
<ele>655</ele>
<time>2013-09-20T19:06:05Z</time>
</trkpt>
<trkpt lat="38.23626466" lon="-1.10721891">
<ele>655</ele>
<time>2013-09-20T19:06:07Z</time>
</trkpt>
<trkpt lat="38.23626881" lon="-1.10713546">
<ele>655</ele>
<time>2013-09-20T19:06:09Z</time>
</trkpt>
<trkpt lat="38.23629501" lon="-1.10704065">
<ele>653</ele>
<time>2013-09-20T19:06:11Z</time>
</trkpt>
<trkpt lat="38.23633228" lon="-1.10695688">
<ele>652</ele>
<time>2013-09-20T19:06:13Z</time>
</trkpt>
<trkpt lat="38.23639423" lon="-1.10684827">
<ele>653</ele>
<time>2013-09-20T19:06:15Z</time>
</trkpt>
<trkpt lat="38.23646964" lon="-1.10672418">
<ele>654</ele>
<time>2013-09-20T19:06:17Z</time>
</trkpt>
<trkpt lat="38.23651456" lon="-1.10660511">
<ele>653</ele>
<time>2013-09-20T19:06:19Z</time>
</trkpt>
<trkpt lat="38.23654314" lon="-1.10650115">
<ele>653</ele>
<time>2013-09-20T19:06:21Z</time>
</trkpt>
<trkpt lat="38.23656332" lon="-1.10638997">
<ele>653</ele>
<time>2013-09-20T19:06:23Z</time>
</trkpt>
<trkpt lat="38.23655264" lon="-1.10628536">
<ele>653</ele>
<time>2013-09-20T19:06:25Z</time>
</trkpt>
<trkpt lat="38.23657324" lon="-1.10616022">
<ele>652</ele>
<time>2013-09-20T19:06:27Z</time>
</trkpt>
<trkpt lat="38.23658359" lon="-1.10604639">
<ele>652</ele>
<time>2013-09-20T19:06:29Z</time>
</trkpt>
<trkpt lat="38.2365884" lon="-1.10589776">
<ele>653</ele>
<time>2013-09-20T19:06:31Z</time>
</trkpt>
<trkpt lat="38.23658334" lon="-1.10578099">
<ele>651</ele>
<time>2013-09-20T19:06:33Z</time>
</trkpt>
<trkpt lat="38.23657525" lon="-1.10567403">
<ele>650</ele>
<time>2013-09-20T19:06:35Z</time>
</trkpt>
<trkpt lat="38.23657949" lon="-1.10554894">
<ele>650</ele>
<time>2013-09-20T19:06:37Z</time>
</trkpt>
<trkpt lat="38.23656956" lon="-1.10545421">
<ele>650</ele>
<time>2013-09-20T19:06:39Z</time>
</trkpt>
<trkpt lat="38.23655302" lon="-1.10537284">
<ele>653</ele>
<time>2013-09-20T19:06:41Z</time>
</trkpt>
<trkpt lat="38.23653629" lon="-1.10528413">
<ele>655</ele>
<time>2013-09-20T19:06:43Z</time>
</trkpt>
<trkpt lat="38.23650871" lon="-1.10521447">
<ele>655</ele>
<time>2013-09-20T19:06:45Z</time>
</trkpt>
<trkpt lat="38.23644499" lon="-1.10513316">
<ele>657</ele>
<time>2013-09-20T19:06:47Z</time>
</trkpt>
<trkpt lat="38.23640397" lon="-1.10507205">
<ele>657</ele>
<time>2013-09-20T19:06:49Z</time>
</trkpt>
<trkpt lat="38.23639525" lon="-1.10498471">
<ele>658</ele>
<time>2013-09-20T19:06:51Z</time>
</trkpt>
<trkpt lat="38.23642984" lon="-1.10490473">
<ele>658</ele>
<time>2013-09-20T19:06:53Z</time>
</trkpt>
<trkpt lat="38.23645391" lon="-1.10480892">
<ele>659</ele>
<time>2013-09-20T19:06:55Z</time>
</trkpt>
<trkpt lat="38.23641359" lon="-1.10474294">
<ele>661</ele>
<time>2013-09-20T19:06:57Z</time>
</trkpt>
<trkpt lat="38.23636986" lon="-1.1046576">
<ele>661</ele>
<time>2013-09-20T19:06:59Z</time>
</trkpt>
<trkpt lat="38.23632433" lon="-1.10457447">
<ele>664</ele>
<time>2013-09-20T19:07:01Z</time>
</trkpt>
<trkpt lat="38.23625817" lon="-1.10453248">
<ele>664</ele>
<time>2013-09-20T19:07:03Z</time>
</trkpt>
<trkpt lat="38.23618569" lon="-1.10449323">
<ele>664</ele>
<time>2013-09-20T19:07:05Z</time>
</trkpt>
<trkpt lat="38.2361396" lon="-1.1044326">
<ele>666</ele>
<time>2013-09-20T19:07:07Z</time>
</trkpt>
<trkpt lat="38.23610979" lon="-1.10435869">
<ele>668</ele>
<time>2013-09-20T19:07:09Z</time>
</trkpt>
<trkpt lat="38.23608354" lon="-1.10428185">
<ele>668</ele>
<time>2013-09-20T19:07:11Z</time>
</trkpt>
<trkpt lat="38.23606667" lon="-1.10421065">
<ele>668</ele>
<time>2013-09-20T19:07:13Z</time>
</trkpt>
<trkpt lat="38.23610836" lon="-1.1041275">
<ele>671</ele>
<time>2013-09-20T19:07:15Z</time>
</trkpt>
<trkpt lat="38.23610485" lon="-1.10405355">
<ele>673</ele>
<time>2013-09-20T19:07:17Z</time>
</trkpt>
<trkpt lat="38.23610312" lon="-1.10398245">
<ele>677</ele>
<time>2013-09-20T19:07:19Z</time>
</trkpt>
<trkpt lat="38.23606947" lon="-1.1039133">
<ele>678</ele>
<time>2013-09-20T19:07:21Z</time>
</trkpt>
<trkpt lat="38.23605639" lon="-1.10382585">
<ele>679</ele>
<time>2013-09-20T19:07:23Z</time>
</trkpt>
<trkpt lat="38.23604144" lon="-1.10373269">
<ele>681</ele>
<time>2013-09-20T19:07:25Z</time>
</trkpt>
<trkpt lat="38.23604515" lon="-1.10366013">
<ele>681</ele>
<time>2013-09-20T19:07:27Z</time>
</trkpt>
<trkpt lat="38.23605362" lon="-1.1035657">
<ele>682</ele>
<time>2013-09-20T19:07:29Z</time>
</trkpt>
<trkpt lat="38.23610871" lon="-1.10347757">
<ele>684</ele>
<time>2013-09-20T19:07:31Z</time>
</trkpt>
<trkpt lat="38.23614595" lon="-1.10339292">
<ele>686</ele>
<time>2013-09-20T19:07:33Z</time>
</trkpt>
<trkpt lat="38.23621229" lon="-1.10332713">
<ele>690</ele>
<time>2013-09-20T19:07:35Z</time>
</trkpt>
<trkpt lat="38.23629427" lon="-1.1032813">
<ele>691</ele>
<time>2013-09-20T19:07:37Z</time>
</trkpt>
<trkpt lat="38.23639923" lon="-1.10323198">
<ele>692</ele>
<time>2013-09-20T19:07:39Z</time>
</trkpt>
<trkpt lat="38.23651924" lon="-1.10319287">
<ele>692</ele>
<time>2013-09-20T19:07:41Z</time>
</trkpt>
<trkpt lat="38.23664818" lon="-1.1031488">
<ele>692</ele>
<time>2013-09-20T19:07:43Z</time>
</trkpt>
<trkpt lat="38.2367602" lon="-1.10307802">
<ele>696</ele>
<time>2013-09-20T19:07:45Z</time>
</trkpt>
<trkpt lat="38.23684861" lon="-1.10301836">
<ele>698</ele>
<time>2013-09-20T19:07:47Z</time>
</trkpt>
<trkpt lat="38.23687297" lon="-1.1029192">
<ele>696</ele>
<time>2013-09-20T19:07:49Z</time>
</trkpt>
<trkpt lat="38.2369095" lon="-1.10283537">
<ele>697</ele>
<time>2013-09-20T19:07:51Z</time>
</trkpt>
<trkpt lat="38.23694481" lon="-1.10274781">
<ele>697</ele>
<time>2013-09-20T19:07:53Z</time>
</trkpt>
<trkpt lat="38.23689266" lon="-1.10266584">
<ele>697</ele>
<time>2013-09-20T19:07:55Z</time>
</trkpt>
<trkpt lat="38.23678325" lon="-1.10266985">
<ele>699</ele>
<time>2013-09-20T19:07:57Z</time>
</trkpt>
<trkpt lat="38.23665629" lon="-1.10264408">
<ele>700</ele>
<time>2013-09-20T19:07:59Z</time>
</trkpt>
<trkpt lat="38.2365367" lon="-1.10265905">
<ele>700</ele>
<time>2013-09-20T19:08:01Z</time>
</trkpt>
<trkpt lat="38.23640463" lon="-1.10270331">
<ele>702</ele>
<time>2013-09-20T19:08:03Z</time>
</trkpt>
<trkpt lat="38.23631192" lon="-1.10279">
<ele>709</ele>
<time>2013-09-20T19:08:05Z</time>
</trkpt>
<trkpt lat="38.23617411" lon="-1.10290701">
<ele>707</ele>
<time>2013-09-20T19:08:07Z</time>
</trkpt>
<trkpt lat="38.23601055" lon="-1.1031575">
<ele>710</ele>
<time>2013-09-20T19:08:09Z</time>
</trkpt>
<trkpt lat="38.23589962" lon="-1.10338834">
<ele>713</ele>
<time>2013-09-20T19:08:11Z</time>
</trkpt>
<trkpt lat="38.23582412" lon="-1.10360853">
<ele>712</ele>
<time>2013-09-20T19:08:13Z</time>
</trkpt>
<trkpt lat="38.23577162" lon="-1.10387847">
<ele>713</ele>
<time>2013-09-20T19:08:15Z</time>
</trkpt>
<trkpt lat="38.23573474" lon="-1.10412256">
<ele>714</ele>
<time>2013-09-20T19:08:17Z</time>
</trkpt>
<trkpt lat="38.23571554" lon="-1.1043819">
<ele>715</ele>
<time>2013-09-20T19:08:19Z</time>
</trkpt>
<trkpt lat="38.23571449" lon="-1.1046501">
<ele>715</ele>
<time>2013-09-20T19:08:21Z</time>
</trkpt>
<trkpt lat="38.23579063" lon="-1.1049154">
<ele>717</ele>
<time>2013-09-20T19:08:23Z</time>
</trkpt>
<trkpt lat="38.23584685" lon="-1.10517173">
<ele>719</ele>
<time>2013-09-20T19:08:25Z</time>
</trkpt>
<trkpt lat="38.23596705" lon="-1.10539273">
<ele>718</ele>
<time>2013-09-20T19:08:27Z</time>
</trkpt>
<trkpt lat="38.2361074" lon="-1.10558791">
<ele>719</ele>
<time>2013-09-20T19:08:29Z</time>
</trkpt>
<trkpt lat="38.23626683" lon="-1.10576146">
<ele>720</ele>
<time>2013-09-20T19:08:31Z</time>
</trkpt>
<trkpt lat="38.23638367" lon="-1.10579862">
<ele>721</ele>
<time>2013-09-20T19:08:33Z</time>
</trkpt>
<trkpt lat="38.23654738" lon="-1.10584023">
<ele>723</ele>
<time>2013-09-20T19:08:35Z</time>
</trkpt>
<trkpt lat="38.23669516" lon="-1.10582066">
<ele>723</ele>
<time>2013-09-20T19:08:37Z</time>
</trkpt>
<trkpt lat="38.23681403" lon="-1.10579444">
<ele>725</ele>
<time>2013-09-20T19:08:39Z</time>
</trkpt>
<trkpt lat="38.23691054" lon="-1.10575039">
<ele>727</ele>
<time>2013-09-20T19:08:41Z</time>
</trkpt>
<trkpt lat="38.23696564" lon="-1.10563318">
<ele>727</ele>
<time>2013-09-20T19:08:43Z</time>
</trkpt>
<trkpt lat="38.23698977" lon="-1.10556738">
<ele>729</ele>
<time>2013-09-20T19:08:45Z</time>
</trkpt>
<trkpt lat="38.23699911" lon="-1.10548962">
<ele>730</ele>
<time>2013-09-20T19:08:47Z</time>
</trkpt>
<trkpt lat="38.23699317" lon="-1.10543015">
<ele>731</ele>
<time>2013-09-20T19:08:49Z</time>
</trkpt>
<trkpt lat="38.23695493" lon="-1.10539936">
<ele>733</ele>
<time>2013-09-20T19:08:51Z</time>
</trkpt>
<trkpt lat="38.23689623" lon="-1.10537974">
<ele>735</ele>
<time>2013-09-20T19:08:53Z</time>
</trkpt>
<trkpt lat="38.23684078" lon="-1.10534915">
<ele>735</ele>
<time>2013-09-20T19:08:55Z</time>
</trkpt>
<trkpt lat="38.23675164" lon="-1.10534451">
<ele>736</ele>
<time>2013-09-20T19:08:57Z</time>
</trkpt>
<trkpt lat="38.23660307" lon="-1.10537034">
<ele>737</ele>
<time>2013-09-20T19:08:59Z</time>
</trkpt>
<trkpt lat="38.23647806" lon="-1.10539368">
<ele>736</ele>
<time>2013-09-20T19:09:01Z</time>
</trkpt>
<trkpt lat="38.23635545" lon="-1.10539778">
<ele>738</ele>
<time>2013-09-20T19:09:03Z</time>
</trkpt>
<trkpt lat="38.23620946" lon="-1.10545208">
<ele>739</ele>
<time>2013-09-20T19:09:05Z</time>
</trkpt>
<trkpt lat="38.23607191" lon="-1.10553089">
<ele>740</ele>
<time>2013-09-20T19:09:07Z</time>
</trkpt>
<trkpt lat="38.23595057" lon="-1.10567595">
<ele>742</ele>
<time>2013-09-20T19:09:09Z</time>
</trkpt>
<trkpt lat="38.2358291" lon="-1.10582317">
<ele>743</ele>
<time>2013-09-20T19:09:11Z</time>
</trkpt>
<trkpt lat="38.23571189" lon="-1.10594864">
<ele>747</ele>
<time>2013-09-20T19:09:13Z</time>
</trkpt>
<trkpt lat="38.23559871" lon="-1.10608193">
<ele>749</ele>
<time>2013-09-20T19:09:15Z</time>
</trkpt>
<trkpt lat="38.23548675" lon="-1.10622783">
<ele>751</ele>
<time>2013-09-20T19:09:17Z</time>
</trkpt>
<trkpt lat="38.23535445" lon="-1.10635223">
<ele>751</ele>
<time>2013-09-20T19:09:19Z</time>
</trkpt>
<trkpt lat="38.23525953" lon="-1.10639614">
<ele>757</ele>
<time>2013-09-20T19:09:21Z</time>
</trkpt>
<trkpt lat="38.23511891" lon="-1.1064447">
<ele>758</ele>
<time>2013-09-20T19:09:23Z</time>
</trkpt>
<trkpt lat="38.23500103" lon="-1.10650841">
<ele>758</ele>
<time>2013-09-20T19:09:25Z</time>
</trkpt>
<trkpt lat="38.23490355" lon="-1.10649688">
<ele>757</ele>
<time>2013-09-20T19:09:27Z</time>
</trkpt>
<trkpt lat="38.23482684" lon="-1.10644932">
<ele>757</ele>
<time>2013-09-20T19:09:29Z</time>
</trkpt>
<trkpt lat="38.23474931" lon="-1.10638931">
<ele>757</ele>
<time>2013-09-20T19:09:31Z</time>
</trkpt>
<trkpt lat="38.23476786" lon="-1.10632075">
<ele>755</ele>
<time>2013-09-20T19:09:33Z</time>
</trkpt>
<trkpt lat="38.23475893" lon="-1.10624086">
<ele>754</ele>
<time>2013-09-20T19:09:35Z</time>
</trkpt>
<trkpt lat="38.23478301" lon="-1.10614342">
<ele>753</ele>
<time>2013-09-20T19:09:37Z</time>
</trkpt>
<trkpt lat="38.23498037" lon="-1.10607128">
<ele>755</ele>
<time>2013-09-20T19:09:39Z</time>
</trkpt>
<trkpt lat="38.23514633" lon="-1.10612297">
<ele>754</ele>
<time>2013-09-20T19:09:41Z</time>
</trkpt>
<trkpt lat="38.23532309" lon="-1.10623211">
<ele>754</ele>
<time>2013-09-20T19:09:43Z</time>
</trkpt>
<trkpt lat="38.23547706" lon="-1.1064263">
<ele>757</ele>
<time>2013-09-20T19:09:45Z</time>
</trkpt>
<trkpt lat="38.23563542" lon="-1.10665262">
<ele>762</ele>
<time>2013-09-20T19:09:47Z</time>
</trkpt>
<trkpt lat="38.23572461" lon="-1.10688507">
<ele>763</ele>
<time>2013-09-20T19:09:49Z</time>
</trkpt>
<trkpt lat="38.23571904" lon="-1.10711585">
<ele>761</ele>
<time>2013-09-20T19:09:51Z</time>
</trkpt>
<trkpt lat="38.23569824" lon="-1.10741249">
<ele>764</ele>
<time>2013-09-20T19:09:53Z</time>
</trkpt>
<trkpt lat="38.23564758" lon="-1.10763644">
<ele>765</ele>
<time>2013-09-20T19:09:55Z</time>
</trkpt>
<trkpt lat="38.23559368" lon="-1.10787867">
<ele>768</ele>
<time>2013-09-20T19:09:57Z</time>
</trkpt>
<trkpt lat="38.23549929" lon="-1.10804834">
<ele>770</ele>
<time>2013-09-20T19:09:59Z</time>
</trkpt>
<trkpt lat="38.23537106" lon="-1.1081618">
<ele>769</ele>
<time>2013-09-20T19:10:01Z</time>
</trkpt>
<trkpt lat="38.23526126" lon="-1.10823059">
<ele>769</ele>
<time>2013-09-20T19:10:03Z</time>
</trkpt>
<trkpt lat="38.23513975" lon="-1.10826592">
<ele>770</ele>
<time>2013-09-20T19:10:05Z</time>
</trkpt>
<trkpt lat="38.23503757" lon="-1.10825096">
<ele>768</ele>
<time>2013-09-20T19:10:07Z</time>
</trkpt>
<trkpt lat="38.23495725" lon="-1.10821443">
<ele>766</ele>
<time>2013-09-20T19:10:09Z</time>
</trkpt>
<trkpt lat="38.23494744" lon="-1.10809791">
<ele>767</ele>
<time>2013-09-20T19:10:11Z</time>
</trkpt>
<trkpt lat="38.23498383" lon="-1.10801277">
<ele>766</ele>
<time>2013-09-20T19:10:13Z</time>
</trkpt>
<trkpt lat="38.23506258" lon="-1.10794614">
<ele>767</ele>
<time>2013-09-20T19:10:15Z</time>
</trkpt>
<trkpt lat="38.23516568" lon="-1.10787587">
<ele>767</ele>
<time>2013-09-20T19:10:17Z</time>
</trkpt>
<trkpt lat="38.23534474" lon="-1.107904">
<ele>768</ele>
<time>2013-09-20T19:10:19Z</time>
</trkpt>
<trkpt lat="38.23549289" lon="-1.10793752">
<ele>769</ele>
<time>2013-09-20T19:10:21Z</time>
</trkpt>
<trkpt lat="38.23565076" lon="-1.10804318">
<ele>769</ele>
<time>2013-09-20T19:10:23Z</time>
</trkpt>
<trkpt lat="38.23579756" lon="-1.10821435">
<ele>770</ele>
<time>2013-09-20T19:10:25Z</time>
</trkpt>
<trkpt lat="38.23593481" lon="-1.10840224">
<ele>771</ele>
<time>2013-09-20T19:10:27Z</time>
</trkpt>
<trkpt lat="38.23601833" lon="-1.1086721">
<ele>781</ele>
<time>2013-09-20T19:10:29Z</time>
</trkpt>
<trkpt lat="38.23599266" lon="-1.10891678">
<ele>782</ele>
<time>2013-09-20T19:10:31Z</time>
</trkpt>
<trkpt lat="38.23596543" lon="-1.10913225">
<ele>782</ele>
<time>2013-09-20T19:10:33Z</time>
</trkpt>
<trkpt lat="38.23592002" lon="-1.10937654">
<ele>784</ele>
<time>2013-09-20T19:10:35Z</time>
</trkpt>
<trkpt lat="38.23586024" lon="-1.10960213">
<ele>785</ele>
<time>2013-09-20T19:10:37Z</time>
</trkpt>
<trkpt lat="38.2357844" lon="-1.10982927">
<ele>784</ele>
<time>2013-09-20T19:10:39Z</time>
</trkpt>
<trkpt lat="38.23571315" lon="-1.11002738">
<ele>782</ele>
<time>2013-09-20T19:10:41Z</time>
</trkpt>
<trkpt lat="38.2356366" lon="-1.11023377">
<ele>783</ele>
<time>2013-09-20T19:10:43Z</time>
</trkpt>
<trkpt lat="38.23554975" lon="-1.11040036">
<ele>781</ele>
<time>2013-09-20T19:10:45Z</time>
</trkpt>
<trkpt lat="38.23543598" lon="-1.11058225">
<ele>781</ele>
<time>2013-09-20T19:10:47Z</time>
</trkpt>
<trkpt lat="38.23532094" lon="-1.11075099">
<ele>781</ele>
<time>2013-09-20T19:10:49Z</time>
</trkpt>
<trkpt lat="38.23519598" lon="-1.11089659">
<ele>781</ele>
<time>2013-09-20T19:10:51Z</time>
</trkpt>
<trkpt lat="38.23509268" lon="-1.11111056">
<ele>783</ele>
<time>2013-09-20T19:10:53Z</time>
</trkpt>
<trkpt lat="38.2350115" lon="-1.11133074">
<ele>781</ele>
<time>2013-09-20T19:10:55Z</time>
</trkpt>
<trkpt lat="38.23493149" lon="-1.11155337">
<ele>782</ele>
<time>2013-09-20T19:10:57Z</time>
</trkpt>
<trkpt lat="38.23485314" lon="-1.11181574">
<ele>780</ele>
<time>2013-09-20T19:10:59Z</time>
</trkpt>
<trkpt lat="38.23479022" lon="-1.11206599">
<ele>782</ele>
<time>2013-09-20T19:11:01Z</time>
</trkpt>
<trkpt lat="38.23477421" lon="-1.11228998">
<ele>783</ele>
<time>2013-09-20T19:11:03Z</time>
</trkpt>
<trkpt lat="38.2347252" lon="-1.11254063">
<ele>783</ele>
<time>2013-09-20T19:11:05Z</time>
</trkpt>
<trkpt lat="38.23470462" lon="-1.11281191">
<ele>782</ele>
<time>2013-09-20T19:11:07Z</time>
</trkpt>
<trkpt lat="38.23470885" lon="-1.11302878">
<ele>782</ele>
<time>2013-09-20T19:11:09Z</time>
</trkpt>
<trkpt lat="38.23469152" lon="-1.11326315">
<ele>777</ele>
<time>2013-09-20T19:11:11Z</time>
</trkpt>
<trkpt lat="38.23465428" lon="-1.11353301">
<ele>770</ele>
<time>2013-09-20T19:11:13Z</time>
</trkpt>
<trkpt lat="38.23463003" lon="-1.11379639">
<ele>770</ele>
<time>2013-09-20T19:11:15Z</time>
</trkpt>
<trkpt lat="38.23459058" lon="-1.11405818">
<ele>767</ele>
<time>2013-09-20T19:11:17Z</time>
</trkpt>
<trkpt lat="38.234524" lon="-1.1143424">
<ele>763</ele>
<time>2013-09-20T19:11:19Z</time>
</trkpt>
<trkpt lat="38.23449472" lon="-1.1146092">
<ele>767</ele>
<time>2013-09-20T19:11:21Z</time>
</trkpt>
<trkpt lat="38.2344856" lon="-1.11492008">
<ele>768</ele>
<time>2013-09-20T19:11:23Z</time>
</trkpt>
<trkpt lat="38.23447159" lon="-1.11520467">
<ele>769</ele>
<time>2013-09-20T19:11:25Z</time>
</trkpt>
<trkpt lat="38.23444895" lon="-1.11549638">
<ele>770</ele>
<time>2013-09-20T19:11:27Z</time>
</trkpt>
<trkpt lat="38.23444598" lon="-1.11573988">
<ele>773</ele>
<time>2013-09-20T19:11:29Z</time>
</trkpt>
<trkpt lat="38.23444016" lon="-1.11600056">
<ele>776</ele>
<time>2013-09-20T19:11:31Z</time>
</trkpt>
<trkpt lat="38.23440936" lon="-1.11630492">
<ele>777</ele>
<time>2013-09-20T19:11:33Z</time>
</trkpt>
<trkpt lat="38.23437847" lon="-1.11659829">
<ele>779</ele>
<time>2013-09-20T19:11:35Z</time>
</trkpt>
<trkpt lat="38.23433603" lon="-1.11689825">
<ele>778</ele>
<time>2013-09-20T19:11:37Z</time>
</trkpt>
<trkpt lat="38.23430311" lon="-1.11718212">
<ele>778</ele>
<time>2013-09-20T19:11:39Z</time>
</trkpt>
<trkpt lat="38.2342699" lon="-1.11745601">
<ele>779</ele>
<time>2013-09-20T19:11:41Z</time>
</trkpt>
<trkpt lat="38.23425093" lon="-1.1177372">
<ele>781</ele>
<time>2013-09-20T19:11:43Z</time>
</trkpt>
<trkpt lat="38.23424758" lon="-1.11798272">
<ele>783</ele>
<time>2013-09-20T19:11:45Z</time>
</trkpt>
<trkpt lat="38.23421577" lon="-1.11827555">
<ele>780</ele>
<time>2013-09-20T19:11:47Z</time>
</trkpt>
<trkpt lat="38.23422849" lon="-1.11857539">
<ele>778</ele>
<time>2013-09-20T19:11:49Z</time>
</trkpt>
<trkpt lat="38.23423783" lon="-1.11882985">
<ele>781</ele>
<time>2013-09-20T19:11:51Z</time>
</trkpt>
<trkpt lat="38.23427623" lon="-1.11910018">
<ele>778</ele>
<time>2013-09-20T19:11:53Z</time>
</trkpt>
<trkpt lat="38.23426035" lon="-1.11940818">
<ele>776</ele>
<time>2013-09-20T19:11:55Z</time>
</trkpt>
<trkpt lat="38.23426197" lon="-1.11967295">
<ele>774</ele>
<time>2013-09-20T19:11:57Z</time>
</trkpt>
<trkpt lat="38.23425874" lon="-1.11994576">
<ele>772</ele>
<time>2013-09-20T19:11:59Z</time>
</trkpt>
<trkpt lat="38.23425951" lon="-1.12025162">
<ele>768</ele>
<time>2013-09-20T19:12:01Z</time>
</trkpt>
<trkpt lat="38.23423524" lon="-1.12058275">
<ele>762</ele>
<time>2013-09-20T19:12:03Z</time>
</trkpt>
<trkpt lat="38.23423268" lon="-1.12090804">
<ele>761</ele>
<time>2013-09-20T19:12:05Z</time>
</trkpt>
<trkpt lat="38.23424698" lon="-1.12121487">
<ele>762</ele>
<time>2013-09-20T19:12:07Z</time>
</trkpt>
<trkpt lat="38.23424923" lon="-1.121531">
<ele>764</ele>
<time>2013-09-20T19:12:09Z</time>
</trkpt>
<trkpt lat="38.23425981" lon="-1.12181829">
<ele>766</ele>
<time>2013-09-20T19:12:11Z</time>
</trkpt>
<trkpt lat="38.23429888" lon="-1.1221123">
<ele>765</ele>
<time>2013-09-20T19:12:13Z</time>
</trkpt>
<trkpt lat="38.2343108" lon="-1.12239634">
<ele>762</ele>
<time>2013-09-20T19:12:15Z</time>
</trkpt>
<trkpt lat="38.23434132" lon="-1.12270745">
<ele>762</ele>
<time>2013-09-20T19:12:17Z</time>
</trkpt>
<trkpt lat="38.23435809" lon="-1.12296405">
<ele>762</ele>
<time>2013-09-20T19:12:19Z</time>
</trkpt>
<trkpt lat="38.23440952" lon="-1.1232393">
<ele>766</ele>
<time>2013-09-20T19:12:21Z</time>
</trkpt>
<trkpt lat="38.23441916" lon="-1.12351918">
<ele>765</ele>
<time>2013-09-20T19:12:23Z</time>
</trkpt>
<trkpt lat="38.23443445" lon="-1.12378763">
<ele>765</ele>
<time>2013-09-20T19:12:25Z</time>
</trkpt>
<trkpt lat="38.23444169" lon="-1.12406794">
<ele>763</ele>
<time>2013-09-20T19:12:27Z</time>
</trkpt>
<trkpt lat="38.23445397" lon="-1.12435322">
<ele>765</ele>
<time>2013-09-20T19:12:29Z</time>
</trkpt>
<trkpt lat="38.23449444" lon="-1.12469141">
<ele>763</ele>
<time>2013-09-20T19:12:31Z</time>
</trkpt>
<trkpt lat="38.23452824" lon="-1.1249828">
<ele>761</ele>
<time>2013-09-20T19:12:33Z</time>
</trkpt>
<trkpt lat="38.23454628" lon="-1.12527715">
<ele>761</ele>
<time>2013-09-20T19:12:35Z</time>
</trkpt>
<trkpt lat="38.23457803" lon="-1.12556249">
<ele>760</ele>
<time>2013-09-20T19:12:37Z</time>
</trkpt>
<trkpt lat="38.23460983" lon="-1.12585949">
<ele>759</ele>
<time>2013-09-20T19:12:39Z</time>
</trkpt>
<trkpt lat="38.23462223" lon="-1.12615498">
<ele>759</ele>
<time>2013-09-20T19:12:41Z</time>
</trkpt>
<trkpt lat="38.23467411" lon="-1.1264368">
<ele>756</ele>
<time>2013-09-20T19:12:43Z</time>
</trkpt>
<trkpt lat="38.23469491" lon="-1.12670099">
<ele>755</ele>
<time>2013-09-20T19:12:45Z</time>
</trkpt>
<trkpt lat="38.2347168" lon="-1.12701035">
<ele>754</ele>
<time>2013-09-20T19:12:47Z</time>
</trkpt>
<trkpt lat="38.23476061" lon="-1.12726805">
<ele>755</ele>
<time>2013-09-20T19:12:49Z</time>
</trkpt>
<trkpt lat="38.23479622" lon="-1.12754536">
<ele>753</ele>
<time>2013-09-20T19:12:51Z</time>
</trkpt>
<trkpt lat="38.23483474" lon="-1.12785628">
<ele>752</ele>
<time>2013-09-20T19:12:53Z</time>
</trkpt>
<trkpt lat="38.23490269" lon="-1.12815459">
<ele>751</ele>
<time>2013-09-20T19:12:55Z</time>
</trkpt>
<trkpt lat="38.23496409" lon="-1.12844172">
<ele>751</ele>
<time>2013-09-20T19:12:57Z</time>
</trkpt>
<trkpt lat="38.23502862" lon="-1.12871797">
<ele>750</ele>
<time>2013-09-20T19:12:59Z</time>
</trkpt>
<trkpt lat="38.23512588" lon="-1.12901632">
<ele>751</ele>
<time>2013-09-20T19:13:01Z</time>
</trkpt>
<trkpt lat="38.23521395" lon="-1.12929128">
<ele>750</ele>
<time>2013-09-20T19:13:03Z</time>
</trkpt>
<trkpt lat="38.23528618" lon="-1.12954971">
<ele>747</ele>
<time>2013-09-20T19:13:05Z</time>
</trkpt>
<trkpt lat="38.23534599" lon="-1.12984836">
<ele>746</ele>
<time>2013-09-20T19:13:07Z</time>
</trkpt>
<trkpt lat="38.23541771" lon="-1.13010684">
<ele>746</ele>
<time>2013-09-20T19:13:09Z</time>
</trkpt>
<trkpt lat="38.23548495" lon="-1.13037141">
<ele>746</ele>
<time>2013-09-20T19:13:11Z</time>
</trkpt>
<trkpt lat="38.2355294" lon="-1.13065549">
<ele>743</ele>
<time>2013-09-20T19:13:13Z</time>
</trkpt>
<trkpt lat="38.23558311" lon="-1.13094093">
<ele>742</ele>
<time>2013-09-20T19:13:15Z</time>
</trkpt>
<trkpt lat="38.23564665" lon="-1.13119198">
<ele>741</ele>
<time>2013-09-20T19:13:17Z</time>
</trkpt>
<trkpt lat="38.23570771" lon="-1.13147528">
<ele>743</ele>
<time>2013-09-20T19:13:19Z</time>
</trkpt>
<trkpt lat="38.23574988" lon="-1.13172444">
<ele>744</ele>
<time>2013-09-20T19:13:21Z</time>
</trkpt>
<trkpt lat="38.2357885" lon="-1.13197191">
<ele>741</ele>
<time>2013-09-20T19:13:23Z</time>
</trkpt>
<trkpt lat="38.23586345" lon="-1.13224232">
<ele>741</ele>
<time>2013-09-20T19:13:25Z</time>
</trkpt>
<trkpt lat="38.23592314" lon="-1.13251613">
<ele>740</ele>
<time>2013-09-20T19:13:27Z</time>
</trkpt>
<trkpt lat="38.23597247" lon="-1.13279162">
<ele>739</ele>
<time>2013-09-20T19:13:29Z</time>
</trkpt>
<trkpt lat="38.23601232" lon="-1.13303988">
<ele>739</ele>
<time>2013-09-20T19:13:31Z</time>
</trkpt>
<trkpt lat="38.23605516" lon="-1.13329257">
<ele>739</ele>
<time>2013-09-20T19:13:33Z</time>
</trkpt>
<trkpt lat="38.23609093" lon="-1.13356394">
<ele>740</ele>
<time>2013-09-20T19:13:35Z</time>
</trkpt>
<trkpt lat="38.23614638" lon="-1.13379724">
<ele>740</ele>
<time>2013-09-20T19:13:37Z</time>
</trkpt>
<trkpt lat="38.23617242" lon="-1.13403735">
<ele>740</ele>
<time>2013-09-20T19:13:39Z</time>
</trkpt>
<trkpt lat="38.23618801" lon="-1.13429309">
<ele>739</ele>
<time>2013-09-20T19:13:41Z</time>
</trkpt>
<trkpt lat="38.2362542" lon="-1.13456178">
<ele>738</ele>
<time>2013-09-20T19:13:43Z</time>
</trkpt>
<trkpt lat="38.2363192" lon="-1.13486049">
<ele>735</ele>
<time>2013-09-20T19:13:45Z</time>
</trkpt>
<trkpt lat="38.23636283" lon="-1.13509483">
<ele>737</ele>
<time>2013-09-20T19:13:47Z</time>
</trkpt>
<trkpt lat="38.23638938" lon="-1.13536847">
<ele>736</ele>
<time>2013-09-20T19:13:49Z</time>
</trkpt>
<trkpt lat="38.23643463" lon="-1.13562895">
<ele>736</ele>
<time>2013-09-20T19:13:51Z</time>
</trkpt>
<trkpt lat="38.23647734" lon="-1.13591781">
<ele>733</ele>
<time>2013-09-20T19:13:53Z</time>
</trkpt>
<trkpt lat="38.23655036" lon="-1.13619778">
<ele>733</ele>
<time>2013-09-20T19:13:55Z</time>
</trkpt>
<trkpt lat="38.23657217" lon="-1.13646658">
<ele>735</ele>
<time>2013-09-20T19:13:57Z</time>
</trkpt>
<trkpt lat="38.2365728" lon="-1.13670825">
<ele>734</ele>
<time>2013-09-20T19:13:59Z</time>
</trkpt>
<trkpt lat="38.23654964" lon="-1.13699377">
<ele>732</ele>
<time>2013-09-20T19:14:01Z</time>
</trkpt>
<trkpt lat="38.23641146" lon="-1.13715594">
<ele>730</ele>
<time>2013-09-20T19:14:03Z</time>
</trkpt>
<trkpt lat="38.23629926" lon="-1.13733877">
<ele>729</ele>
<time>2013-09-20T19:14:05Z</time>
</trkpt>
<trkpt lat="38.23626265" lon="-1.13715202">
<ele>727</ele>
<time>2013-09-20T19:14:07Z</time>
</trkpt>
<trkpt lat="38.23628118" lon="-1.13706506">
<ele>725</ele>
<time>2013-09-20T19:14:09Z</time>
</trkpt>
<trkpt lat="38.23642007" lon="-1.13702965">
<ele>726</ele>
<time>2013-09-20T19:14:11Z</time>
</trkpt>
<trkpt lat="38.23647702" lon="-1.13697625">
<ele>725</ele>
<time>2013-09-20T19:14:13Z</time>
</trkpt>
<trkpt lat="38.23656042" lon="-1.13692489">
<ele>726</ele>
<time>2013-09-20T19:14:15Z</time>
</trkpt>
<trkpt lat="38.2366465" lon="-1.13686326">
<ele>728</ele>
<time>2013-09-20T19:14:17Z</time>
</trkpt>
<trkpt lat="38.23669579" lon="-1.13678365">
<ele>723</ele>
<time>2013-09-20T19:14:19Z</time>
</trkpt>
<trkpt lat="38.23679786" lon="-1.13670463">
<ele>723</ele>
<time>2013-09-20T19:14:21Z</time>
</trkpt>
<trkpt lat="38.23688377" lon="-1.1366257">
<ele>723</ele>
<time>2013-09-20T19:14:23Z</time>
</trkpt>
<trkpt lat="38.23695084" lon="-1.13654413">
<ele>723</ele>
<time>2013-09-20T19:14:25Z</time>
</trkpt>
<trkpt lat="38.2370214" lon="-1.13647921">
<ele>723</ele>
<time>2013-09-20T19:14:27Z</time>
</trkpt>
<trkpt lat="38.23706243" lon="-1.13643765">
<ele>724</ele>
<time>2013-09-20T19:14:29Z</time>
</trkpt>
<trkpt lat="38.23712173" lon="-1.13635957">
<ele>727</ele>
<time>2013-09-20T19:14:31Z</time>
</trkpt>
<trkpt lat="38.23717697" lon="-1.13626517">
<ele>727</ele>
<time>2013-09-20T19:14:33Z</time>
</trkpt>
<trkpt lat="38.23721614" lon="-1.13619731">
<ele>726</ele>
<time>2013-09-20T19:14:35Z</time>
</trkpt>
<trkpt lat="38.23726933" lon="-1.13609652">
<ele>726</ele>
<time>2013-09-20T19:14:37Z</time>
</trkpt>
<trkpt lat="38.23731327" lon="-1.13601109">
<ele>727</ele>
<time>2013-09-20T19:14:39Z</time>
</trkpt>
<trkpt lat="38.23740224" lon="-1.13590245">
<ele>730</ele>
<time>2013-09-20T19:14:41Z</time>
</trkpt>
<trkpt lat="38.23746745" lon="-1.13579882">
<ele>732</ele>
<time>2013-09-20T19:14:43Z</time>
</trkpt>
<trkpt lat="38.23749601" lon="-1.13571306">
<ele>733</ele>
<time>2013-09-20T19:14:45Z</time>
</trkpt>
<trkpt lat="38.23753757" lon="-1.13562182">
<ele>733</ele>
<time>2013-09-20T19:14:47Z</time>
</trkpt>
<trkpt lat="38.23760915" lon="-1.13554103">
<ele>736</ele>
<time>2013-09-20T19:14:49Z</time>
</trkpt>
<trkpt lat="38.23762259" lon="-1.13545344">
<ele>735</ele>
<time>2013-09-20T19:14:51Z</time>
</trkpt>
<trkpt lat="38.23757883" lon="-1.13541229">
<ele>736</ele>
<time>2013-09-20T19:14:53Z</time>
</trkpt>
<trkpt lat="38.23749367" lon="-1.13537762">
<ele>737</ele>
<time>2013-09-20T19:14:55Z</time>
</trkpt>
<trkpt lat="38.23737246" lon="-1.13555084">
<ele>735</ele>
<time>2013-09-20T19:14:57Z</time>
</trkpt>
<trkpt lat="38.23731768" lon="-1.1357889">
<ele>737</ele>
<time>2013-09-20T19:14:59Z</time>
</trkpt>
<trkpt lat="38.23725288" lon="-1.13598382">
<ele>736</ele>
<time>2013-09-20T19:15:01Z</time>
</trkpt>
<trkpt lat="38.23719964" lon="-1.13620369">
<ele>737</ele>
<time>2013-09-20T19:15:03Z</time>
</trkpt>
<trkpt lat="38.23714672" lon="-1.13644162">
<ele>738</ele>
<time>2013-09-20T19:15:05Z</time>
</trkpt>
<trkpt lat="38.23709991" lon="-1.13666903">
<ele>740</ele>
<time>2013-09-20T19:15:07Z</time>
</trkpt>
<trkpt lat="38.23704401" lon="-1.13689399">
<ele>740</ele>
<time>2013-09-20T19:15:09Z</time>
</trkpt>
<trkpt lat="38.23700125" lon="-1.13710577">
<ele>741</ele>
<time>2013-09-20T19:15:11Z</time>
</trkpt>
<trkpt lat="38.23696011" lon="-1.13734158">
<ele>743</ele>
<time>2013-09-20T19:15:13Z</time>
</trkpt>
<trkpt lat="38.23691958" lon="-1.13758187">
<ele>745</ele>
<time>2013-09-20T19:15:15Z</time>
</trkpt>
<trkpt lat="38.23691422" lon="-1.13784068">
<ele>748</ele>
<time>2013-09-20T19:15:17Z</time>
</trkpt>
<trkpt lat="38.23689121" lon="-1.13809787">
<ele>747</ele>
<time>2013-09-20T19:15:19Z</time>
</trkpt>
<trkpt lat="38.2369176" lon="-1.13836562">
<ele>747</ele>
<time>2013-09-20T19:15:21Z</time>
</trkpt>
<trkpt lat="38.23692547" lon="-1.1386518">
<ele>745</ele>
<time>2013-09-20T19:15:23Z</time>
</trkpt>
<trkpt lat="38.23693714" lon="-1.13895147">
<ele>744</ele>
<time>2013-09-20T19:15:25Z</time>
</trkpt>
<trkpt lat="38.2369917" lon="-1.13921549">
<ele>748</ele>
<time>2013-09-20T19:15:27Z</time>
</trkpt>
<trkpt lat="38.23696044" lon="-1.13947264">
<ele>747</ele>
<time>2013-09-20T19:15:29Z</time>
</trkpt>
<trkpt lat="38.2369366" lon="-1.13976523">
<ele>747</ele>
<time>2013-09-20T19:15:31Z</time>
</trkpt>
<trkpt lat="38.23692635" lon="-1.14000372">
<ele>745</ele>
<time>2013-09-20T19:15:33Z</time>
</trkpt>
<trkpt lat="38.23690896" lon="-1.14027683">
<ele>745</ele>
<time>2013-09-20T19:15:35Z</time>
</trkpt>
<trkpt lat="38.236887" lon="-1.1405636">
<ele>744</ele>
<time>2013-09-20T19:15:37Z</time>
</trkpt>
<trkpt lat="38.23686174" lon="-1.1408715">
<ele>745</ele>
<time>2013-09-20T19:15:39Z</time>
</trkpt>
<trkpt lat="38.23684773" lon="-1.14113481">
<ele>744</ele>
<time>2013-09-20T19:15:41Z</time>
</trkpt>
<trkpt lat="38.23684026" lon="-1.14141532">
<ele>745</ele>
<time>2013-09-20T19:15:43Z</time>
</trkpt>
<trkpt lat="38.2368163" lon="-1.14167886">
<ele>747</ele>
<time>2013-09-20T19:15:45Z</time>
</trkpt>
<trkpt lat="38.2367816" lon="-1.14196888">
<ele>748</ele>
<time>2013-09-20T19:15:47Z</time>
</trkpt>
<trkpt lat="38.23674809" lon="-1.14220223">
<ele>748</ele>
<time>2013-09-20T19:15:49Z</time>
</trkpt>
<trkpt lat="38.23668501" lon="-1.14241262">
<ele>747</ele>
<time>2013-09-20T19:15:51Z</time>
</trkpt>
<trkpt lat="38.23662898" lon="-1.14269255">
<ele>749</ele>
<time>2013-09-20T19:15:53Z</time>
</trkpt>
<trkpt lat="38.23652408" lon="-1.14287085">
<ele>748</ele>
<time>2013-09-20T19:15:55Z</time>
</trkpt>
<trkpt lat="38.2363889" lon="-1.14304264">
<ele>747</ele>
<time>2013-09-20T19:15:57Z</time>
</trkpt>
<trkpt lat="38.23627071" lon="-1.14323233">
<ele>748</ele>
<time>2013-09-20T19:15:59Z</time>
</trkpt>
<trkpt lat="38.23614764" lon="-1.14341976">
<ele>749</ele>
<time>2013-09-20T19:16:01Z</time>
</trkpt>
<trkpt lat="38.23604797" lon="-1.14358162">
<ele>750</ele>
<time>2013-09-20T19:16:03Z</time>
</trkpt>
<trkpt lat="38.23593097" lon="-1.14372234">
<ele>753</ele>
<time>2013-09-20T19:16:05Z</time>
</trkpt>
<trkpt lat="38.23582245" lon="-1.14385463">
<ele>755</ele>
<time>2013-09-20T19:16:07Z</time>
</trkpt>
<trkpt lat="38.23570472" lon="-1.14392702">
<ele>756</ele>
<time>2013-09-20T19:16:09Z</time>
</trkpt>
<trkpt lat="38.23558897" lon="-1.14402906">
<ele>760</ele>
<time>2013-09-20T19:16:11Z</time>
</trkpt>
<trkpt lat="38.23547513" lon="-1.14413208">
<ele>764</ele>
<time>2013-09-20T19:16:13Z</time>
</trkpt>
<trkpt lat="38.23536937" lon="-1.14424862">
<ele>765</ele>
<time>2013-09-20T19:16:15Z</time>
</trkpt>
<trkpt lat="38.23525823" lon="-1.14439549">
<ele>767</ele>
<time>2013-09-20T19:16:17Z</time>
</trkpt>
<trkpt lat="38.2351741" lon="-1.14452155">
<ele>769</ele>
<time>2013-09-20T19:16:19Z</time>
</trkpt>
<trkpt lat="38.23508397" lon="-1.1446639">
<ele>770</ele>
<time>2013-09-20T19:16:21Z</time>
</trkpt>
<trkpt lat="38.23494753" lon="-1.14480202">
<ele>773</ele>
<time>2013-09-20T19:16:23Z</time>
</trkpt>
<trkpt lat="38.23483251" lon="-1.14494061">
<ele>778</ele>
<time>2013-09-20T19:16:25Z</time>
</trkpt>
<trkpt lat="38.23470857" lon="-1.14507019">
<ele>779</ele>
<time>2013-09-20T19:16:27Z</time>
</trkpt>
<trkpt lat="38.23460612" lon="-1.14517228">
<ele>782</ele>
<time>2013-09-20T19:16:29Z</time>
</trkpt>
<trkpt lat="38.23448599" lon="-1.14529961">
<ele>787</ele>
<time>2013-09-20T19:16:31Z</time>
</trkpt>
<trkpt lat="38.23439032" lon="-1.14542289">
<ele>788</ele>
<time>2013-09-20T19:16:33Z</time>
</trkpt>
<trkpt lat="38.23427555" lon="-1.14559307">
<ele>791</ele>
<time>2013-09-20T19:16:35Z</time>
</trkpt>
<trkpt lat="38.23415281" lon="-1.14572606">
<ele>796</ele>
<time>2013-09-20T19:16:37Z</time>
</trkpt>
<trkpt lat="38.23401953" lon="-1.14583629">
<ele>800</ele>
<time>2013-09-20T19:16:39Z</time>
</trkpt>
<trkpt lat="38.23388517" lon="-1.14591982">
<ele>803</ele>
<time>2013-09-20T19:16:41Z</time>
</trkpt>
<trkpt lat="38.23375494" lon="-1.14606759">
<ele>807</ele>
<time>2013-09-20T19:16:43Z</time>
</trkpt>
<trkpt lat="38.23364194" lon="-1.1462235">
<ele>812</ele>
<time>2013-09-20T19:16:45Z</time>
</trkpt>
<trkpt lat="38.23349005" lon="-1.14638411">
<ele>816</ele>
<time>2013-09-20T19:16:47Z</time>
</trkpt>
<trkpt lat="38.2333471" lon="-1.14654622">
<ele>818</ele>
<time>2013-09-20T19:16:49Z</time>
</trkpt>
<trkpt lat="38.23320676" lon="-1.14669157">
<ele>825</ele>
<time>2013-09-20T19:16:51Z</time>
</trkpt>
<trkpt lat="38.23309503" lon="-1.14682659">
<ele>825</ele>
<time>2013-09-20T19:16:53Z</time>
</trkpt>
<trkpt lat="38.23294714" lon="-1.14696394">
<ele>827</ele>
<time>2013-09-20T19:16:55Z</time>
</trkpt>
<trkpt lat="38.23282632" lon="-1.14707819">
<ele>833</ele>
<time>2013-09-20T19:16:57Z</time>
</trkpt>
<trkpt lat="38.23271888" lon="-1.1471829">
<ele>835</ele>
<time>2013-09-20T19:16:59Z</time>
</trkpt>
<trkpt lat="38.23259866" lon="-1.14727879">
<ele>837</ele>
<time>2013-09-20T19:17:01Z</time>
</trkpt>
<trkpt lat="38.23244685" lon="-1.14738928">
<ele>842</ele>
<time>2013-09-20T19:17:03Z</time>
</trkpt>
<trkpt lat="38.23231172" lon="-1.14749898">
<ele>847</ele>
<time>2013-09-20T19:17:05Z</time>
</trkpt>
<trkpt lat="38.23217896" lon="-1.14759545">
<ele>848</ele>
<time>2013-09-20T19:17:07Z</time>
</trkpt>
<trkpt lat="38.23202138" lon="-1.14770453">
<ele>850</ele>
<time>2013-09-20T19:17:09Z</time>
</trkpt>
<trkpt lat="38.23189094" lon="-1.1478766">
<ele>854</ele>
<time>2013-09-20T19:17:11Z</time>
</trkpt>
<trkpt lat="38.23177336" lon="-1.14803795">
<ele>855</ele>
<time>2013-09-20T19:17:13Z</time>
</trkpt>
<trkpt lat="38.23163632" lon="-1.14822234">
<ele>856</ele>
<time>2013-09-20T19:17:15Z</time>
</trkpt>
<trkpt lat="38.23150892" lon="-1.14839649">
<ele>858</ele>
<time>2013-09-20T19:17:17Z</time>
</trkpt>
<trkpt lat="38.23137953" lon="-1.14858046">
<ele>860</ele>
<time>2013-09-20T19:17:19Z</time>
</trkpt>
<trkpt lat="38.23123667" lon="-1.14869936">
<ele>861</ele>
<time>2013-09-20T19:17:21Z</time>
</trkpt>
<trkpt lat="38.23108291" lon="-1.14877853">
<ele>866</ele>
<time>2013-09-20T19:17:23Z</time>
</trkpt>
<trkpt lat="38.23099898" lon="-1.14876453">
<ele>865</ele>
<time>2013-09-20T19:17:25Z</time>
</trkpt>
<trkpt lat="38.23094932" lon="-1.14874312">
<ele>865</ele>
<time>2013-09-20T19:17:27Z</time>
</trkpt>
<trkpt lat="38.23095629" lon="-1.14864678">
<ele>866</ele>
<time>2013-09-20T19:17:29Z</time>
</trkpt>
<trkpt lat="38.23097731" lon="-1.14861931">
<ele>867</ele>
<time>2013-09-20T19:17:31Z</time>
</trkpt>
<trkpt lat="38.23104195" lon="-1.14860715">
<ele>866</ele>
<time>2013-09-20T19:17:33Z</time>
</trkpt>
<trkpt lat="38.23113933" lon="-1.14856944">
<ele>868</ele>
<time>2013-09-20T19:17:35Z</time>
</trkpt>
<trkpt lat="38.2312296" lon="-1.14854297">
<ele>868</ele>
<time>2013-09-20T19:17:37Z</time>
</trkpt>
<trkpt lat="38.23131639" lon="-1.14850552">
<ele>868</ele>
<time>2013-09-20T19:17:39Z</time>
</trkpt>
<trkpt lat="38.23139742" lon="-1.1484323">
<ele>870</ele>
<time>2013-09-20T19:17:41Z</time>
</trkpt>
<trkpt lat="38.23148498" lon="-1.14838641">
<ele>871</ele>
<time>2013-09-20T19:17:43Z</time>
</trkpt>
<trkpt lat="38.23158577" lon="-1.14833295">
<ele>873</ele>
<time>2013-09-20T19:17:45Z</time>
</trkpt>
<trkpt lat="38.23166209" lon="-1.14826981">
<ele>874</ele>
<time>2013-09-20T19:17:47Z</time>
</trkpt>
<trkpt lat="38.23173412" lon="-1.14821451">
<ele>875</ele>
<time>2013-09-20T19:17:49Z</time>
</trkpt>
<trkpt lat="38.23179527" lon="-1.14816856">
<ele>879</ele>
<time>2013-09-20T19:17:51Z</time>
</trkpt>
<trkpt lat="38.23187179" lon="-1.14810702">
<ele>881</ele>
<time>2013-09-20T19:17:53Z</time>
</trkpt>
<trkpt lat="38.23195822" lon="-1.14803426">
<ele>884</ele>
<time>2013-09-20T19:17:55Z</time>
</trkpt>
<trkpt lat="38.23203192" lon="-1.14795976">
<ele>885</ele>
<time>2013-09-20T19:17:57Z</time>
</trkpt>
<trkpt lat="38.23207527" lon="-1.14787894">
<ele>886</ele>
<time>2013-09-20T19:17:59Z</time>
</trkpt>
<trkpt lat="38.2321258" lon="-1.14779259">
<ele>888</ele>
<time>2013-09-20T19:18:01Z</time>
</trkpt>
<trkpt lat="38.23218397" lon="-1.14771186">
<ele>891</ele>
<time>2013-09-20T19:18:03Z</time>
</trkpt>
<trkpt lat="38.23225383" lon="-1.14765892">
<ele>896</ele>
<time>2013-09-20T19:18:05Z</time>
</trkpt>
<trkpt lat="38.23235009" lon="-1.14760559">
<ele>896</ele>
<time>2013-09-20T19:18:07Z</time>
</trkpt>
<trkpt lat="38.2324121" lon="-1.14756591">
<ele>895</ele>
<time>2013-09-20T19:18:09Z</time>
</trkpt>
<trkpt lat="38.23248798" lon="-1.14748388">
<ele>897</ele>
<time>2013-09-20T19:18:11Z</time>
</trkpt>
<trkpt lat="38.23255064" lon="-1.14739301">
<ele>897</ele>
<time>2013-09-20T19:18:13Z</time>
</trkpt>
<trkpt lat="38.23260129" lon="-1.1472808">
<ele>897</ele>
<time>2013-09-20T19:18:15Z</time>
</trkpt>
<trkpt lat="38.23265886" lon="-1.14721098">
<ele>898</ele>
<time>2013-09-20T19:18:17Z</time>
</trkpt>
<trkpt lat="38.23272622" lon="-1.14714872">
<ele>902</ele>
<time>2013-09-20T19:18:19Z</time>
</trkpt>
<trkpt lat="38.23279316" lon="-1.1470699">
<ele>901</ele>
<time>2013-09-20T19:18:21Z</time>
</trkpt>
<trkpt lat="38.23285856" lon="-1.14700485">
<ele>901</ele>
<time>2013-09-20T19:18:23Z</time>
</trkpt>
<trkpt lat="38.23289454" lon="-1.14691002">
<ele>905</ele>
<time>2013-09-20T19:18:25Z</time>
</trkpt>
<trkpt lat="38.23296258" lon="-1.14684018">
<ele>906</ele>
<time>2013-09-20T19:18:27Z</time>
</trkpt>
<trkpt lat="38.23302231" lon="-1.14682323">
<ele>908</ele>
<time>2013-09-20T19:18:29Z</time>
</trkpt>
<trkpt lat="38.23309543" lon="-1.14671753">
<ele>910</ele>
<time>2013-09-20T19:18:31Z</time>
</trkpt>
<trkpt lat="38.23314331" lon="-1.14665284">
<ele>913</ele>
<time>2013-09-20T19:18:33Z</time>
</trkpt>
<trkpt lat="38.2332111" lon="-1.1466087">
<ele>916</ele>
<time>2013-09-20T19:18:35Z</time>
</trkpt>
<trkpt lat="38.23329997" lon="-1.14655517">
<ele>918</ele>
<time>2013-09-20T19:18:37Z</time>
</trkpt>
<trkpt lat="38.23337388" lon="-1.14647113">
<ele>918</ele>
<time>2013-09-20T19:18:39Z</time>
</trkpt>
<trkpt lat="38.23347406" lon="-1.14639523">
<ele>920</ele>
<time>2013-09-20T19:18:41Z</time>
</trkpt>
<trkpt lat="38.23356753" lon="-1.14636785">
<ele>920</ele>
<time>2013-09-20T19:18:43Z</time>
</trkpt>
<trkpt lat="38.23365205" lon="-1.14632158">
<ele>920</ele>
<time>2013-09-20T19:18:45Z</time>
</trkpt>
<trkpt lat="38.2337462" lon="-1.14625548">
<ele>920</ele>
<time>2013-09-20T19:18:47Z</time>
</trkpt>
<trkpt lat="38.23381626" lon="-1.14622474">
<ele>922</ele>
<time>2013-09-20T19:18:49Z</time>
</trkpt>
<trkpt lat="38.23391026" lon="-1.14616173">
<ele>925</ele>
<time>2013-09-20T19:18:51Z</time>
</trkpt>
<trkpt lat="38.2339846" lon="-1.14609802">
<ele>927</ele>
<time>2013-09-20T19:18:53Z</time>
</trkpt>
<trkpt lat="38.23408064" lon="-1.14601822">
<ele>929</ele>
<time>2013-09-20T19:18:55Z</time>
</trkpt>
<trkpt lat="38.23417101" lon="-1.14598535">
<ele>928</ele>
<time>2013-09-20T19:18:57Z</time>
</trkpt>
<trkpt lat="38.23427467" lon="-1.1459329">
<ele>929</ele>
<time>2013-09-20T19:18:59Z</time>
</trkpt>
<trkpt lat="38.2343824" lon="-1.14589064">
<ele>930</ele>
<time>2013-09-20T19:19:01Z</time>
</trkpt>
<trkpt lat="38.234491" lon="-1.14585362">
<ele>933</ele>
<time>2013-09-20T19:19:03Z</time>
</trkpt>
<trkpt lat="38.23459173" lon="-1.14581165">
<ele>934</ele>
<time>2013-09-20T19:19:05Z</time>
</trkpt>
<trkpt lat="38.23469454" lon="-1.14576979">
<ele>934</ele>
<time>2013-09-20T19:19:07Z</time>
</trkpt>
<trkpt lat="38.23479929" lon="-1.14572214">
<ele>935</ele>
<time>2013-09-20T19:19:09Z</time>
</trkpt>
<trkpt lat="38.2349052" lon="-1.14566446">
<ele>935</ele>
<time>2013-09-20T19:19:11Z</time>
</trkpt>
<trkpt lat="38.2350176" lon="-1.14561156">
<ele>936</ele>
<time>2013-09-20T19:19:13Z</time>
</trkpt>
<trkpt lat="38.23511977" lon="-1.14559478">
<ele>937</ele>
<time>2013-09-20T19:19:15Z</time>
</trkpt>
<trkpt lat="38.23522022" lon="-1.14554831">
<ele>938</ele>
<time>2013-09-20T19:19:17Z</time>
</trkpt>
<trkpt lat="38.23531116" lon="-1.14550001">
<ele>938</ele>
<time>2013-09-20T19:19:19Z</time>
</trkpt>
<trkpt lat="38.23540233" lon="-1.14546337">
<ele>939</ele>
<time>2013-09-20T19:19:21Z</time>
</trkpt>
<trkpt lat="38.23551106" lon="-1.14540518">
<ele>940</ele>
<time>2013-09-20T19:19:23Z</time>
</trkpt>
<trkpt lat="38.23555244" lon="-1.1453564">
<ele>940</ele>
<time>2013-09-20T19:19:25Z</time>
</trkpt>
<trkpt lat="38.23564667" lon="-1.14521378">
<ele>942</ele>
<time>2013-09-20T19:19:27Z</time>
</trkpt>
<trkpt lat="38.23574626" lon="-1.14516359">
<ele>950</ele>
<time>2013-09-20T19:19:29Z</time>
</trkpt>
<trkpt lat="38.23584983" lon="-1.14514998">
<ele>951</ele>
<time>2013-09-20T19:19:31Z</time>
</trkpt>
<trkpt lat="38.23590638" lon="-1.14508142">
<ele>951</ele>
<time>2013-09-20T19:19:33Z</time>
</trkpt>
<trkpt lat="38.2359048" lon="-1.14500003">
<ele>952</ele>
<time>2013-09-20T19:19:35Z</time>
</trkpt>
<trkpt lat="38.23586128" lon="-1.14494314">
<ele>953</ele>
<time>2013-09-20T19:19:37Z</time>
</trkpt>
<trkpt lat="38.23568775" lon="-1.14490183">
<ele>952</ele>
<time>2013-09-20T19:19:39Z</time>
</trkpt>
<trkpt lat="38.23559098" lon="-1.14496542">
<ele>951</ele>
<time>2013-09-20T19:19:41Z</time>
</trkpt>
<trkpt lat="38.2354934" lon="-1.14497562">
<ele>950</ele>
<time>2013-09-20T19:19:43Z</time>
</trkpt>
<trkpt lat="38.23533524" lon="-1.14506">
<ele>955</ele>
<time>2013-09-20T19:19:45Z</time>
</trkpt>
<trkpt lat="38.23520241" lon="-1.14519252">
<ele>959</ele>
<time>2013-09-20T19:19:47Z</time>
</trkpt>
<trkpt lat="38.23506229" lon="-1.14534627">
<ele>959</ele>
<time>2013-09-20T19:19:49Z</time>
</trkpt>
<trkpt lat="38.23491256" lon="-1.14548977">
<ele>962</ele>
<time>2013-09-20T19:19:51Z</time>
</trkpt>
<trkpt lat="38.23481193" lon="-1.14562834">
<ele>963</ele>
<time>2013-09-20T19:19:53Z</time>
</trkpt>
<trkpt lat="38.23467043" lon="-1.14576095">
<ele>963</ele>
<time>2013-09-20T19:19:55Z</time>
</trkpt>
<trkpt lat="38.23454103" lon="-1.14585439">
<ele>965</ele>
<time>2013-09-20T19:19:57Z</time>
</trkpt>
<trkpt lat="38.23440296" lon="-1.14592439">
<ele>968</ele>
<time>2013-09-20T19:19:59Z</time>
</trkpt>
<trkpt lat="38.23426491" lon="-1.14598321">
<ele>970</ele>
<time>2013-09-20T19:20:01Z</time>
</trkpt>
<trkpt lat="38.23411733" lon="-1.14603872">
<ele>973</ele>
<time>2013-09-20T19:20:03Z</time>
</trkpt>
<trkpt lat="38.23398073" lon="-1.14610264">
<ele>973</ele>
<time>2013-09-20T19:20:05Z</time>
</trkpt>
<trkpt lat="38.23383955" lon="-1.14616039">
<ele>974</ele>
<time>2013-09-20T19:20:07Z</time>
</trkpt>
<trkpt lat="38.23369893" lon="-1.14620802">
<ele>974</ele>
<time>2013-09-20T19:20:09Z</time>
</trkpt>
<trkpt lat="38.23355277" lon="-1.14628203">
<ele>976</ele>
<time>2013-09-20T19:20:11Z</time>
</trkpt>
<trkpt lat="38.23341861" lon="-1.14630997">
<ele>977</ele>
<time>2013-09-20T19:20:13Z</time>
</trkpt>
<trkpt lat="38.23328152" lon="-1.14634303">
<ele>978</ele>
<time>2013-09-20T19:20:15Z</time>
</trkpt>
<trkpt lat="38.23314571" lon="-1.14639327">
<ele>978</ele>
<time>2013-09-20T19:20:17Z</time>
</trkpt>
<trkpt lat="38.23297801" lon="-1.1464424">
<ele>978</ele>
<time>2013-09-20T19:20:19Z</time>
</trkpt>
<trkpt lat="38.23284858" lon="-1.14648633">
<ele>979</ele>
<time>2013-09-20T19:20:21Z</time>
</trkpt>
<trkpt lat="38.23270994" lon="-1.14650278">
<ele>980</ele>
<time>2013-09-20T19:20:23Z</time>
</trkpt>
<trkpt lat="38.23258593" lon="-1.14653514">
<ele>981</ele>
<time>2013-09-20T19:20:25Z</time>
</trkpt>
<trkpt lat="38.23246329" lon="-1.14653624">
<ele>981</ele>
<time>2013-09-20T19:20:27Z</time>
</trkpt>
<trkpt lat="38.23234691" lon="-1.14657537">
<ele>979</ele>
<time>2013-09-20T19:20:29Z</time>
</trkpt>
<trkpt lat="38.23221918" lon="-1.14661059">
<ele>978</ele>
<time>2013-09-20T19:20:31Z</time>
</trkpt>
<trkpt lat="38.23209348" lon="-1.14662387">
<ele>979</ele>
<time>2013-09-20T19:20:33Z</time>
</trkpt>
<trkpt lat="38.23203191" lon="-1.1466005">
<ele>980</ele>
<time>2013-09-20T19:20:35Z</time>
</trkpt>
<trkpt lat="38.23197952" lon="-1.14654906">
<ele>981</ele>
<time>2013-09-20T19:20:37Z</time>
</trkpt>
<trkpt lat="38.23200668" lon="-1.14646378">
<ele>981</ele>
<time>2013-09-20T19:20:39Z</time>
</trkpt>
<trkpt lat="38.23207496" lon="-1.14641601">
<ele>980</ele>
<time>2013-09-20T19:20:41Z</time>
</trkpt>
<trkpt lat="38.23220286" lon="-1.14636491">
<ele>982</ele>
<time>2013-09-20T19:20:43Z</time>
</trkpt>
<trkpt lat="38.23232728" lon="-1.14636175">
<ele>985</ele>
<time>2013-09-20T19:20:45Z</time>
</trkpt>
<trkpt lat="38.23244388" lon="-1.14637079">
<ele>985</ele>
<time>2013-09-20T19:20:47Z</time>
</trkpt>
<trkpt lat="38.23257266" lon="-1.14636426">
<ele>986</ele>
<time>2013-09-20T19:20:49Z</time>
</trkpt>
<trkpt lat="38.23270193" lon="-1.14634519">
<ele>985</ele>
<time>2013-09-20T19:20:51Z</time>
</trkpt>
<trkpt lat="38.23280854" lon="-1.14628583">
<ele>985</ele>
<time>2013-09-20T19:20:53Z</time>
</trkpt>
<trkpt lat="38.23294693" lon="-1.14623462">
<ele>984</ele>
<time>2013-09-20T19:20:55Z</time>
</trkpt>
<trkpt lat="38.23305497" lon="-1.14620148">
<ele>985</ele>
<time>2013-09-20T19:20:57Z</time>
</trkpt>
<trkpt lat="38.23315571" lon="-1.14613725">
<ele>984</ele>
<time>2013-09-20T19:20:59Z</time>
</trkpt>
<trkpt lat="38.23326182" lon="-1.1460828">
<ele>981</ele>
<time>2013-09-20T19:21:01Z</time>
</trkpt>
<trkpt lat="38.23337848" lon="-1.14602701">
<ele>981</ele>
<time>2013-09-20T19:21:03Z</time>
</trkpt>
<trkpt lat="38.23350569" lon="-1.14598512">
<ele>981</ele>
<time>2013-09-20T19:21:05Z</time>
</trkpt>
<trkpt lat="38.23360651" lon="-1.145919">
<ele>983</ele>
<time>2013-09-20T19:21:07Z</time>
</trkpt>
<trkpt lat="38.23370738" lon="-1.14586691">
<ele>984</ele>
<time>2013-09-20T19:21:09Z</time>
</trkpt>
<trkpt lat="38.23380783" lon="-1.14581742">
<ele>987</ele>
<time>2013-09-20T19:21:11Z</time>
</trkpt>
<trkpt lat="38.23392395" lon="-1.1457594">
<ele>988</ele>
<time>2013-09-20T19:21:13Z</time>
</trkpt>
<trkpt lat="38.23408446" lon="-1.14574987">
<ele>989</ele>
<time>2013-09-20T19:21:15Z</time>
</trkpt>
<trkpt lat="38.2342174" lon="-1.1456898">
<ele>989</ele>
<time>2013-09-20T19:21:17Z</time>
</trkpt>
<trkpt lat="38.23431697" lon="-1.14563716">
<ele>989</ele>
<time>2013-09-20T19:21:19Z</time>
</trkpt>
<trkpt lat="38.23442421" lon="-1.14559274">
<ele>988</ele>
<time>2013-09-20T19:21:21Z</time>
</trkpt>
<trkpt lat="38.23450987" lon="-1.14550695">
<ele>989</ele>
<time>2013-09-20T19:21:23Z</time>
</trkpt>
<trkpt lat="38.2345512" lon="-1.14544461">
<ele>990</ele>
<time>2013-09-20T19:21:25Z</time>
</trkpt>
<trkpt lat="38.23461113" lon="-1.1453447">
<ele>992</ele>
<time>2013-09-20T19:21:27Z</time>
</trkpt>
<trkpt lat="38.2346036" lon="-1.14523392">
<ele>994</ele>
<time>2013-09-20T19:21:29Z</time>
</trkpt>
<trkpt lat="38.23457429" lon="-1.1451051">
<ele>995</ele>
<time>2013-09-20T19:21:31Z</time>
</trkpt>
<trkpt lat="38.23453712" lon="-1.14498334">
<ele>997</ele>
<time>2013-09-20T19:21:33Z</time>
</trkpt>
<trkpt lat="38.23451901" lon="-1.14489744">
<ele>999</ele>
<time>2013-09-20T19:21:35Z</time>
</trkpt>
<trkpt lat="38.23443546" lon="-1.14485252">
<ele>1000</ele>
<time>2013-09-20T19:21:37Z</time>
</trkpt>
<trkpt lat="38.23432471" lon="-1.14483274">
<ele>1003</ele>
<time>2013-09-20T19:21:39Z</time>
</trkpt>
<trkpt lat="38.23424224" lon="-1.14480262">
<ele>1003</ele>
<time>2013-09-20T19:21:41Z</time>
</trkpt>
<trkpt lat="38.23413699" lon="-1.14482554">
<ele>1001</ele>
<time>2013-09-20T19:21:43Z</time>
</trkpt>
<trkpt lat="38.23399789" lon="-1.14487532">
<ele>1002</ele>
<time>2013-09-20T19:21:45Z</time>
</trkpt>
<trkpt lat="38.23386065" lon="-1.14490487">
<ele>1002</ele>
<time>2013-09-20T19:21:47Z</time>
</trkpt>
<trkpt lat="38.23372499" lon="-1.14504009">
<ele>1003</ele>
<time>2013-09-20T19:21:49Z</time>
</trkpt>
<trkpt lat="38.23357744" lon="-1.14519219">
<ele>1003</ele>
<time>2013-09-20T19:21:51Z</time>
</trkpt>
<trkpt lat="38.23347852" lon="-1.1453818">
<ele>1004</ele>
<time>2013-09-20T19:21:53Z</time>
</trkpt>
<trkpt lat="38.23342711" lon="-1.14564034">
<ele>1007</ele>
<time>2013-09-20T19:21:55Z</time>
</trkpt>
<trkpt lat="38.23343099" lon="-1.14589253">
<ele>1012</ele>
<time>2013-09-20T19:21:57Z</time>
</trkpt>
<trkpt lat="38.23348556" lon="-1.1461658">
<ele>1008</ele>
<time>2013-09-20T19:21:59Z</time>
</trkpt>
<trkpt lat="38.23360753" lon="-1.14641769">
<ele>1007</ele>
<time>2013-09-20T19:22:01Z</time>
</trkpt>
<trkpt lat="38.23374742" lon="-1.14662884">
<ele>1007</ele>
<time>2013-09-20T19:22:03Z</time>
</trkpt>
<trkpt lat="38.23392172" lon="-1.14673647">
<ele>1006</ele>
<time>2013-09-20T19:22:05Z</time>
</trkpt>
<trkpt lat="38.23408106" lon="-1.14677201">
<ele>1004</ele>
<time>2013-09-20T19:22:07Z</time>
</trkpt>
<trkpt lat="38.23421463" lon="-1.14676479">
<ele>1005</ele>
<time>2013-09-20T19:22:09Z</time>
</trkpt>
<trkpt lat="38.23429082" lon="-1.14665545">
<ele>1005</ele>
<time>2013-09-20T19:22:11Z</time>
</trkpt>
<trkpt lat="38.23436727" lon="-1.1465737">
<ele>1005</ele>
<time>2013-09-20T19:22:13Z</time>
</trkpt>
<trkpt lat="38.2343883" lon="-1.14650132">
<ele>1007</ele>
<time>2013-09-20T19:22:15Z</time>
</trkpt>
<trkpt lat="38.23434625" lon="-1.14644331">
<ele>1007</ele>
<time>2013-09-20T19:22:17Z</time>
</trkpt>
<trkpt lat="38.23425028" lon="-1.14641288">
<ele>1009</ele>
<time>2013-09-20T19:22:19Z</time>
</trkpt>
<trkpt lat="38.23413395" lon="-1.14634243">
<ele>1010</ele>
<time>2013-09-20T19:22:21Z</time>
</trkpt>
<trkpt lat="38.23402865" lon="-1.14633373">
<ele>1012</ele>
<time>2013-09-20T19:22:23Z</time>
</trkpt>
<trkpt lat="38.23392371" lon="-1.14632013">
<ele>1014</ele>
<time>2013-09-20T19:22:25Z</time>
</trkpt>
<trkpt lat="38.23381132" lon="-1.14631544">
<ele>1015</ele>
<time>2013-09-20T19:22:27Z</time>
</trkpt>
<trkpt lat="38.23369973" lon="-1.14634863">
<ele>1018</ele>
<time>2013-09-20T19:22:29Z</time>
</trkpt>
<trkpt lat="38.23357299" lon="-1.14641401">
<ele>1019</ele>
<time>2013-09-20T19:22:31Z</time>
</trkpt>
<trkpt lat="38.23342507" lon="-1.14645563">
<ele>1020</ele>
<time>2013-09-20T19:22:33Z</time>
</trkpt>
<trkpt lat="38.23328073" lon="-1.14651753">
<ele>1021</ele>
<time>2013-09-20T19:22:35Z</time>
</trkpt>
<trkpt lat="38.23314551" lon="-1.14655567">
<ele>1023</ele>
<time>2013-09-20T19:22:37Z</time>
</trkpt>
<trkpt lat="38.23299103" lon="-1.14660915">
<ele>1022</ele>
<time>2013-09-20T19:22:39Z</time>
</trkpt>
<trkpt lat="38.23285985" lon="-1.14661664">
<ele>1023</ele>
<time>2013-09-20T19:22:41Z</time>
</trkpt>
<trkpt lat="38.23273902" lon="-1.14659984">
<ele>1024</ele>
<time>2013-09-20T19:22:43Z</time>
</trkpt>
<trkpt lat="38.23262643" lon="-1.14654929">
<ele>1024</ele>
<time>2013-09-20T19:22:45Z</time>
</trkpt>
<trkpt lat="38.23253825" lon="-1.14652209">
<ele>1023</ele>
<time>2013-09-20T19:22:47Z</time>
</trkpt>
<trkpt lat="38.23245939" lon="-1.14645026">
<ele>1021</ele>
<time>2013-09-20T19:22:49Z</time>
</trkpt>
<trkpt lat="38.23240395" lon="-1.14635068">
<ele>1022</ele>
<time>2013-09-20T19:22:51Z</time>
</trkpt>
<trkpt lat="38.23236995" lon="-1.14624453">
<ele>1023</ele>
<time>2013-09-20T19:22:53Z</time>
</trkpt>
<trkpt lat="38.23234931" lon="-1.14612085">
<ele>1022</ele>
<time>2013-09-20T19:22:55Z</time>
</trkpt>
<trkpt lat="38.2323829" lon="-1.14602368">
<ele>1020</ele>
<time>2013-09-20T19:22:57Z</time>
</trkpt>
<trkpt lat="38.23240494" lon="-1.1459298">
<ele>1017</ele>
<time>2013-09-20T19:22:59Z</time>
</trkpt>
<trkpt lat="38.23244609" lon="-1.14583199">
<ele>1016</ele>
<time>2013-09-20T19:23:01Z</time>
</trkpt>
<trkpt lat="38.23252341" lon="-1.14576666">
<ele>1016</ele>
<time>2013-09-20T19:23:03Z</time>
</trkpt>
<trkpt lat="38.23261714" lon="-1.14572044">
<ele>1016</ele>
<time>2013-09-20T19:23:05Z</time>
</trkpt>
<trkpt lat="38.23272111" lon="-1.14568255">
<ele>1015</ele>
<time>2013-09-20T19:23:07Z</time>
</trkpt>
<trkpt lat="38.23285007" lon="-1.14567775">
<ele>1013</ele>
<time>2013-09-20T19:23:09Z</time>
</trkpt>
<trkpt lat="38.2329982" lon="-1.14572133">
<ele>1012</ele>
<time>2013-09-20T19:23:11Z</time>
</trkpt>
<trkpt lat="38.23314126" lon="-1.14581638">
<ele>1011</ele>
<time>2013-09-20T19:23:13Z</time>
</trkpt>
<trkpt lat="38.23329693" lon="-1.14598484">
<ele>1010</ele>
<time>2013-09-20T19:23:15Z</time>
</trkpt>
<trkpt lat="38.23344021" lon="-1.1462612">
<ele>1014</ele>
<time>2013-09-20T19:23:17Z</time>
</trkpt>
<trkpt lat="38.2334829" lon="-1.14652976">
<ele>1015</ele>
<time>2013-09-20T19:23:19Z</time>
</trkpt>
<trkpt lat="38.23344298" lon="-1.14680595">
<ele>1013</ele>
<time>2013-09-20T19:23:21Z</time>
</trkpt>
<trkpt lat="38.23333826" lon="-1.14706194">
<ele>1010</ele>
<time>2013-09-20T19:23:23Z</time>
</trkpt>
<trkpt lat="38.23318398" lon="-1.14720258">
<ele>1010</ele>
<time>2013-09-20T19:23:25Z</time>
</trkpt>
<trkpt lat="38.23304215" lon="-1.14728805">
<ele>1011</ele>
<time>2013-09-20T19:23:27Z</time>
</trkpt>
<trkpt lat="38.23291442" lon="-1.1473217">
<ele>1011</ele>
<time>2013-09-20T19:23:29Z</time>
</trkpt>
<trkpt lat="38.23280162" lon="-1.14730477">
<ele>1011</ele>
<time>2013-09-20T19:23:31Z</time>
</trkpt>
<trkpt lat="38.23271465" lon="-1.14728095">
<ele>1011</ele>
<time>2013-09-20T19:23:33Z</time>
</trkpt>
<trkpt lat="38.23260681" lon="-1.14723772">
<ele>1011</ele>
<time>2013-09-20T19:23:35Z</time>
</trkpt>
<trkpt lat="38.23251674" lon="-1.1472031">
<ele>1011</ele>
<time>2013-09-20T19:23:37Z</time>
</trkpt>
<trkpt lat="38.23244428" lon="-1.14712441">
<ele>1010</ele>
<time>2013-09-20T19:23:39Z</time>
</trkpt>
<trkpt lat="38.23237623" lon="-1.14702943">
<ele>1009</ele>
<time>2013-09-20T19:23:41Z</time>
</trkpt>
<trkpt lat="38.23240204" lon="-1.14696981">
<ele>1010</ele>
<time>2013-09-20T19:23:43Z</time>
</trkpt>
<trkpt lat="38.23241661" lon="-1.14689089">
<ele>1007</ele>
<time>2013-09-20T19:23:45Z</time>
</trkpt>
<trkpt lat="38.23241853" lon="-1.14678363">
<ele>1005</ele>
<time>2013-09-20T19:23:47Z</time>
</trkpt>
<trkpt lat="38.23241915" lon="-1.14669896">
<ele>1004</ele>
<time>2013-09-20T19:23:49Z</time>
</trkpt>
<trkpt lat="38.23240754" lon="-1.14659523">
<ele>1005</ele>
<time>2013-09-20T19:23:51Z</time>
</trkpt>
<trkpt lat="38.23238185" lon="-1.14653793">
<ele>1007</ele>
<time>2013-09-20T19:23:53Z</time>
</trkpt>
<trkpt lat="38.2323717" lon="-1.14647405">
<ele>1005</ele>
<time>2013-09-20T19:23:55Z</time>
</trkpt>
<trkpt lat="38.23234106" lon="-1.14637829">
<ele>1004</ele>
<time>2013-09-20T19:23:57Z</time>
</trkpt>
<trkpt lat="38.2323321" lon="-1.14626673">
<ele>1007</ele>
<time>2013-09-20T19:23:59Z</time>
</trkpt>
<trkpt lat="38.23237796" lon="-1.14620812">
<ele>1006</ele>
<time>2013-09-20T19:24:01Z</time>
</trkpt>
<trkpt lat="38.23245857" lon="-1.14617858">
<ele>1005</ele>
<time>2013-09-20T19:24:03Z</time>
</trkpt>
<trkpt lat="38.23255338" lon="-1.14615244">
<ele>1005</ele>
<time>2013-09-20T19:24:05Z</time>
</trkpt>
<trkpt lat="38.23270476" lon="-1.1462108">
<ele>1005</ele>
<time>2013-09-20T19:24:07Z</time>
</trkpt>
<trkpt lat="38.23287112" lon="-1.14633382">
<ele>1003</ele>
<time>2013-09-20T19:24:09Z</time>
</trkpt>
<trkpt lat="38.23302989" lon="-1.14647732">
<ele>1005</ele>
<time>2013-09-20T19:24:11Z</time>
</trkpt>
<trkpt lat="38.23318188" lon="-1.14666426">
<ele>1004</ele>
<time>2013-09-20T19:24:13Z</time>
</trkpt>
<trkpt lat="38.23332099" lon="-1.14700264">
<ele>1006</ele>
<time>2013-09-20T19:24:15Z</time>
</trkpt>
<trkpt lat="38.23332041" lon="-1.147292">
<ele>1006</ele>
<time>2013-09-20T19:24:17Z</time>
</trkpt>
<trkpt lat="38.23325851" lon="-1.1475796">
<ele>1006</ele>
<time>2013-09-20T19:24:19Z</time>
</trkpt>
<trkpt lat="38.2331567" lon="-1.1478409">
<ele>1007</ele>
<time>2013-09-20T19:24:21Z</time>
</trkpt>
<trkpt lat="38.23301861" lon="-1.14799508">
<ele>1007</ele>
<time>2013-09-20T19:24:23Z</time>
</trkpt>
<trkpt lat="38.23290248" lon="-1.1480754">
<ele>1005</ele>
<time>2013-09-20T19:24:25Z</time>
</trkpt>
<trkpt lat="38.23275906" lon="-1.14808586">
<ele>1005</ele>
<time>2013-09-20T19:24:27Z</time>
</trkpt>
<trkpt lat="38.23261924" lon="-1.148076">
<ele>1006</ele>
<time>2013-09-20T19:24:29Z</time>
</trkpt>
<trkpt lat="38.2325267" lon="-1.14803632">
<ele>1006</ele>
<time>2013-09-20T19:24:31Z</time>
</trkpt>
<trkpt lat="38.23245042" lon="-1.14798629">
<ele>1007</ele>
<time>2013-09-20T19:24:33Z</time>
</trkpt>
<trkpt lat="38.23238786" lon="-1.1479383">
<ele>1007</ele>
<time>2013-09-20T19:24:35Z</time>
</trkpt>
<trkpt lat="38.2323563" lon="-1.14784417">
<ele>1008</ele>
<time>2013-09-20T19:24:37Z</time>
</trkpt>
<trkpt lat="38.23233985" lon="-1.14774876">
<ele>1008</ele>
<time>2013-09-20T19:24:39Z</time>
</trkpt>
<trkpt lat="38.23229957" lon="-1.14761119">
<ele>1005</ele>
<time>2013-09-20T19:24:41Z</time>
</trkpt>
<trkpt lat="38.23234817" lon="-1.14750215">
<ele>1008</ele>
<time>2013-09-20T19:24:43Z</time>
</trkpt>
<trkpt lat="38.23244698" lon="-1.1474325">
<ele>1008</ele>
<time>2013-09-20T19:24:45Z</time>
</trkpt>
<trkpt lat="38.23256254" lon="-1.14739469">
<ele>1007</ele>
<time>2013-09-20T19:24:47Z</time>
</trkpt>
<trkpt lat="38.23267856" lon="-1.14735511">
<ele>1008</ele>
<time>2013-09-20T19:24:49Z</time>
</trkpt>
<trkpt lat="38.23279716" lon="-1.14729591">
<ele>1010</ele>
<time>2013-09-20T19:24:51Z</time>
</trkpt>
<trkpt lat="38.23294191" lon="-1.14729187">
<ele>1009</ele>
<time>2013-09-20T19:24:53Z</time>
</trkpt>
<trkpt lat="38.23306686" lon="-1.1472213">
<ele>1009</ele>
<time>2013-09-20T19:24:55Z</time>
</trkpt>
<trkpt lat="38.23318067" lon="-1.14715857">
<ele>1010</ele>
<time>2013-09-20T19:24:57Z</time>
</trkpt>
<trkpt lat="38.23328567" lon="-1.14710932">
<ele>1012</ele>
<time>2013-09-20T19:24:59Z</time>
</trkpt>
<trkpt lat="38.23337392" lon="-1.14702436">
<ele>1012</ele>
<time>2013-09-20T19:25:01Z</time>
</trkpt>
<trkpt lat="38.23346673" lon="-1.14695386">
<ele>1014</ele>
<time>2013-09-20T19:25:03Z</time>
</trkpt>
<trkpt lat="38.23353269" lon="-1.14685714">
<ele>1016</ele>
<time>2013-09-20T19:25:05Z</time>
</trkpt>
<trkpt lat="38.23360656" lon="-1.14678821">
<ele>1016</ele>
<time>2013-09-20T19:25:07Z</time>
</trkpt>
<trkpt lat="38.23367432" lon="-1.14668925">
<ele>1019</ele>
<time>2013-09-20T19:25:09Z</time>
</trkpt>
<trkpt lat="38.23373573" lon="-1.14660602">
<ele>1020</ele>
<time>2013-09-20T19:25:11Z</time>
</trkpt>
<trkpt lat="38.2337694" lon="-1.14650956">
<ele>1021</ele>
<time>2013-09-20T19:25:13Z</time>
</trkpt>
<trkpt lat="38.23382849" lon="-1.14643996">
<ele>1020</ele>
<time>2013-09-20T19:25:15Z</time>
</trkpt>
<trkpt lat="38.23388174" lon="-1.14635127">
<ele>1023</ele>
<time>2013-09-20T19:25:17Z</time>
</trkpt>
<trkpt lat="38.23396953" lon="-1.14630322">
<ele>1023</ele>
<time>2013-09-20T19:25:19Z</time>
</trkpt>
<trkpt lat="38.23405768" lon="-1.14622228">
<ele>1023</ele>
<time>2013-09-20T19:25:21Z</time>
</trkpt>
<trkpt lat="38.23414978" lon="-1.14610986">
<ele>1025</ele>
<time>2013-09-20T19:25:23Z</time>
</trkpt>
<trkpt lat="38.23422041" lon="-1.14600006">
<ele>1030</ele>
<time>2013-09-20T19:25:25Z</time>
</trkpt>
<trkpt lat="38.23431523" lon="-1.14593763">
<ele>1029</ele>
<time>2013-09-20T19:25:27Z</time>
</trkpt>
<trkpt lat="38.23440407" lon="-1.14584964">
<ele>1029</ele>
<time>2013-09-20T19:25:29Z</time>
</trkpt>
<trkpt lat="38.23447446" lon="-1.1457674">
<ele>1030</ele>
<time>2013-09-20T19:25:31Z</time>
</trkpt>
<trkpt lat="38.23448632" lon="-1.14568426">
<ele>1030</ele>
<time>2013-09-20T19:25:33Z</time>
</trkpt>
<trkpt lat="38.23447616" lon="-1.14557721">
<ele>1033</ele>
<time>2013-09-20T19:25:35Z</time>
</trkpt>
<trkpt lat="38.23443964" lon="-1.14549959">
<ele>1036</ele>
<time>2013-09-20T19:25:37Z</time>
</trkpt>
<trkpt lat="38.23436928" lon="-1.14546692">
<ele>1035</ele>
<time>2013-09-20T19:25:39Z</time>
</trkpt>
<trkpt lat="38.23426747" lon="-1.14541684">
<ele>1035</ele>
<time>2013-09-20T19:25:41Z</time>
</trkpt>
<trkpt lat="38.23415304" lon="-1.14540847">
<ele>1037</ele>
<time>2013-09-20T19:25:43Z</time>
</trkpt>
<trkpt lat="38.2340438" lon="-1.14542099">
<ele>1037</ele>
<time>2013-09-20T19:25:45Z</time>
</trkpt>
<trkpt lat="38.23390488" lon="-1.14548147">
<ele>1036</ele>
<time>2013-09-20T19:25:47Z</time>
</trkpt>
<trkpt lat="38.23375987" lon="-1.14556939">
<ele>1037</ele>
<time>2013-09-20T19:25:49Z</time>
</trkpt>
<trkpt lat="38.23361849" lon="-1.14570785">
<ele>1041</ele>
<time>2013-09-20T19:25:51Z</time>
</trkpt>
<trkpt lat="38.23348688" lon="-1.14583867">
<ele>1038</ele>
<time>2013-09-20T19:25:53Z</time>
</trkpt>
<trkpt lat="38.23335903" lon="-1.14596008">
<ele>1039</ele>
<time>2013-09-20T19:25:55Z</time>
</trkpt>
<trkpt lat="38.23320187" lon="-1.14608202">
<ele>1040</ele>
<time>2013-09-20T19:25:57Z</time>
</trkpt>
<trkpt lat="38.23305888" lon="-1.14618519">
<ele>1040</ele>
<time>2013-09-20T19:25:59Z</time>
</trkpt>
<trkpt lat="38.23293132" lon="-1.14624826">
<ele>1039</ele>
<time>2013-09-20T19:26:01Z</time>
</trkpt>
<trkpt lat="38.2327807" lon="-1.146291">
<ele>1038</ele>
<time>2013-09-20T19:26:03Z</time>
</trkpt>
<trkpt lat="38.23265227" lon="-1.14633441">
<ele>1040</ele>
<time>2013-09-20T19:26:05Z</time>
</trkpt>
<trkpt lat="38.23252431" lon="-1.1463931">
<ele>1039</ele>
<time>2013-09-20T19:26:07Z</time>
</trkpt>
<trkpt lat="38.23240031" lon="-1.14639731">
<ele>1039</ele>
<time>2013-09-20T19:26:09Z</time>
</trkpt>
<trkpt lat="38.2322707" lon="-1.14638683">
<ele>1041</ele>
<time>2013-09-20T19:26:11Z</time>
</trkpt>
<trkpt lat="38.2321933" lon="-1.1463559">
<ele>1040</ele>
<time>2013-09-20T19:26:13Z</time>
</trkpt>
<trkpt lat="38.2321006" lon="-1.14628266">
<ele>1038</ele>
<time>2013-09-20T19:26:15Z</time>
</trkpt>
<trkpt lat="38.2320313" lon="-1.14618726">
<ele>1034</ele>
<time>2013-09-20T19:26:17Z</time>
</trkpt>
<trkpt lat="38.23198517" lon="-1.14608376">
<ele>1034</ele>
<time>2013-09-20T19:26:19Z</time>
</trkpt>
<trkpt lat="38.23196789" lon="-1.14600272">
<ele>1034</ele>
<time>2013-09-20T19:26:21Z</time>
</trkpt>
<trkpt lat="38.23192262" lon="-1.14590698">
<ele>1035</ele>
<time>2013-09-20T19:26:23Z</time>
</trkpt>
<trkpt lat="38.23189446" lon="-1.14580995">
<ele>1035</ele>
<time>2013-09-20T19:26:25Z</time>
</trkpt>
<trkpt lat="38.23187926" lon="-1.14570918">
<ele>1034</ele>
<time>2013-09-20T19:26:27Z</time>
</trkpt>
<trkpt lat="38.23185099" lon="-1.1456203">
<ele>1034</ele>
<time>2013-09-20T19:26:29Z</time>
</trkpt>
<trkpt lat="38.2318162" lon="-1.14545411">
<ele>1033</ele>
<time>2013-09-20T19:26:31Z</time>
</trkpt>
<trkpt lat="38.23189236" lon="-1.14536021">
<ele>1031</ele>
<time>2013-09-20T19:26:33Z</time>
</trkpt>
<trkpt lat="38.23195705" lon="-1.14526608">
<ele>1031</ele>
<time>2013-09-20T19:26:35Z</time>
</trkpt>
<trkpt lat="38.23201561" lon="-1.14519095">
<ele>1035</ele>
<time>2013-09-20T19:26:37Z</time>
</trkpt>
<trkpt lat="38.23216223" lon="-1.14518766">
<ele>1032</ele>
<time>2013-09-20T19:26:39Z</time>
</trkpt>
<trkpt lat="38.23232695" lon="-1.14520471">
<ele>1031</ele>
<time>2013-09-20T19:26:41Z</time>
</trkpt>
<trkpt lat="38.23251157" lon="-1.14530059">
<ele>1033</ele>
<time>2013-09-20T19:26:43Z</time>
</trkpt>
<trkpt lat="38.23265607" lon="-1.14544104">
<ele>1031</ele>
<time>2013-09-20T19:26:45Z</time>
</trkpt>
<trkpt lat="38.23277555" lon="-1.14560766">
<ele>1030</ele>
<time>2013-09-20T19:26:47Z</time>
</trkpt>
<trkpt lat="38.23291787" lon="-1.14582664">
<ele>1029</ele>
<time>2013-09-20T19:26:49Z</time>
</trkpt>
<trkpt lat="38.23300021" lon="-1.14608816">
<ele>1029</ele>
<time>2013-09-20T19:26:51Z</time>
</trkpt>
<trkpt lat="38.23305947" lon="-1.14632962">
<ele>1027</ele>
<time>2013-09-20T19:26:53Z</time>
</trkpt>
<trkpt lat="38.23311946" lon="-1.14663223">
<ele>1029</ele>
<time>2013-09-20T19:26:55Z</time>
</trkpt>
<trkpt lat="38.23312339" lon="-1.14692225">
<ele>1029</ele>
<time>2013-09-20T19:26:57Z</time>
</trkpt>
<trkpt lat="38.2331259" lon="-1.14716795">
<ele>1029</ele>
<time>2013-09-20T19:26:59Z</time>
</trkpt>
<trkpt lat="38.23306471" lon="-1.14742296">
<ele>1027</ele>
<time>2013-09-20T19:27:01Z</time>
</trkpt>
<trkpt lat="38.23297203" lon="-1.14766338">
<ele>1027</ele>
<time>2013-09-20T19:27:03Z</time>
</trkpt>
<trkpt lat="38.23287074" lon="-1.14788828">
<ele>1029</ele>
<time>2013-09-20T19:27:05Z</time>
</trkpt>
<trkpt lat="38.23276248" lon="-1.14807775">
<ele>1030</ele>
<time>2013-09-20T19:27:07Z</time>
</trkpt>
<trkpt lat="38.23261513" lon="-1.14822611">
<ele>1030</ele>
<time>2013-09-20T19:27:09Z</time>
</trkpt>
<trkpt lat="38.23247364" lon="-1.14835204">
<ele>1030</ele>
<time>2013-09-20T19:27:11Z</time>
</trkpt>
<trkpt lat="38.23235043" lon="-1.14846169">
<ele>1031</ele>
<time>2013-09-20T19:27:13Z</time>
</trkpt>
<trkpt lat="38.23222203" lon="-1.14853774">
<ele>1029</ele>
<time>2013-09-20T19:27:15Z</time>
</trkpt>
<trkpt lat="38.23212053" lon="-1.1485819">
<ele>1028</ele>
<time>2013-09-20T19:27:17Z</time>
</trkpt>
<trkpt lat="38.23199582" lon="-1.14865776">
<ele>1030</ele>
<time>2013-09-20T19:27:19Z</time>
</trkpt>
<trkpt lat="38.23186005" lon="-1.14870531">
<ele>1029</ele>
<time>2013-09-20T19:27:21Z</time>
</trkpt>
<trkpt lat="38.23179908" lon="-1.14865688">
<ele>1031</ele>
<time>2013-09-20T19:27:23Z</time>
</trkpt>
<trkpt lat="38.23175507" lon="-1.14862252">
<ele>1029</ele>
<time>2013-09-20T19:27:25Z</time>
</trkpt>
<trkpt lat="38.23165984" lon="-1.14859409">
<ele>1030</ele>
<time>2013-09-20T19:27:27Z</time>
</trkpt>
<trkpt lat="38.23162481" lon="-1.14852116">
<ele>1030</ele>
<time>2013-09-20T19:27:29Z</time>
</trkpt>
<trkpt lat="38.23160768" lon="-1.1484705">
<ele>1029</ele>
<time>2013-09-20T19:27:31Z</time>
</trkpt>
<trkpt lat="38.23163073" lon="-1.14838215">
<ele>1028</ele>
<time>2013-09-20T19:27:33Z</time>
</trkpt>
<trkpt lat="38.23163793" lon="-1.14832214">
<ele>1029</ele>
<time>2013-09-20T19:27:35Z</time>
</trkpt>
<trkpt lat="38.23164407" lon="-1.14825741">
<ele>1025</ele>
<time>2013-09-20T19:27:37Z</time>
</trkpt>
<trkpt lat="38.23163782" lon="-1.14816715">
<ele>1026</ele>
<time>2013-09-20T19:27:39Z</time>
</trkpt>
<trkpt lat="38.23166025" lon="-1.14809098">
<ele>1023</ele>
<time>2013-09-20T19:27:41Z</time>
</trkpt>
<trkpt lat="38.23168048" lon="-1.14799522">
<ele>1023</ele>
<time>2013-09-20T19:27:43Z</time>
</trkpt>
<trkpt lat="38.23172636" lon="-1.1479083">
<ele>1022</ele>
<time>2013-09-20T19:27:45Z</time>
</trkpt>
<trkpt lat="38.23177194" lon="-1.14781033">
<ele>1021</ele>
<time>2013-09-20T19:27:47Z</time>
</trkpt>
<trkpt lat="38.23179918" lon="-1.14770869">
<ele>1022</ele>
<time>2013-09-20T19:27:49Z</time>
</trkpt>
<trkpt lat="38.23183854" lon="-1.14763287">
<ele>1023</ele>
<time>2013-09-20T19:27:51Z</time>
</trkpt>
<trkpt lat="38.23188315" lon="-1.14758254">
<ele>1022</ele>
<time>2013-09-20T19:27:53Z</time>
</trkpt>
<trkpt lat="38.2319478" lon="-1.14752731">
<ele>1022</ele>
<time>2013-09-20T19:27:55Z</time>
</trkpt>
<trkpt lat="38.23203456" lon="-1.14745844">
<ele>1022</ele>
<time>2013-09-20T19:27:57Z</time>
</trkpt>
<trkpt lat="38.23211201" lon="-1.14739547">
<ele>1023</ele>
<time>2013-09-20T19:27:59Z</time>
</trkpt>
<trkpt lat="38.23221185" lon="-1.14727008">
<ele>1023</ele>
<time>2013-09-20T19:28:01Z</time>
</trkpt>
<trkpt lat="38.23232383" lon="-1.14719443">
<ele>1023</ele>
<time>2013-09-20T19:28:03Z</time>
</trkpt>
<trkpt lat="38.23240686" lon="-1.14713692">
<ele>1021</ele>
<time>2013-09-20T19:28:05Z</time>
</trkpt>
<trkpt lat="38.2324973" lon="-1.14707581">
<ele>1020</ele>
<time>2013-09-20T19:28:07Z</time>
</trkpt>
<trkpt lat="38.23260171" lon="-1.14697031">
<ele>1022</ele>
<time>2013-09-20T19:28:09Z</time>
</trkpt>
<trkpt lat="38.2326762" lon="-1.14690386">
<ele>1022</ele>
<time>2013-09-20T19:28:11Z</time>
</trkpt>
<trkpt lat="38.23277319" lon="-1.14682865">
<ele>1022</ele>
<time>2013-09-20T19:28:13Z</time>
</trkpt>
<trkpt lat="38.23286499" lon="-1.14678381">
<ele>1023</ele>
<time>2013-09-20T19:28:15Z</time>
</trkpt>
<trkpt lat="38.23295083" lon="-1.14674526">
<ele>1023</ele>
<time>2013-09-20T19:28:17Z</time>
</trkpt>
<trkpt lat="38.23302213" lon="-1.14669337">
<ele>1022</ele>
<time>2013-09-20T19:28:19Z</time>
</trkpt>
<trkpt lat="38.23310898" lon="-1.14661265">
<ele>1021</ele>
<time>2013-09-20T19:28:21Z</time>
</trkpt>
<trkpt lat="38.23318368" lon="-1.14653255">
<ele>1023</ele>
<time>2013-09-20T19:28:23Z</time>
</trkpt>
<trkpt lat="38.23327263" lon="-1.14648714">
<ele>1023</ele>
<time>2013-09-20T19:28:25Z</time>
</trkpt>
<trkpt lat="38.23337437" lon="-1.14642778">
<ele>1022</ele>
<time>2013-09-20T19:28:27Z</time>
</trkpt>
<trkpt lat="38.23348042" lon="-1.14632333">
<ele>1023</ele>
<time>2013-09-20T19:28:29Z</time>
</trkpt>
<trkpt lat="38.23359633" lon="-1.14626219">
<ele>1024</ele>
<time>2013-09-20T19:28:31Z</time>
</trkpt>
<trkpt lat="38.2336813" lon="-1.14616383">
<ele>1023</ele>
<time>2013-09-20T19:28:33Z</time>
</trkpt>
<trkpt lat="38.23378441" lon="-1.14608338">
<ele>1024</ele>
<time>2013-09-20T19:28:35Z</time>
</trkpt>
<trkpt lat="38.23386489" lon="-1.14603026">
<ele>1024</ele>
<time>2013-09-20T19:28:37Z</time>
</trkpt>
<trkpt lat="38.23390842" lon="-1.14596731">
<ele>1022</ele>
<time>2013-09-20T19:28:39Z</time>
</trkpt>
<trkpt lat="38.2340025" lon="-1.14587277">
<ele>1021</ele>
<time>2013-09-20T19:28:41Z</time>
</trkpt>
<trkpt lat="38.23408209" lon="-1.1458002">
<ele>1023</ele>
<time>2013-09-20T19:28:43Z</time>
</trkpt>
<trkpt lat="38.23418828" lon="-1.14570089">
<ele>1019</ele>
<time>2013-09-20T19:28:45Z</time>
</trkpt>
<trkpt lat="38.23426783" lon="-1.14561437">
<ele>1022</ele>
<time>2013-09-20T19:28:47Z</time>
</trkpt>
<trkpt lat="38.23438735" lon="-1.14555128">
<ele>1025</ele>
<time>2013-09-20T19:28:49Z</time>
</trkpt>
<trkpt lat="38.23447225" lon="-1.1454769">
<ele>1027</ele>
<time>2013-09-20T19:28:51Z</time>
</trkpt>
<trkpt lat="38.23460264" lon="-1.14542282">
<ele>1026</ele>
<time>2013-09-20T19:28:53Z</time>
</trkpt>
<trkpt lat="38.23471123" lon="-1.14535594">
<ele>1026</ele>
<time>2013-09-20T19:28:55Z</time>
</trkpt>
<trkpt lat="38.23481799" lon="-1.14528526">
<ele>1027</ele>
<time>2013-09-20T19:28:57Z</time>
</trkpt>
<trkpt lat="38.23492593" lon="-1.1451996">
<ele>1025</ele>
<time>2013-09-20T19:28:59Z</time>
</trkpt>
<trkpt lat="38.23505899" lon="-1.14512748">
<ele>1024</ele>
<time>2013-09-20T19:29:01Z</time>
</trkpt>
<trkpt lat="38.23519428" lon="-1.1450333">
<ele>1026</ele>
<time>2013-09-20T19:29:03Z</time>
</trkpt>
<trkpt lat="38.23527984" lon="-1.14496025">
<ele>1025</ele>
<time>2013-09-20T19:29:05Z</time>
</trkpt>
<trkpt lat="38.2353583" lon="-1.14485753">
<ele>1025</ele>
<time>2013-09-20T19:29:07Z</time>
</trkpt>
<trkpt lat="38.23541759" lon="-1.14474348">
<ele>1028</ele>
<time>2013-09-20T19:29:09Z</time>
</trkpt>
<trkpt lat="38.23547713" lon="-1.14465783">
<ele>1029</ele>
<time>2013-09-20T19:29:11Z</time>
</trkpt>
<trkpt lat="38.23555392" lon="-1.1445592">
<ele>1028</ele>
<time>2013-09-20T19:29:13Z</time>
</trkpt>
<trkpt lat="38.23561532" lon="-1.14444544">
<ele>1029</ele>
<time>2013-09-20T19:29:15Z</time>
</trkpt>
<trkpt lat="38.23568244" lon="-1.14436613">
<ele>1028</ele>
<time>2013-09-20T19:29:17Z</time>
</trkpt>
<trkpt lat="38.23573836" lon="-1.14428703">
<ele>1027</ele>
<time>2013-09-20T19:29:19Z</time>
</trkpt>
<trkpt lat="38.23580608" lon="-1.14417147">
<ele>1026</ele>
<time>2013-09-20T19:29:21Z</time>
</trkpt>
<trkpt lat="38.23589433" lon="-1.14407923">
<ele>1028</ele>
<time>2013-09-20T19:29:23Z</time>
</trkpt>
<trkpt lat="38.23598958" lon="-1.14399003">
<ele>1028</ele>
<time>2013-09-20T19:29:25Z</time>
</trkpt>
<trkpt lat="38.23606877" lon="-1.1438732">
<ele>1028</ele>
<time>2013-09-20T19:29:27Z</time>
</trkpt>
<trkpt lat="38.23613961" lon="-1.14378047">
<ele>1028</ele>
<time>2013-09-20T19:29:29Z</time>
</trkpt>
<trkpt lat="38.23621182" lon="-1.14372661">
<ele>1027</ele>
<time>2013-09-20T19:29:31Z</time>
</trkpt>
<trkpt lat="38.23628009" lon="-1.14360739">
<ele>1025</ele>
<time>2013-09-20T19:29:33Z</time>
</trkpt>
<trkpt lat="38.23634349" lon="-1.14348085">
<ele>1024</ele>
<time>2013-09-20T19:29:35Z</time>
</trkpt>
<trkpt lat="38.23641605" lon="-1.14339806">
<ele>1025</ele>
<time>2013-09-20T19:29:37Z</time>
</trkpt>
<trkpt lat="38.23647836" lon="-1.1432932">
<ele>1025</ele>
<time>2013-09-20T19:29:39Z</time>
</trkpt>
<trkpt lat="38.23652002" lon="-1.143184">
<ele>1026</ele>
<time>2013-09-20T19:29:41Z</time>
</trkpt>
<trkpt lat="38.23657459" lon="-1.14306962">
<ele>1025</ele>
<time>2013-09-20T19:29:43Z</time>
</trkpt>
<trkpt lat="38.23661429" lon="-1.14292884">
<ele>1027</ele>
<time>2013-09-20T19:29:45Z</time>
</trkpt>
<trkpt lat="38.23662607" lon="-1.14279152">
<ele>1027</ele>
<time>2013-09-20T19:29:47Z</time>
</trkpt>
<trkpt lat="38.2366342" lon="-1.14270354">
<ele>1025</ele>
<time>2013-09-20T19:29:49Z</time>
</trkpt>
<trkpt lat="38.23664302" lon="-1.14260036">
<ele>1025</ele>
<time>2013-09-20T19:29:51Z</time>
</trkpt>
<trkpt lat="38.23660773" lon="-1.14252023">
<ele>1026</ele>
<time>2013-09-20T19:29:53Z</time>
</trkpt>
<trkpt lat="38.236543" lon="-1.14248579">
<ele>1025</ele>
<time>2013-09-20T19:29:55Z</time>
</trkpt>
<trkpt lat="38.23643803" lon="-1.14252856">
<ele>1025</ele>
<time>2013-09-20T19:29:57Z</time>
</trkpt>
<trkpt lat="38.23631008" lon="-1.14258241">
<ele>1023</ele>
<time>2013-09-20T19:29:59Z</time>
</trkpt>
<trkpt lat="38.23617626" lon="-1.142692">
<ele>1022</ele>
<time>2013-09-20T19:30:01Z</time>
</trkpt>
<trkpt lat="38.23605246" lon="-1.14281774">
<ele>1023</ele>
<time>2013-09-20T19:30:03Z</time>
</trkpt>
<trkpt lat="38.2359178" lon="-1.14295312">
<ele>1025</ele>
<time>2013-09-20T19:30:05Z</time>
</trkpt>
<trkpt lat="38.2357871" lon="-1.14306312">
<ele>1025</ele>
<time>2013-09-20T19:30:07Z</time>
</trkpt>
<trkpt lat="38.23564244" lon="-1.14315753">
<ele>1025</ele>
<time>2013-09-20T19:30:09Z</time>
</trkpt>
<trkpt lat="38.23550148" lon="-1.14322381">
<ele>1027</ele>
<time>2013-09-20T19:30:11Z</time>
</trkpt>
<trkpt lat="38.23537104" lon="-1.14327476">
<ele>1025</ele>
<time>2013-09-20T19:30:13Z</time>
</trkpt>
<trkpt lat="38.2352565" lon="-1.14328848">
<ele>1024</ele>
<time>2013-09-20T19:30:15Z</time>
</trkpt>
<trkpt lat="38.23512982" lon="-1.14334059">
<ele>1025</ele>
<time>2013-09-20T19:30:17Z</time>
</trkpt>
<trkpt lat="38.23499601" lon="-1.14340167">
<ele>1021</ele>
<time>2013-09-20T19:30:19Z</time>
</trkpt>
<trkpt lat="38.23484856" lon="-1.143462">
<ele>1022</ele>
<time>2013-09-20T19:30:21Z</time>
</trkpt>
<trkpt lat="38.23470463" lon="-1.14352705">
<ele>1023</ele>
<time>2013-09-20T19:30:23Z</time>
</trkpt>
<trkpt lat="38.2345852" lon="-1.14360099">
<ele>1025</ele>
<time>2013-09-20T19:30:25Z</time>
</trkpt>
<trkpt lat="38.23442953" lon="-1.14363281">
<ele>1024</ele>
<time>2013-09-20T19:30:27Z</time>
</trkpt>
<trkpt lat="38.23428576" lon="-1.14367466">
<ele>1026</ele>
<time>2013-09-20T19:30:29Z</time>
</trkpt>
<trkpt lat="38.23414188" lon="-1.14367724">
<ele>1030</ele>
<time>2013-09-20T19:30:31Z</time>
</trkpt>
<trkpt lat="38.23401075" lon="-1.14370844">
<ele>1030</ele>
<time>2013-09-20T19:30:33Z</time>
</trkpt>
<trkpt lat="38.2338722" lon="-1.14375582">
<ele>1030</ele>
<time>2013-09-20T19:30:35Z</time>
</trkpt>
<trkpt lat="38.23374675" lon="-1.14385038">
<ele>1028</ele>
<time>2013-09-20T19:30:37Z</time>
</trkpt>
<trkpt lat="38.23360635" lon="-1.14390127">
<ele>1027</ele>
<time>2013-09-20T19:30:39Z</time>
</trkpt>
<trkpt lat="38.23346787" lon="-1.14394473">
<ele>1029</ele>
<time>2013-09-20T19:30:41Z</time>
</trkpt>
<trkpt lat="38.23331024" lon="-1.14404638">
<ele>1028</ele>
<time>2013-09-20T19:30:43Z</time>
</trkpt>
<trkpt lat="38.23315896" lon="-1.14415556">
<ele>1027</ele>
<time>2013-09-20T19:30:45Z</time>
</trkpt>
<trkpt lat="38.23301081" lon="-1.14426928">
<ele>1025</ele>
<time>2013-09-20T19:30:47Z</time>
</trkpt>
<trkpt lat="38.23284992" lon="-1.14439773">
<ele>1026</ele>
<time>2013-09-20T19:30:49Z</time>
</trkpt>
<trkpt lat="38.23270778" lon="-1.14454876">
<ele>1026</ele>
<time>2013-09-20T19:30:51Z</time>
</trkpt>
<trkpt lat="38.23258272" lon="-1.14466611">
<ele>1027</ele>
<time>2013-09-20T19:30:53Z</time>
</trkpt>
<trkpt lat="38.23242898" lon="-1.14480054">
<ele>1028</ele>
<time>2013-09-20T19:30:55Z</time>
</trkpt>
<trkpt lat="38.23228804" lon="-1.14492273">
<ele>1027</ele>
<time>2013-09-20T19:30:57Z</time>
</trkpt>
<trkpt lat="38.2321568" lon="-1.14499517">
<ele>1026</ele>
<time>2013-09-20T19:30:59Z</time>
</trkpt>
<trkpt lat="38.23199488" lon="-1.14506492">
<ele>1025</ele>
<time>2013-09-20T19:31:01Z</time>
</trkpt>
<trkpt lat="38.2318446" lon="-1.14509154">
<ele>1024</ele>
<time>2013-09-20T19:31:03Z</time>
</trkpt>
<trkpt lat="38.2317331" lon="-1.14506515">
<ele>1024</ele>
<time>2013-09-20T19:31:05Z</time>
</trkpt>
<trkpt lat="38.23163675" lon="-1.14504051">
<ele>1023</ele>
<time>2013-09-20T19:31:07Z</time>
</trkpt>
<trkpt lat="38.23153549" lon="-1.14495802">
<ele>1023</ele>
<time>2013-09-20T19:31:09Z</time>
</trkpt>
<trkpt lat="38.23146041" lon="-1.14488639">
<ele>1023</ele>
<time>2013-09-20T19:31:11Z</time>
</trkpt>
<trkpt lat="38.23138665" lon="-1.14480943">
<ele>1021</ele>
<time>2013-09-20T19:31:13Z</time>
</trkpt>
<trkpt lat="38.2313098" lon="-1.14469336">
<ele>1020</ele>
<time>2013-09-20T19:31:15Z</time>
</trkpt>
<trkpt lat="38.23123452" lon="-1.14459241">
<ele>1021</ele>
<time>2013-09-20T19:31:17Z</time>
</trkpt>
<trkpt lat="38.23116957" lon="-1.1444894">
<ele>1020</ele>
<time>2013-09-20T19:31:19Z</time>
</trkpt>
<trkpt lat="38.23110149" lon="-1.14437453">
<ele>1018</ele>
<time>2013-09-20T19:31:21Z</time>
</trkpt>
<trkpt lat="38.23104166" lon="-1.14426937">
<ele>1019</ele>
<time>2013-09-20T19:31:23Z</time>
</trkpt>
<trkpt lat="38.23099201" lon="-1.14418147">
<ele>1017</ele>
<time>2013-09-20T19:31:25Z</time>
</trkpt>
<trkpt lat="38.23092317" lon="-1.14406956">
<ele>1015</ele>
<time>2013-09-20T19:31:27Z</time>
</trkpt>
<trkpt lat="38.23084855" lon="-1.14397479">
<ele>1015</ele>
<time>2013-09-20T19:31:29Z</time>
</trkpt>
<trkpt lat="38.23078187" lon="-1.14388242">
<ele>1014</ele>
<time>2013-09-20T19:31:31Z</time>
</trkpt>
<trkpt lat="38.23071346" lon="-1.1437861">
<ele>1014</ele>
<time>2013-09-20T19:31:33Z</time>
</trkpt>
<trkpt lat="38.23067493" lon="-1.14366354">
<ele>1013</ele>
<time>2013-09-20T19:31:35Z</time>
</trkpt>
<trkpt lat="38.23060591" lon="-1.14356912">
<ele>1013</ele>
<time>2013-09-20T19:31:37Z</time>
</trkpt>
<trkpt lat="38.23052847" lon="-1.143468">
<ele>1011</ele>
<time>2013-09-20T19:31:39Z</time>
</trkpt>
<trkpt lat="38.23047247" lon="-1.1433656">
<ele>1011</ele>
<time>2013-09-20T19:31:41Z</time>
</trkpt>
<trkpt lat="38.23039547" lon="-1.1432659">
<ele>1010</ele>
<time>2013-09-20T19:31:43Z</time>
</trkpt>
<trkpt lat="38.23031755" lon="-1.14315923">
<ele>1008</ele>
<time>2013-09-20T19:31:45Z</time>
</trkpt>
<trkpt lat="38.23025052" lon="-1.14304033">
<ele>1009</ele>
<time>2013-09-20T19:31:47Z</time>
</trkpt>
<trkpt lat="38.23018145" lon="-1.14292781">
<ele>1009</ele>
<time>2013-09-20T19:31:49Z</time>
</trkpt>
<trkpt lat="38.23011066" lon="-1.14280593">
<ele>1007</ele>
<time>2013-09-20T19:31:51Z</time>
</trkpt>
<trkpt lat="38.2300567" lon="-1.1426723">
<ele>1004</ele>
<time>2013-09-20T19:31:53Z</time>
</trkpt>
<trkpt lat="38.22998588" lon="-1.14256538">
<ele>1005</ele>
<time>2013-09-20T19:31:55Z</time>
</trkpt>
<trkpt lat="38.22991893" lon="-1.1424487">
<ele>1005</ele>
<time>2013-09-20T19:31:57Z</time>
</trkpt>
<trkpt lat="38.22987389" lon="-1.14234435">
<ele>1003</ele>
<time>2013-09-20T19:31:59Z</time>
</trkpt>
<trkpt lat="38.22981471" lon="-1.14223152">
<ele>1002</ele>
<time>2013-09-20T19:32:01Z</time>
</trkpt>
<trkpt lat="38.2297402" lon="-1.14210473">
<ele>1000</ele>
<time>2013-09-20T19:32:03Z</time>
</trkpt>
<trkpt lat="38.22964557" lon="-1.14198625">
<ele>998</ele>
<time>2013-09-20T19:32:05Z</time>
</trkpt>
<trkpt lat="38.22958107" lon="-1.14186729">
<ele>998</ele>
<time>2013-09-20T19:32:07Z</time>
</trkpt>
<trkpt lat="38.22950342" lon="-1.1417265">
<ele>995</ele>
<time>2013-09-20T19:32:09Z</time>
</trkpt>
<trkpt lat="38.22945606" lon="-1.14160976">
<ele>991</ele>
<time>2013-09-20T19:32:11Z</time>
</trkpt>
<trkpt lat="38.22940053" lon="-1.14149443">
<ele>990</ele>
<time>2013-09-20T19:32:13Z</time>
</trkpt>
<trkpt lat="38.22934564" lon="-1.1413906">
<ele>990</ele>
<time>2013-09-20T19:32:15Z</time>
</trkpt>
<trkpt lat="38.2292628" lon="-1.14128714">
<ele>990</ele>
<time>2013-09-20T19:32:17Z</time>
</trkpt>
<trkpt lat="38.22920252" lon="-1.1411952">
<ele>988</ele>
<time>2013-09-20T19:32:19Z</time>
</trkpt>
<trkpt lat="38.22911307" lon="-1.14107442">
<ele>986</ele>
<time>2013-09-20T19:32:21Z</time>
</trkpt>
<trkpt lat="38.22902727" lon="-1.14095536">
<ele>985</ele>
<time>2013-09-20T19:32:23Z</time>
</trkpt>
<trkpt lat="38.22894532" lon="-1.14082714">
<ele>984</ele>
<time>2013-09-20T19:32:25Z</time>
</trkpt>
<trkpt lat="38.22885601" lon="-1.14072874">
<ele>983</ele>
<time>2013-09-20T19:32:27Z</time>
</trkpt>
<trkpt lat="38.2287785" lon="-1.14064986">
<ele>982</ele>
<time>2013-09-20T19:32:29Z</time>
</trkpt>
<trkpt lat="38.22870792" lon="-1.14055468">
<ele>980</ele>
<time>2013-09-20T19:32:31Z</time>
</trkpt>
<trkpt lat="38.22866842" lon="-1.14048296">
<ele>982</ele>
<time>2013-09-20T19:32:33Z</time>
</trkpt>
<trkpt lat="38.22860065" lon="-1.14035312">
<ele>982</ele>
<time>2013-09-20T19:32:35Z</time>
</trkpt>
<trkpt lat="38.22856298" lon="-1.14025602">
<ele>978</ele>
<time>2013-09-20T19:32:37Z</time>
</trkpt>
<trkpt lat="38.22849695" lon="-1.14015455">
<ele>975</ele>
<time>2013-09-20T19:32:39Z</time>
</trkpt>
<trkpt lat="38.22842517" lon="-1.14006343">
<ele>973</ele>
<time>2013-09-20T19:32:41Z</time>
</trkpt>
<trkpt lat="38.22834898" lon="-1.1399606">
<ele>972</ele>
<time>2013-09-20T19:32:43Z</time>
</trkpt>
<trkpt lat="38.22826888" lon="-1.13983281">
<ele>969</ele>
<time>2013-09-20T19:32:45Z</time>
</trkpt>
<trkpt lat="38.22817343" lon="-1.13971331">
<ele>969</ele>
<time>2013-09-20T19:32:47Z</time>
</trkpt>
<trkpt lat="38.22813349" lon="-1.13959491">
<ele>966</ele>
<time>2013-09-20T19:32:49Z</time>
</trkpt>
<trkpt lat="38.2280767" lon="-1.13945628">
<ele>965</ele>
<time>2013-09-20T19:32:51Z</time>
</trkpt>
<trkpt lat="38.2280055" lon="-1.13935919">
<ele>963</ele>
<time>2013-09-20T19:32:53Z</time>
</trkpt>
<trkpt lat="38.22793316" lon="-1.13923537">
<ele>961</ele>
<time>2013-09-20T19:32:55Z</time>
</trkpt>
<trkpt lat="38.22785855" lon="-1.13914978">
<ele>960</ele>
<time>2013-09-20T19:32:57Z</time>
</trkpt>
<trkpt lat="38.22781009" lon="-1.13905752">
<ele>961</ele>
<time>2013-09-20T19:32:59Z</time>
</trkpt>
<trkpt lat="38.22773752" lon="-1.1389987">
<ele>959</ele>
<time>2013-09-20T19:33:01Z</time>
</trkpt>
<trkpt lat="38.2276677" lon="-1.13892195">
<ele>958</ele>
<time>2013-09-20T19:33:03Z</time>
</trkpt>
<trkpt lat="38.22760192" lon="-1.13879637">
<ele>958</ele>
<time>2013-09-20T19:33:05Z</time>
</trkpt>
<trkpt lat="38.2275306" lon="-1.13872743">
<ele>957</ele>
<time>2013-09-20T19:33:07Z</time>
</trkpt>
<trkpt lat="38.2274704" lon="-1.13865128">
<ele>955</ele>
<time>2013-09-20T19:33:09Z</time>
</trkpt>
<trkpt lat="38.22743055" lon="-1.13852382">
<ele>953</ele>
<time>2013-09-20T19:33:11Z</time>
</trkpt>
<trkpt lat="38.22737682" lon="-1.1384228">
<ele>951</ele>
<time>2013-09-20T19:33:13Z</time>
</trkpt>
<trkpt lat="38.22732398" lon="-1.13831139">
<ele>949</ele>
<time>2013-09-20T19:33:15Z</time>
</trkpt>
<trkpt lat="38.22726619" lon="-1.13819944">
<ele>947</ele>
<time>2013-09-20T19:33:17Z</time>
</trkpt>
<trkpt lat="38.22717665" lon="-1.13811117">
<ele>945</ele>
<time>2013-09-20T19:33:19Z</time>
</trkpt>
<trkpt lat="38.22710171" lon="-1.13804833">
<ele>943</ele>
<time>2013-09-20T19:33:21Z</time>
</trkpt>
<trkpt lat="38.22700885" lon="-1.13798466">
<ele>942</ele>
<time>2013-09-20T19:33:23Z</time>
</trkpt>
<trkpt lat="38.22693911" lon="-1.1379066">
<ele>942</ele>
<time>2013-09-20T19:33:25Z</time>
</trkpt>
<trkpt lat="38.22689385" lon="-1.13783259">
<ele>940</ele>
<time>2013-09-20T19:33:27Z</time>
</trkpt>
<trkpt lat="38.22684729" lon="-1.13775405">
<ele>937</ele>
<time>2013-09-20T19:33:29Z</time>
</trkpt>
<trkpt lat="38.22678324" lon="-1.13767044">
<ele>934</ele>
<time>2013-09-20T19:33:31Z</time>
</trkpt>
<trkpt lat="38.22673592" lon="-1.13756782">
<ele>932</ele>
<time>2013-09-20T19:33:33Z</time>
</trkpt>
<trkpt lat="38.22669096" lon="-1.13744253">
<ele>932</ele>
<time>2013-09-20T19:33:35Z</time>
</trkpt>
<trkpt lat="38.22662419" lon="-1.13733803">
<ele>932</ele>
<time>2013-09-20T19:33:37Z</time>
</trkpt>
<trkpt lat="38.22660313" lon="-1.13725471">
<ele>930</ele>
<time>2013-09-20T19:33:39Z</time>
</trkpt>
<trkpt lat="38.22660207" lon="-1.13711896">
<ele>929</ele>
<time>2013-09-20T19:33:41Z</time>
</trkpt>
<trkpt lat="38.2265564" lon="-1.13700168">
<ele>926</ele>
<time>2013-09-20T19:33:43Z</time>
</trkpt>
<trkpt lat="38.22650049" lon="-1.13693099">
<ele>926</ele>
<time>2013-09-20T19:33:45Z</time>
</trkpt>
<trkpt lat="38.22642001" lon="-1.1368379">
<ele>924</ele>
<time>2013-09-20T19:33:47Z</time>
</trkpt>
<trkpt lat="38.22633557" lon="-1.13674202">
<ele>924</ele>
<time>2013-09-20T19:33:49Z</time>
</trkpt>
<trkpt lat="38.22624316" lon="-1.13666545">
<ele>921</ele>
<time>2013-09-20T19:33:51Z</time>
</trkpt>
<trkpt lat="38.22617887" lon="-1.13656603">
<ele>918</ele>
<time>2013-09-20T19:33:53Z</time>
</trkpt>
<trkpt lat="38.22609649" lon="-1.13647896">
<ele>918</ele>
<time>2013-09-20T19:33:55Z</time>
</trkpt>
<trkpt lat="38.22602277" lon="-1.13641528">
<ele>916</ele>
<time>2013-09-20T19:33:57Z</time>
</trkpt>
<trkpt lat="38.2259459" lon="-1.13631383">
<ele>912</ele>
<time>2013-09-20T19:33:59Z</time>
</trkpt>
<trkpt lat="38.2258488" lon="-1.13627624">
<ele>911</ele>
<time>2013-09-20T19:34:01Z</time>
</trkpt>
<trkpt lat="38.22578363" lon="-1.13619123">
<ele>908</ele>
<time>2013-09-20T19:34:03Z</time>
</trkpt>
<trkpt lat="38.22572496" lon="-1.13610987">
<ele>907</ele>
<time>2013-09-20T19:34:05Z</time>
</trkpt>
<trkpt lat="38.22562905" lon="-1.13603951">
<ele>904</ele>
<time>2013-09-20T19:34:07Z</time>
</trkpt>
<trkpt lat="38.22554923" lon="-1.13597404">
<ele>902</ele>
<time>2013-09-20T19:34:09Z</time>
</trkpt>
<trkpt lat="38.22544596" lon="-1.13592101">
<ele>899</ele>
<time>2013-09-20T19:34:11Z</time>
</trkpt>
<trkpt lat="38.22534716" lon="-1.13585823">
<ele>896</ele>
<time>2013-09-20T19:34:13Z</time>
</trkpt>
<trkpt lat="38.22526718" lon="-1.13578927">
<ele>892</ele>
<time>2013-09-20T19:34:15Z</time>
</trkpt>
<trkpt lat="38.22516745" lon="-1.13574706">
<ele>891</ele>
<time>2013-09-20T19:34:17Z</time>
</trkpt>
<trkpt lat="38.22508059" lon="-1.1356867">
<ele>890</ele>
<time>2013-09-20T19:34:19Z</time>
</trkpt>
<trkpt lat="38.22499736" lon="-1.13562953">
<ele>889</ele>
<time>2013-09-20T19:34:21Z</time>
</trkpt>
<trkpt lat="38.22491846" lon="-1.13554754">
<ele>886</ele>
<time>2013-09-20T19:34:23Z</time>
</trkpt>
<trkpt lat="38.22484195" lon="-1.13548635">
<ele>885</ele>
<time>2013-09-20T19:34:25Z</time>
</trkpt>
<trkpt lat="38.22477472" lon="-1.13540466">
<ele>881</ele>
<time>2013-09-20T19:34:27Z</time>
</trkpt>
<trkpt lat="38.22470782" lon="-1.13530878">
<ele>878</ele>
<time>2013-09-20T19:34:29Z</time>
</trkpt>
<trkpt lat="38.22465191" lon="-1.13520368">
<ele>876</ele>
<time>2013-09-20T19:34:31Z</time>
</trkpt>
<trkpt lat="38.22460454" lon="-1.13511645">
<ele>875</ele>
<time>2013-09-20T19:34:33Z</time>
</trkpt>
<trkpt lat="38.22454558" lon="-1.13502987">
<ele>874</ele>
<time>2013-09-20T19:34:35Z</time>
</trkpt>
<trkpt lat="38.22448705" lon="-1.13495674">
<ele>874</ele>
<time>2013-09-20T19:34:37Z</time>
</trkpt>
<trkpt lat="38.22443804" lon="-1.13488106">
<ele>873</ele>
<time>2013-09-20T19:34:39Z</time>
</trkpt>
<trkpt lat="38.22436398" lon="-1.13479324">
<ele>872</ele>
<time>2013-09-20T19:34:41Z</time>
</trkpt>
<trkpt lat="38.22429526" lon="-1.1347623">
<ele>870</ele>
<time>2013-09-20T19:34:43Z</time>
</trkpt>
<trkpt lat="38.22423747" lon="-1.13467621">
<ele>868</ele>
<time>2013-09-20T19:34:45Z</time>
</trkpt>
<trkpt lat="38.22420408" lon="-1.13454107">
<ele>865</ele>
<time>2013-09-20T19:34:47Z</time>
</trkpt>
<trkpt lat="38.2241796" lon="-1.13440255">
<ele>864</ele>
<time>2013-09-20T19:34:49Z</time>
</trkpt>
<trkpt lat="38.22416504" lon="-1.13430345">
<ele>862</ele>
<time>2013-09-20T19:34:51Z</time>
</trkpt>
<trkpt lat="38.22412361" lon="-1.13418739">
<ele>859</ele>
<time>2013-09-20T19:34:53Z</time>
</trkpt>
<trkpt lat="38.22411451" lon="-1.13408039">
<ele>859</ele>
<time>2013-09-20T19:34:55Z</time>
</trkpt>
<trkpt lat="38.22413113" lon="-1.13395474">
<ele>857</ele>
<time>2013-09-20T19:34:57Z</time>
</trkpt>
<trkpt lat="38.22411025" lon="-1.13381866">
<ele>856</ele>
<time>2013-09-20T19:34:59Z</time>
</trkpt>
<trkpt lat="38.22411925" lon="-1.13374498">
<ele>853</ele>
<time>2013-09-20T19:35:01Z</time>
</trkpt>
<trkpt lat="38.22411412" lon="-1.1336458">
<ele>852</ele>
<time>2013-09-20T19:35:03Z</time>
</trkpt>
<trkpt lat="38.22409845" lon="-1.13353308">
<ele>851</ele>
<time>2013-09-20T19:35:05Z</time>
</trkpt>
<trkpt lat="38.22409869" lon="-1.13344304">
<ele>849</ele>
<time>2013-09-20T19:35:07Z</time>
</trkpt>
<trkpt lat="38.22411764" lon="-1.13332846">
<ele>844</ele>
<time>2013-09-20T19:35:09Z</time>
</trkpt>
<trkpt lat="38.2241579" lon="-1.13322689">
<ele>842</ele>
<time>2013-09-20T19:35:11Z</time>
</trkpt>
<trkpt lat="38.22417785" lon="-1.13311715">
<ele>842</ele>
<time>2013-09-20T19:35:13Z</time>
</trkpt>
<trkpt lat="38.22419869" lon="-1.13301874">
<ele>839</ele>
<time>2013-09-20T19:35:15Z</time>
</trkpt>
<trkpt lat="38.22423603" lon="-1.13294312">
<ele>833</ele>
<time>2013-09-20T19:35:17Z</time>
</trkpt>
<trkpt lat="38.22424519" lon="-1.13283165">
<ele>830</ele>
<time>2013-09-20T19:35:19Z</time>
</trkpt>
<trkpt lat="38.22428931" lon="-1.13277372">
<ele>829</ele>
<time>2013-09-20T19:35:21Z</time>
</trkpt>
<trkpt lat="38.2243524" lon="-1.13270305">
<ele>826</ele>
<time>2013-09-20T19:35:23Z</time>
</trkpt>
<trkpt lat="38.2243946" lon="-1.13258861">
<ele>822</ele>
<time>2013-09-20T19:35:25Z</time>
</trkpt>
<trkpt lat="38.22445975" lon="-1.13247099">
<ele>821</ele>
<time>2013-09-20T19:35:27Z</time>
</trkpt>
<trkpt lat="38.22450821" lon="-1.13237366">
<ele>821</ele>
<time>2013-09-20T19:35:29Z</time>
</trkpt>
<trkpt lat="38.22454309" lon="-1.13227582">
<ele>818</ele>
<time>2013-09-20T19:35:31Z</time>
</trkpt>
<trkpt lat="38.22459502" lon="-1.13215167">
<ele>817</ele>
<time>2013-09-20T19:35:33Z</time>
</trkpt>
<trkpt lat="38.22463471" lon="-1.13203559">
<ele>818</ele>
<time>2013-09-20T19:35:35Z</time>
</trkpt>
<trkpt lat="38.22465786" lon="-1.13195791">
<ele>815</ele>
<time>2013-09-20T19:35:37Z</time>
</trkpt>
<trkpt lat="38.22470446" lon="-1.13183788">
<ele>814</ele>
<time>2013-09-20T19:35:39Z</time>
</trkpt>
<trkpt lat="38.22470153" lon="-1.13174033">
<ele>813</ele>
<time>2013-09-20T19:35:41Z</time>
</trkpt>
<trkpt lat="38.22471835" lon="-1.13167857">
<ele>810</ele>
<time>2013-09-20T19:35:43Z</time>
</trkpt>
<trkpt lat="38.22472468" lon="-1.13156511">
<ele>809</ele>
<time>2013-09-20T19:35:45Z</time>
</trkpt>
<trkpt lat="38.22476312" lon="-1.13143743">
<ele>809</ele>
<time>2013-09-20T19:35:47Z</time>
</trkpt>
<trkpt lat="38.22476735" lon="-1.1313541">
<ele>807</ele>
<time>2013-09-20T19:35:49Z</time>
</trkpt>
<trkpt lat="38.22478971" lon="-1.13125913">
<ele>807</ele>
<time>2013-09-20T19:35:51Z</time>
</trkpt>
<trkpt lat="38.22481019" lon="-1.13119343">
<ele>806</ele>
<time>2013-09-20T19:35:53Z</time>
</trkpt>
<trkpt lat="38.22484053" lon="-1.13112732">
<ele>798</ele>
<time>2013-09-20T19:35:55Z</time>
</trkpt>
<trkpt lat="38.22489679" lon="-1.13100607">
<ele>794</ele>
<time>2013-09-20T19:35:57Z</time>
</trkpt>
<trkpt lat="38.2249736" lon="-1.13089078">
<ele>792</ele>
<time>2013-09-20T19:35:59Z</time>
</trkpt>
<trkpt lat="38.22506194" lon="-1.1307563">
<ele>793</ele>
<time>2013-09-20T19:36:01Z</time>
</trkpt>
<trkpt lat="38.22511126" lon="-1.13063236">
<ele>793</ele>
<time>2013-09-20T19:36:03Z</time>
</trkpt>
<trkpt lat="38.22517636" lon="-1.13055834">
<ele>793</ele>
<time>2013-09-20T19:36:05Z</time>
</trkpt>
<trkpt lat="38.22523685" lon="-1.1304648">
<ele>792</ele>
<time>2013-09-20T19:36:07Z</time>
</trkpt>
<trkpt lat="38.22531174" lon="-1.13035098">
<ele>791</ele>
<time>2013-09-20T19:36:09Z</time>
</trkpt>
<trkpt lat="38.22537728" lon="-1.13025284">
<ele>789</ele>
<time>2013-09-20T19:36:11Z</time>
</trkpt>
<trkpt lat="38.22543928" lon="-1.13016302">
<ele>787</ele>
<time>2013-09-20T19:36:13Z</time>
</trkpt>
<trkpt lat="38.22548103" lon="-1.13004827">
<ele>785</ele>
<time>2013-09-20T19:36:15Z</time>
</trkpt>
<trkpt lat="38.2255188" lon="-1.12995469">
<ele>784</ele>
<time>2013-09-20T19:36:17Z</time>
</trkpt>
<trkpt lat="38.22557172" lon="-1.12985198">
<ele>784</ele>
<time>2013-09-20T19:36:19Z</time>
</trkpt>
<trkpt lat="38.22560011" lon="-1.12973067">
<ele>781</ele>
<time>2013-09-20T19:36:21Z</time>
</trkpt>
<trkpt lat="38.22562725" lon="-1.12961846">
<ele>779</ele>
<time>2013-09-20T19:36:23Z</time>
</trkpt>
<trkpt lat="38.2256639" lon="-1.12953061">
<ele>779</ele>
<time>2013-09-20T19:36:25Z</time>
</trkpt>
<trkpt lat="38.22567475" lon="-1.12945395">
<ele>781</ele>
<time>2013-09-20T19:36:27Z</time>
</trkpt>
<trkpt lat="38.22570074" lon="-1.12936776">
<ele>778</ele>
<time>2013-09-20T19:36:29Z</time>
</trkpt>
<trkpt lat="38.22574949" lon="-1.12926808">
<ele>776</ele>
<time>2013-09-20T19:36:31Z</time>
</trkpt>
<trkpt lat="38.22580549" lon="-1.12915887">
<ele>776</ele>
<time>2013-09-20T19:36:33Z</time>
</trkpt>
<trkpt lat="38.22583883" lon="-1.12903357">
<ele>776</ele>
<time>2013-09-20T19:36:35Z</time>
</trkpt>
<trkpt lat="38.22587112" lon="-1.12890372">
<ele>776</ele>
<time>2013-09-20T19:36:37Z</time>
</trkpt>
<trkpt lat="38.22591188" lon="-1.12879832">
<ele>775</ele>
<time>2013-09-20T19:36:39Z</time>
</trkpt>
<trkpt lat="38.22596693" lon="-1.12871827">
<ele>773</ele>
<time>2013-09-20T19:36:41Z</time>
</trkpt>
<trkpt lat="38.22602016" lon="-1.12861238">
<ele>773</ele>
<time>2013-09-20T19:36:43Z</time>
</trkpt>
<trkpt lat="38.22600761" lon="-1.12848704">
<ele>771</ele>
<time>2013-09-20T19:36:45Z</time>
</trkpt>
<trkpt lat="38.22601903" lon="-1.12840399">
<ele>769</ele>
<time>2013-09-20T19:36:47Z</time>
</trkpt>
<trkpt lat="38.22603333" lon="-1.12828154">
<ele>765</ele>
<time>2013-09-20T19:36:49Z</time>
</trkpt>
<trkpt lat="38.22606622" lon="-1.12818807">
<ele>765</ele>
<time>2013-09-20T19:36:51Z</time>
</trkpt>
<trkpt lat="38.22609244" lon="-1.12812395">
<ele>765</ele>
<time>2013-09-20T19:36:53Z</time>
</trkpt>
<trkpt lat="38.22611024" lon="-1.12800086">
<ele>766</ele>
<time>2013-09-20T19:36:55Z</time>
</trkpt>
<trkpt lat="38.22616497" lon="-1.12786692">
<ele>763</ele>
<time>2013-09-20T19:36:57Z</time>
</trkpt>
<trkpt lat="38.22620481" lon="-1.12775612">
<ele>762</ele>
<time>2013-09-20T19:36:59Z</time>
</trkpt>
<trkpt lat="38.2262147" lon="-1.12764912">
<ele>761</ele>
<time>2013-09-20T19:37:01Z</time>
</trkpt>
<trkpt lat="38.2262523" lon="-1.12754601">
<ele>760</ele>
<time>2013-09-20T19:37:03Z</time>
</trkpt>
<trkpt lat="38.22630863" lon="-1.12745472">
<ele>758</ele>
<time>2013-09-20T19:37:05Z</time>
</trkpt>
<trkpt lat="38.22635587" lon="-1.12739613">
<ele>754</ele>
<time>2013-09-20T19:37:07Z</time>
</trkpt>
<trkpt lat="38.2263797" lon="-1.12730831">
<ele>751</ele>
<time>2013-09-20T19:37:09Z</time>
</trkpt>
<trkpt lat="38.22639471" lon="-1.12721322">
<ele>747</ele>
<time>2013-09-20T19:37:11Z</time>
</trkpt>
<trkpt lat="38.22642228" lon="-1.12710095">
<ele>743</ele>
<time>2013-09-20T19:37:13Z</time>
</trkpt>
<trkpt lat="38.22642916" lon="-1.12700347">
<ele>744</ele>
<time>2013-09-20T19:37:15Z</time>
</trkpt>
<trkpt lat="38.22645784" lon="-1.12691524">
<ele>741</ele>
<time>2013-09-20T19:37:17Z</time>
</trkpt>
<trkpt lat="38.22651558" lon="-1.12678538">
<ele>737</ele>
<time>2013-09-20T19:37:19Z</time>
</trkpt>
<trkpt lat="38.22656168" lon="-1.12665906">
<ele>735</ele>
<time>2013-09-20T19:37:21Z</time>
</trkpt>
<trkpt lat="38.22659542" lon="-1.12657143">
<ele>736</ele>
<time>2013-09-20T19:37:23Z</time>
</trkpt>
<trkpt lat="38.22664979" lon="-1.12646044">
<ele>735</ele>
<time>2013-09-20T19:37:25Z</time>
</trkpt>
<trkpt lat="38.22670501" lon="-1.12635409">
<ele>735</ele>
<time>2013-09-20T19:37:27Z</time>
</trkpt>
<trkpt lat="38.22676014" lon="-1.12621666">
<ele>735</ele>
<time>2013-09-20T19:37:29Z</time>
</trkpt>
<trkpt lat="38.22681509" lon="-1.12614134">
<ele>732</ele>
<time>2013-09-20T19:37:31Z</time>
</trkpt>
<trkpt lat="38.22685355" lon="-1.12603956">
<ele>732</ele>
<time>2013-09-20T19:37:33Z</time>
</trkpt>
<trkpt lat="38.22685704" lon="-1.12593051">
<ele>733</ele>
<time>2013-09-20T19:37:35Z</time>
</trkpt>
<trkpt lat="38.22687522" lon="-1.12581982">
<ele>732</ele>
<time>2013-09-20T19:37:37Z</time>
</trkpt>
<trkpt lat="38.22688626" lon="-1.12572623">
<ele>733</ele>
<time>2013-09-20T19:37:39Z</time>
</trkpt>
<trkpt lat="38.22693367" lon="-1.12562789">
<ele>732</ele>
<time>2013-09-20T19:37:41Z</time>
</trkpt>
<trkpt lat="38.22695774" lon="-1.12553433">
<ele>731</ele>
<time>2013-09-20T19:37:43Z</time>
</trkpt>
<trkpt lat="38.22699122" lon="-1.12543555">
<ele>730</ele>
<time>2013-09-20T19:37:45Z</time>
</trkpt>
<trkpt lat="38.22704539" lon="-1.12534456">
<ele>730</ele>
<time>2013-09-20T19:37:47Z</time>
</trkpt>
<trkpt lat="38.227078" lon="-1.12526592">
<ele>727</ele>
<time>2013-09-20T19:37:49Z</time>
</trkpt>
<trkpt lat="38.22709867" lon="-1.12515125">
<ele>726</ele>
<time>2013-09-20T19:37:51Z</time>
</trkpt>
<trkpt lat="38.22712999" lon="-1.12501653">
<ele>726</ele>
<time>2013-09-20T19:37:53Z</time>
</trkpt>
<trkpt lat="38.22712093" lon="-1.12493475">
<ele>723</ele>
<time>2013-09-20T19:37:55Z</time>
</trkpt>
<trkpt lat="38.22711299" lon="-1.12483846">
<ele>717</ele>
<time>2013-09-20T19:37:57Z</time>
</trkpt>
<trkpt lat="38.22712531" lon="-1.12472878">
<ele>717</ele>
<time>2013-09-20T19:37:59Z</time>
</trkpt>
<trkpt lat="38.22711339" lon="-1.12463016">
<ele>715</ele>
<time>2013-09-20T19:38:01Z</time>
</trkpt>
<trkpt lat="38.22709206" lon="-1.12452121">
<ele>713</ele>
<time>2013-09-20T19:38:03Z</time>
</trkpt>
<trkpt lat="38.22707228" lon="-1.12440343">
<ele>712</ele>
<time>2013-09-20T19:38:05Z</time>
</trkpt>
<trkpt lat="38.22706238" lon="-1.12429767">
<ele>714</ele>
<time>2013-09-20T19:38:07Z</time>
</trkpt>
<trkpt lat="38.22709724" lon="-1.12419047">
<ele>713</ele>
<time>2013-09-20T19:38:09Z</time>
</trkpt>
<trkpt lat="38.22711865" lon="-1.12413422">
<ele>713</ele>
<time>2013-09-20T19:38:11Z</time>
</trkpt>
<trkpt lat="38.22715622" lon="-1.12400072">
<ele>710</ele>
<time>2013-09-20T19:38:13Z</time>
</trkpt>
<trkpt lat="38.2271768" lon="-1.12385569">
<ele>712</ele>
<time>2013-09-20T19:38:15Z</time>
</trkpt>
<trkpt lat="38.22719495" lon="-1.12380271">
<ele>712</ele>
<time>2013-09-20T19:38:17Z</time>
</trkpt>
<trkpt lat="38.22718875" lon="-1.12375049">
<ele>712</ele>
<time>2013-09-20T19:38:19Z</time>
</trkpt>
<trkpt lat="38.2271965" lon="-1.12367859">
<ele>712</ele>
<time>2013-09-20T19:38:21Z</time>
</trkpt>
<trkpt lat="38.22721027" lon="-1.12361515">
<ele>713</ele>
<time>2013-09-20T19:38:23Z</time>
</trkpt>
<trkpt lat="38.22723039" lon="-1.12353375">
<ele>713</ele>
<time>2013-09-20T19:38:25Z</time>
</trkpt>
<trkpt lat="38.22725533" lon="-1.1234748">
<ele>713</ele>
<time>2013-09-20T19:38:27Z</time>
</trkpt>
<trkpt lat="38.22725203" lon="-1.12338777">
<ele>711</ele>
<time>2013-09-20T19:38:29Z</time>
</trkpt>
<trkpt lat="38.22728087" lon="-1.12331661">
<ele>712</ele>
<time>2013-09-20T19:38:31Z</time>
</trkpt>
<trkpt lat="38.22732326" lon="-1.12322896">
<ele>711</ele>
<time>2013-09-20T19:38:33Z</time>
</trkpt>
<trkpt lat="38.22738176" lon="-1.12313842">
<ele>710</ele>
<time>2013-09-20T19:38:35Z</time>
</trkpt>
<trkpt lat="38.22741175" lon="-1.12305471">
<ele>708</ele>
<time>2013-09-20T19:38:37Z</time>
</trkpt>
<trkpt lat="38.22745499" lon="-1.12295782">
<ele>707</ele>
<time>2013-09-20T19:38:39Z</time>
</trkpt>
<trkpt lat="38.22751186" lon="-1.12287284">
<ele>707</ele>
<time>2013-09-20T19:38:41Z</time>
</trkpt>
<trkpt lat="38.22755855" lon="-1.1227893">
<ele>710</ele>
<time>2013-09-20T19:38:43Z</time>
</trkpt>
<trkpt lat="38.2276229" lon="-1.12270817">
<ele>710</ele>
<time>2013-09-20T19:38:45Z</time>
</trkpt>
<trkpt lat="38.22765839" lon="-1.12259747">
<ele>709</ele>
<time>2013-09-20T19:38:47Z</time>
</trkpt>
<trkpt lat="38.22771601" lon="-1.12249183">
<ele>708</ele>
<time>2013-09-20T19:38:49Z</time>
</trkpt>
<trkpt lat="38.22774816" lon="-1.12240178">
<ele>706</ele>
<time>2013-09-20T19:38:51Z</time>
</trkpt>
<trkpt lat="38.22779893" lon="-1.12230681">
<ele>707</ele>
<time>2013-09-20T19:38:53Z</time>
</trkpt>
<trkpt lat="38.22780564" lon="-1.12222432">
<ele>708</ele>
<time>2013-09-20T19:38:55Z</time>
</trkpt>
<trkpt lat="38.22784544" lon="-1.1221608">
<ele>706</ele>
<time>2013-09-20T19:38:57Z</time>
</trkpt>
<trkpt lat="38.22788772" lon="-1.12206842">
<ele>706</ele>
<time>2013-09-20T19:38:59Z</time>
</trkpt>
<trkpt lat="38.22792987" lon="-1.12198521">
<ele>706</ele>
<time>2013-09-20T19:39:01Z</time>
</trkpt>
<trkpt lat="38.22796933" lon="-1.12189407">
<ele>705</ele>
<time>2013-09-20T19:39:03Z</time>
</trkpt>
<trkpt lat="38.22803032" lon="-1.12182011">
<ele>705</ele>
<time>2013-09-20T19:39:05Z</time>
</trkpt>
<trkpt lat="38.2280907" lon="-1.12171818">
<ele>703</ele>
<time>2013-09-20T19:39:07Z</time>
</trkpt>
<trkpt lat="38.22816904" lon="-1.12162892">
<ele>704</ele>
<time>2013-09-20T19:39:09Z</time>
</trkpt>
<trkpt lat="38.22821737" lon="-1.12152779">
<ele>702</ele>
<time>2013-09-20T19:39:11Z</time>
</trkpt>
<trkpt lat="38.22828024" lon="-1.12146664">
<ele>702</ele>
<time>2013-09-20T19:39:13Z</time>
</trkpt>
<trkpt lat="38.22833349" lon="-1.12138209">
<ele>701</ele>
<time>2013-09-20T19:39:15Z</time>
</trkpt>
<trkpt lat="38.22839088" lon="-1.12128288">
<ele>698</ele>
<time>2013-09-20T19:39:17Z</time>
</trkpt>
<trkpt lat="38.22840433" lon="-1.12118401">
<ele>694</ele>
<time>2013-09-20T19:39:19Z</time>
</trkpt>
<trkpt lat="38.22841084" lon="-1.12109372">
<ele>695</ele>
<time>2013-09-20T19:39:21Z</time>
</trkpt>
<trkpt lat="38.2284202" lon="-1.12098501">
<ele>692</ele>
<time>2013-09-20T19:39:23Z</time>
</trkpt>
<trkpt lat="38.2284356" lon="-1.12084769">
<ele>688</ele>
<time>2013-09-20T19:39:25Z</time>
</trkpt>
<trkpt lat="38.22845045" lon="-1.12071421">
<ele>686</ele>
<time>2013-09-20T19:39:27Z</time>
</trkpt>
<trkpt lat="38.22847613" lon="-1.12064413">
<ele>687</ele>
<time>2013-09-20T19:39:29Z</time>
</trkpt>
<trkpt lat="38.22847884" lon="-1.12054446">
<ele>687</ele>
<time>2013-09-20T19:39:31Z</time>
</trkpt>
<trkpt lat="38.22846435" lon="-1.12042518">
<ele>687</ele>
<time>2013-09-20T19:39:33Z</time>
</trkpt>
<trkpt lat="38.22843015" lon="-1.1203379">
<ele>687</ele>
<time>2013-09-20T19:39:35Z</time>
</trkpt>
<trkpt lat="38.22839649" lon="-1.12024345">
<ele>684</ele>
<time>2013-09-20T19:39:37Z</time>
</trkpt>
<trkpt lat="38.22840818" lon="-1.12014898">
<ele>680</ele>
<time>2013-09-20T19:39:39Z</time>
</trkpt>
<trkpt lat="38.22847126" lon="-1.12003461">
<ele>678</ele>
<time>2013-09-20T19:39:41Z</time>
</trkpt>
<trkpt lat="38.22855174" lon="-1.11995416">
<ele>677</ele>
<time>2013-09-20T19:39:43Z</time>
</trkpt>
<trkpt lat="38.2286353" lon="-1.11989052">
<ele>676</ele>
<time>2013-09-20T19:39:45Z</time>
</trkpt>
<trkpt lat="38.22873044" lon="-1.11980051">
<ele>675</ele>
<time>2013-09-20T19:39:47Z</time>
</trkpt>
<trkpt lat="38.22879908" lon="-1.11970052">
<ele>676</ele>
<time>2013-09-20T19:39:49Z</time>
</trkpt>
<trkpt lat="38.22888395" lon="-1.11954392">
<ele>673</ele>
<time>2013-09-20T19:39:51Z</time>
</trkpt>
<trkpt lat="38.22894006" lon="-1.1194678">
<ele>672</ele>
<time>2013-09-20T19:39:53Z</time>
</trkpt>
<trkpt lat="38.22904509" lon="-1.11939756">
<ele>671</ele>
<time>2013-09-20T19:39:55Z</time>
</trkpt>
<trkpt lat="38.22912873" lon="-1.1192967">
<ele>669</ele>
<time>2013-09-20T19:39:57Z</time>
</trkpt>
<trkpt lat="38.2291894" lon="-1.11914976">
<ele>669</ele>
<time>2013-09-20T19:39:59Z</time>
</trkpt>
<trkpt lat="38.2292367" lon="-1.11905347">
<ele>668</ele>
<time>2013-09-20T19:40:01Z</time>
</trkpt>
<trkpt lat="38.22928404" lon="-1.11899743">
<ele>669</ele>
<time>2013-09-20T19:40:03Z</time>
</trkpt>
<trkpt lat="38.22937826" lon="-1.1188603">
<ele>670</ele>
<time>2013-09-20T19:40:05Z</time>
</trkpt>
<trkpt lat="38.22942171" lon="-1.11874259">
<ele>669</ele>
<time>2013-09-20T19:40:07Z</time>
</trkpt>
<trkpt lat="38.22946206" lon="-1.11864981">
<ele>667</ele>
<time>2013-09-20T19:40:09Z</time>
</trkpt>
<trkpt lat="38.22952439" lon="-1.11853935">
<ele>665</ele>
<time>2013-09-20T19:40:11Z</time>
</trkpt>
<trkpt lat="38.22960324" lon="-1.11844331">
<ele>661</ele>
<time>2013-09-20T19:40:13Z</time>
</trkpt>
<trkpt lat="38.22968604" lon="-1.11834248">
<ele>658</ele>
<time>2013-09-20T19:40:15Z</time>
</trkpt>
<trkpt lat="38.22976107" lon="-1.11823481">
<ele>653</ele>
<time>2013-09-20T19:40:17Z</time>
</trkpt>
<trkpt lat="38.22984406" lon="-1.11810359">
<ele>652</ele>
<time>2013-09-20T19:40:19Z</time>
</trkpt>
<trkpt lat="38.22990494" lon="-1.11800084">
<ele>652</ele>
<time>2013-09-20T19:40:21Z</time>
</trkpt>
<trkpt lat="38.22996204" lon="-1.11791526">
<ele>652</ele>
<time>2013-09-20T19:40:23Z</time>
</trkpt>
<trkpt lat="38.23001707" lon="-1.1177654">
<ele>651</ele>
<time>2013-09-20T19:40:25Z</time>
</trkpt>
<trkpt lat="38.23006908" lon="-1.11766195">
<ele>651</ele>
<time>2013-09-20T19:40:27Z</time>
</trkpt>
<trkpt lat="38.23007818" lon="-1.11751916">
<ele>650</ele>
<time>2013-09-20T19:40:29Z</time>
</trkpt>
<trkpt lat="38.23006931" lon="-1.11736784">
<ele>649</ele>
<time>2013-09-20T19:40:31Z</time>
</trkpt>
<trkpt lat="38.23004856" lon="-1.11727216">
<ele>649</ele>
<time>2013-09-20T19:40:33Z</time>
</trkpt>
<trkpt lat="38.23007999" lon="-1.11712236">
<ele>649</ele>
<time>2013-09-20T19:40:35Z</time>
</trkpt>
<trkpt lat="38.23013088" lon="-1.11703966">
<ele>647</ele>
<time>2013-09-20T19:40:37Z</time>
</trkpt>
<trkpt lat="38.23021037" lon="-1.11692226">
<ele>643</ele>
<time>2013-09-20T19:40:39Z</time>
</trkpt>
<trkpt lat="38.23027711" lon="-1.11678306">
<ele>643</ele>
<time>2013-09-20T19:40:41Z</time>
</trkpt>
<trkpt lat="38.230387" lon="-1.11667">
<ele>637</ele>
<time>2013-09-20T19:40:43Z</time>
</trkpt>
<trkpt lat="38.2304608" lon="-1.11654599">
<ele>639</ele>
<time>2013-09-20T19:40:45Z</time>
</trkpt>
<trkpt lat="38.23051488" lon="-1.11646573">
<ele>637</ele>
<time>2013-09-20T19:40:47Z</time>
</trkpt>
<trkpt lat="38.23059331" lon="-1.11635321">
<ele>636</ele>
<time>2013-09-20T19:40:49Z</time>
</trkpt>
<trkpt lat="38.23065236" lon="-1.11625477">
<ele>634</ele>
<time>2013-09-20T19:40:51Z</time>
</trkpt>
<trkpt lat="38.23070679" lon="-1.11615832">
<ele>632</ele>
<time>2013-09-20T19:40:53Z</time>
</trkpt>
<trkpt lat="38.23078026" lon="-1.11606133">
<ele>630</ele>
<time>2013-09-20T19:40:55Z</time>
</trkpt>
<trkpt lat="38.23084001" lon="-1.11597816">
<ele>632</ele>
<time>2013-09-20T19:40:57Z</time>
</trkpt>
<trkpt lat="38.23087178" lon="-1.11586083">
<ele>631</ele>
<time>2013-09-20T19:40:59Z</time>
</trkpt>
<trkpt lat="38.23093779" lon="-1.11575233">
<ele>630</ele>
<time>2013-09-20T19:41:01Z</time>
</trkpt>
<trkpt lat="38.23099057" lon="-1.11562321">
<ele>630</ele>
<time>2013-09-20T19:41:03Z</time>
</trkpt>
<trkpt lat="38.2310166" lon="-1.11553437">
<ele>630</ele>
<time>2013-09-20T19:41:05Z</time>
</trkpt>
<trkpt lat="38.2311005" lon="-1.11547448">
<ele>629</ele>
<time>2013-09-20T19:41:07Z</time>
</trkpt>
<trkpt lat="38.23115015" lon="-1.11537382">
<ele>628</ele>
<time>2013-09-20T19:41:09Z</time>
</trkpt>
<trkpt lat="38.23118136" lon="-1.11524014">
<ele>627</ele>
<time>2013-09-20T19:41:11Z</time>
</trkpt>
<trkpt lat="38.23121431" lon="-1.11515531">
<ele>625</ele>
<time>2013-09-20T19:41:13Z</time>
</trkpt>
<trkpt lat="38.23125761" lon="-1.11503925">
<ele>627</ele>
<time>2013-09-20T19:41:15Z</time>
</trkpt>
<trkpt lat="38.23127785" lon="-1.11492707">
<ele>626</ele>
<time>2013-09-20T19:41:17Z</time>
</trkpt>
<trkpt lat="38.23126136" lon="-1.11481644">
<ele>626</ele>
<time>2013-09-20T19:41:19Z</time>
</trkpt>
<trkpt lat="38.23131412" lon="-1.11470854">
<ele>627</ele>
<time>2013-09-20T19:41:21Z</time>
</trkpt>
<trkpt lat="38.23135077" lon="-1.11462489">
<ele>628</ele>
<time>2013-09-20T19:41:23Z</time>
</trkpt>
<trkpt lat="38.23141201" lon="-1.11456607">
<ele>627</ele>
<time>2013-09-20T19:41:25Z</time>
</trkpt>
<trkpt lat="38.23143895" lon="-1.11448643">
<ele>627</ele>
<time>2013-09-20T19:41:27Z</time>
</trkpt>
<trkpt lat="38.23146256" lon="-1.11435252">
<ele>628</ele>
<time>2013-09-20T19:41:29Z</time>
</trkpt>
<trkpt lat="38.2314839" lon="-1.1143001">
<ele>631</ele>
<time>2013-09-20T19:41:31Z</time>
</trkpt>
<trkpt lat="38.23148615" lon="-1.1142105">
<ele>631</ele>
<time>2013-09-20T19:41:33Z</time>
</trkpt>
<trkpt lat="38.23152328" lon="-1.1140781">
<ele>630</ele>
<time>2013-09-20T19:41:35Z</time>
</trkpt>
<trkpt lat="38.23155807" lon="-1.11393977">
<ele>633</ele>
<time>2013-09-20T19:41:37Z</time>
</trkpt>
<trkpt lat="38.23158761" lon="-1.1138277">
<ele>632</ele>
<time>2013-09-20T19:41:39Z</time>
</trkpt>
<trkpt lat="38.23160486" lon="-1.11374733">
<ele>633</ele>
<time>2013-09-20T19:41:41Z</time>
</trkpt>
<trkpt lat="38.23163195" lon="-1.11362555">
<ele>633</ele>
<time>2013-09-20T19:41:43Z</time>
</trkpt>
<trkpt lat="38.23167121" lon="-1.11352454">
<ele>635</ele>
<time>2013-09-20T19:41:45Z</time>
</trkpt>
<trkpt lat="38.23168188" lon="-1.11342769">
<ele>632</ele>
<time>2013-09-20T19:41:47Z</time>
</trkpt>
<trkpt lat="38.23171524" lon="-1.11333057">
<ele>628</ele>
<time>2013-09-20T19:41:49Z</time>
</trkpt>
<trkpt lat="38.23176009" lon="-1.11320231">
<ele>626</ele>
<time>2013-09-20T19:41:51Z</time>
</trkpt>
<trkpt lat="38.23177335" lon="-1.11314183">
<ele>628</ele>
<time>2013-09-20T19:41:53Z</time>
</trkpt>
<trkpt lat="38.23182571" lon="-1.11305271">
<ele>625</ele>
<time>2013-09-20T19:41:55Z</time>
</trkpt>
<trkpt lat="38.23188806" lon="-1.11294299">
<ele>626</ele>
<time>2013-09-20T19:41:57Z</time>
</trkpt>
<trkpt lat="38.23194606" lon="-1.11285991">
<ele>629</ele>
<time>2013-09-20T19:41:59Z</time>
</trkpt>
<trkpt lat="38.232011" lon="-1.11278454">
<ele>629</ele>
<time>2013-09-20T19:42:01Z</time>
</trkpt>
<trkpt lat="38.2320467" lon="-1.11268112">
<ele>628</ele>
<time>2013-09-20T19:42:03Z</time>
</trkpt>
<trkpt lat="38.23208293" lon="-1.11258033">
<ele>626</ele>
<time>2013-09-20T19:42:05Z</time>
</trkpt>
<trkpt lat="38.23212341" lon="-1.11247748">
<ele>626</ele>
<time>2013-09-20T19:42:07Z</time>
</trkpt>
<trkpt lat="38.23216992" lon="-1.11239797">
<ele>626</ele>
<time>2013-09-20T19:42:09Z</time>
</trkpt>
<trkpt lat="38.23221554" lon="-1.11234004">
<ele>627</ele>
<time>2013-09-20T19:42:11Z</time>
</trkpt>
<trkpt lat="38.23226048" lon="-1.11222934">
<ele>628</ele>
<time>2013-09-20T19:42:13Z</time>
</trkpt>
<trkpt lat="38.23231132" lon="-1.11214194">
<ele>629</ele>
<time>2013-09-20T19:42:15Z</time>
</trkpt>
<trkpt lat="38.23235303" lon="-1.11204671">
<ele>629</ele>
<time>2013-09-20T19:42:17Z</time>
</trkpt>
<trkpt lat="38.2323924" lon="-1.11194485">
<ele>630</ele>
<time>2013-09-20T19:42:19Z</time>
</trkpt>
<trkpt lat="38.23244472" lon="-1.11184867">
<ele>633</ele>
<time>2013-09-20T19:42:21Z</time>
</trkpt>
<trkpt lat="38.23246362" lon="-1.11177429">
<ele>633</ele>
<time>2013-09-20T19:42:23Z</time>
</trkpt>
<trkpt lat="38.23250481" lon="-1.11168028">
<ele>635</ele>
<time>2013-09-20T19:42:25Z</time>
</trkpt>
<trkpt lat="38.23256738" lon="-1.11159787">
<ele>636</ele>
<time>2013-09-20T19:42:27Z</time>
</trkpt>
<trkpt lat="38.23260894" lon="-1.11150111">
<ele>637</ele>
<time>2013-09-20T19:42:29Z</time>
</trkpt>
<trkpt lat="38.23268018" lon="-1.11137453">
<ele>637</ele>
<time>2013-09-20T19:42:31Z</time>
</trkpt>
<trkpt lat="38.23269547" lon="-1.11123828">
<ele>636</ele>
<time>2013-09-20T19:42:33Z</time>
</trkpt>
<trkpt lat="38.2327233" lon="-1.11118848">
<ele>638</ele>
<time>2013-09-20T19:42:35Z</time>
</trkpt>
<trkpt lat="38.23279607" lon="-1.11107139">
<ele>638</ele>
<time>2013-09-20T19:42:37Z</time>
</trkpt>
<trkpt lat="38.23286865" lon="-1.11097287">
<ele>638</ele>
<time>2013-09-20T19:42:39Z</time>
</trkpt>
<trkpt lat="38.23294129" lon="-1.11089743">
<ele>637</ele>
<time>2013-09-20T19:42:41Z</time>
</trkpt>
<trkpt lat="38.23303943" lon="-1.11080916">
<ele>637</ele>
<time>2013-09-20T19:42:43Z</time>
</trkpt>
<trkpt lat="38.23313227" lon="-1.11069491">
<ele>635</ele>
<time>2013-09-20T19:42:45Z</time>
</trkpt>
<trkpt lat="38.23319889" lon="-1.11060467">
<ele>635</ele>
<time>2013-09-20T19:42:47Z</time>
</trkpt>
<trkpt lat="38.23320531" lon="-1.11055386">
<ele>634</ele>
<time>2013-09-20T19:42:49Z</time>
</trkpt>
<trkpt lat="38.23330611" lon="-1.11045157">
<ele>629</ele>
<time>2013-09-20T19:42:51Z</time>
</trkpt>
<trkpt lat="38.23339707" lon="-1.11037744">
<ele>628</ele>
<time>2013-09-20T19:42:53Z</time>
</trkpt>
<trkpt lat="38.23347069" lon="-1.11028789">
<ele>629</ele>
<time>2013-09-20T19:42:55Z</time>
</trkpt>
<trkpt lat="38.23355978" lon="-1.1102322">
<ele>627</ele>
<time>2013-09-20T19:42:57Z</time>
</trkpt>
<trkpt lat="38.23366816" lon="-1.11014067">
<ele>626</ele>
<time>2013-09-20T19:42:59Z</time>
</trkpt>
<trkpt lat="38.23376283" lon="-1.11010225">
<ele>626</ele>
<time>2013-09-20T19:43:01Z</time>
</trkpt>
<trkpt lat="38.23385309" lon="-1.11003476">
<ele>627</ele>
<time>2013-09-20T19:43:03Z</time>
</trkpt>
<trkpt lat="38.23396058" lon="-1.10996721">
<ele>624</ele>
<time>2013-09-20T19:43:05Z</time>
</trkpt>
<trkpt lat="38.23407506" lon="-1.10989239">
<ele>621</ele>
<time>2013-09-20T19:43:07Z</time>
</trkpt>
<trkpt lat="38.23419534" lon="-1.10980641">
<ele>622</ele>
<time>2013-09-20T19:43:09Z</time>
</trkpt>
<trkpt lat="38.2342895" lon="-1.10975367">
<ele>622</ele>
<time>2013-09-20T19:43:11Z</time>
</trkpt>
<trkpt lat="38.23440651" lon="-1.10968524">
<ele>624</ele>
<time>2013-09-20T19:43:13Z</time>
</trkpt>
<trkpt lat="38.23450386" lon="-1.10962815">
<ele>624</ele>
<time>2013-09-20T19:43:15Z</time>
</trkpt>
<trkpt lat="38.23461543" lon="-1.10957607">
<ele>623</ele>
<time>2013-09-20T19:43:17Z</time>
</trkpt>
<trkpt lat="38.23473013" lon="-1.10950978">
<ele>624</ele>
<time>2013-09-20T19:43:19Z</time>
</trkpt>
<trkpt lat="38.23481656" lon="-1.10944121">
<ele>624</ele>
<time>2013-09-20T19:43:21Z</time>
</trkpt>
<trkpt lat="38.23489607" lon="-1.10935436">
<ele>625</ele>
<time>2013-09-20T19:43:23Z</time>
</trkpt>
<trkpt lat="38.23492566" lon="-1.10927493">
<ele>624</ele>
<time>2013-09-20T19:43:25Z</time>
</trkpt>
<trkpt lat="38.23496653" lon="-1.10918657">
<ele>626</ele>
<time>2013-09-20T19:43:27Z</time>
</trkpt>
<trkpt lat="38.23503303" lon="-1.10907634">
<ele>625</ele>
<time>2013-09-20T19:43:29Z</time>
</trkpt>
<trkpt lat="38.23505722" lon="-1.10897105">
<ele>628</ele>
<time>2013-09-20T19:43:31Z</time>
</trkpt>
<trkpt lat="38.23507594" lon="-1.10883395">
<ele>628</ele>
<time>2013-09-20T19:43:33Z</time>
</trkpt>
<trkpt lat="38.23510919" lon="-1.10871022">
<ele>628</ele>
<time>2013-09-20T19:43:35Z</time>
</trkpt>
<trkpt lat="38.23515249" lon="-1.10859774">
<ele>628</ele>
<time>2013-09-20T19:43:37Z</time>
</trkpt>
<trkpt lat="38.23527857" lon="-1.10852986">
<ele>625</ele>
<time>2013-09-20T19:43:39Z</time>
</trkpt>
<trkpt lat="38.23540629" lon="-1.10847349">
<ele>627</ele>
<time>2013-09-20T19:43:41Z</time>
</trkpt>
<trkpt lat="38.23553359" lon="-1.10840996">
<ele>629</ele>
<time>2013-09-20T19:43:43Z</time>
</trkpt>
<trkpt lat="38.23563287" lon="-1.10833431">
<ele>628</ele>
<time>2013-09-20T19:43:45Z</time>
</trkpt>
<trkpt lat="38.23573309" lon="-1.10826919">
<ele>626</ele>
<time>2013-09-20T19:43:47Z</time>
</trkpt>
<trkpt lat="38.23581448" lon="-1.1081934">
<ele>628</ele>
<time>2013-09-20T19:43:49Z</time>
</trkpt>
<trkpt lat="38.23586829" lon="-1.10810796">
<ele>627</ele>
<time>2013-09-20T19:43:51Z</time>
</trkpt>
<trkpt lat="38.23593673" lon="-1.10800751">
<ele>627</ele>
<time>2013-09-20T19:43:53Z</time>
</trkpt>
<trkpt lat="38.23598024" lon="-1.1079321">
<ele>627</ele>
<time>2013-09-20T19:43:55Z</time>
</trkpt>
<trkpt lat="38.23602907" lon="-1.10783309">
<ele>629</ele>
<time>2013-09-20T19:43:57Z</time>
</trkpt>
<trkpt lat="38.23610474" lon="-1.10776634">
<ele>629</ele>
<time>2013-09-20T19:43:59Z</time>
</trkpt>
<trkpt lat="38.23614516" lon="-1.10773194">
<ele>629</ele>
<time>2013-09-20T19:44:01Z</time>
</trkpt>
<trkpt lat="38.23623947" lon="-1.10768411">
<ele>628</ele>
<time>2013-09-20T19:44:03Z</time>
</trkpt>
<trkpt lat="38.23626284" lon="-1.10759672">
<ele>628</ele>
<time>2013-09-20T19:44:05Z</time>
</trkpt>
<trkpt lat="38.23631823" lon="-1.10749796">
<ele>628</ele>
<time>2013-09-20T19:44:07Z</time>
</trkpt>
<trkpt lat="38.23634358" lon="-1.10740341">
<ele>628</ele>
<time>2013-09-20T19:44:09Z</time>
</trkpt>
<trkpt lat="38.23627547" lon="-1.1073571">
<ele>624</ele>
<time>2013-09-20T19:44:11Z</time>
</trkpt>
<trkpt lat="38.23612586" lon="-1.1073388">
<ele>623</ele>
<time>2013-09-20T19:44:13Z</time>
</trkpt>
<trkpt lat="38.23598269" lon="-1.10744051">
<ele>622</ele>
<time>2013-09-20T19:44:15Z</time>
</trkpt>
<trkpt lat="38.23588278" lon="-1.10762913">
<ele>622</ele>
<time>2013-09-20T19:44:17Z</time>
</trkpt>
<trkpt lat="38.23582837" lon="-1.1078806">
<ele>631</ele>
<time>2013-09-20T19:44:19Z</time>
</trkpt>
<trkpt lat="38.23577977" lon="-1.10817884">
<ele>638</ele>
<time>2013-09-20T19:44:21Z</time>
</trkpt>
<trkpt lat="38.23571329" lon="-1.10847672">
<ele>639</ele>
<time>2013-09-20T19:44:23Z</time>
</trkpt>
<trkpt lat="38.23569291" lon="-1.10876891">
<ele>645</ele>
<time>2013-09-20T19:44:25Z</time>
</trkpt>
<trkpt lat="38.23562077" lon="-1.10905287">
<ele>644</ele>
<time>2013-09-20T19:44:27Z</time>
</trkpt>
<trkpt lat="38.23553331" lon="-1.10931037">
<ele>641</ele>
<time>2013-09-20T19:44:29Z</time>
</trkpt>
<trkpt lat="38.23546257" lon="-1.10957037">
<ele>641</ele>
<time>2013-09-20T19:44:31Z</time>
</trkpt>
<trkpt lat="38.23536613" lon="-1.10981893">
<ele>637</ele>
<time>2013-09-20T19:44:33Z</time>
</trkpt>
<trkpt lat="38.23520896" lon="-1.10998558">
<ele>638</ele>
<time>2013-09-20T19:44:35Z</time>
</trkpt>
<trkpt lat="38.23506047" lon="-1.11004007">
<ele>636</ele>
<time>2013-09-20T19:44:37Z</time>
</trkpt>
<trkpt lat="38.23495761" lon="-1.10999173">
<ele>634</ele>
<time>2013-09-20T19:44:39Z</time>
</trkpt>
<trkpt lat="38.2349122" lon="-1.10991242">
<ele>631</ele>
<time>2013-09-20T19:44:41Z</time>
</trkpt>
<trkpt lat="38.23493847" lon="-1.10982545">
<ele>629</ele>
<time>2013-09-20T19:44:43Z</time>
</trkpt>
<trkpt lat="38.23501355" lon="-1.10974154">
<ele>630</ele>
<time>2013-09-20T19:44:45Z</time>
</trkpt>
<trkpt lat="38.2350973" lon="-1.10965579">
<ele>629</ele>
<time>2013-09-20T19:44:47Z</time>
</trkpt>
<trkpt lat="38.23519837" lon="-1.10955953">
<ele>629</ele>
<time>2013-09-20T19:44:49Z</time>
</trkpt>
<trkpt lat="38.23528849" lon="-1.10947518">
<ele>629</ele>
<time>2013-09-20T19:44:51Z</time>
</trkpt>
<trkpt lat="38.23536729" lon="-1.10942001">
<ele>628</ele>
<time>2013-09-20T19:44:53Z</time>
</trkpt>
<trkpt lat="38.23545741" lon="-1.10934925">
<ele>627</ele>
<time>2013-09-20T19:44:55Z</time>
</trkpt>
<trkpt lat="38.23554712" lon="-1.109271">
<ele>625</ele>
<time>2013-09-20T19:44:57Z</time>
</trkpt>
<trkpt lat="38.23563957" lon="-1.10921317">
<ele>625</ele>
<time>2013-09-20T19:44:59Z</time>
</trkpt>
<trkpt lat="38.23573127" lon="-1.10913576">
<ele>622</ele>
<time>2013-09-20T19:45:01Z</time>
</trkpt>
<trkpt lat="38.23581259" lon="-1.10906319">
<ele>620</ele>
<time>2013-09-20T19:45:03Z</time>
</trkpt>
<trkpt lat="38.23588426" lon="-1.10896103">
<ele>622</ele>
<time>2013-09-20T19:45:05Z</time>
</trkpt>
<trkpt lat="38.23597606" lon="-1.108891">
<ele>622</ele>
<time>2013-09-20T19:45:07Z</time>
</trkpt>
<trkpt lat="38.23604196" lon="-1.10881807">
<ele>623</ele>
<time>2013-09-20T19:45:09Z</time>
</trkpt>
<trkpt lat="38.23611361" lon="-1.10876238">
<ele>623</ele>
<time>2013-09-20T19:45:11Z</time>
</trkpt>
<trkpt lat="38.23615647" lon="-1.10865544">
<ele>623</ele>
<time>2013-09-20T19:45:13Z</time>
</trkpt>
<trkpt lat="38.23620485" lon="-1.1085773">
<ele>622</ele>
<time>2013-09-20T19:45:15Z</time>
</trkpt>
<trkpt lat="38.23625079" lon="-1.10851132">
<ele>622</ele>
<time>2013-09-20T19:45:17Z</time>
</trkpt>
<trkpt lat="38.23630925" lon="-1.10844437">
<ele>623</ele>
<time>2013-09-20T19:45:19Z</time>
</trkpt>
<trkpt lat="38.23635552" lon="-1.10836159">
<ele>623</ele>
<time>2013-09-20T19:45:21Z</time>
</trkpt>
<trkpt lat="38.23640869" lon="-1.10828648">
<ele>624</ele>
<time>2013-09-20T19:45:23Z</time>
</trkpt>
<trkpt lat="38.23644914" lon="-1.10817118">
<ele>626</ele>
<time>2013-09-20T19:45:25Z</time>
</trkpt>
<trkpt lat="38.236492" lon="-1.10809735">
<ele>625</ele>
<time>2013-09-20T19:45:27Z</time>
</trkpt>
<trkpt lat="38.23654231" lon="-1.10801489">
<ele>624</ele>
<time>2013-09-20T19:45:29Z</time>
</trkpt>
<trkpt lat="38.2365807" lon="-1.1079223">
<ele>622</ele>
<time>2013-09-20T19:45:31Z</time>
</trkpt>
<trkpt lat="38.23664036" lon="-1.10782102">
<ele>624</ele>
<time>2013-09-20T19:45:33Z</time>
</trkpt>
<trkpt lat="38.23666901" lon="-1.10773845">
<ele>625</ele>
<time>2013-09-20T19:45:35Z</time>
</trkpt>
<trkpt lat="38.23671528" lon="-1.10766001">
<ele>626</ele>
<time>2013-09-20T19:45:37Z</time>
</trkpt>
<trkpt lat="38.23678021" lon="-1.10757829">
<ele>625</ele>
<time>2013-09-20T19:45:39Z</time>
</trkpt>
<trkpt lat="38.23683947" lon="-1.10747998">
<ele>625</ele>
<time>2013-09-20T19:45:41Z</time>
</trkpt>
<trkpt lat="38.23693607" lon="-1.10739555">
<ele>625</ele>
<time>2013-09-20T19:45:43Z</time>
</trkpt>
<trkpt lat="38.23700872" lon="-1.10729475">
<ele>626</ele>
<time>2013-09-20T19:45:45Z</time>
</trkpt>
<trkpt lat="38.23711275" lon="-1.10717952">
<ele>627</ele>
<time>2013-09-20T19:45:47Z</time>
</trkpt>
<trkpt lat="38.23716937" lon="-1.10708064">
<ele>626</ele>
<time>2013-09-20T19:45:49Z</time>
</trkpt>
<trkpt lat="38.23723765" lon="-1.10701203">
<ele>625</ele>
<time>2013-09-20T19:45:51Z</time>
</trkpt>
<trkpt lat="38.23729575" lon="-1.10693909">
<ele>624</ele>
<time>2013-09-20T19:45:53Z</time>
</trkpt>
<trkpt lat="38.23737405" lon="-1.10685512">
<ele>624</ele>
<time>2013-09-20T19:45:55Z</time>
</trkpt>
<trkpt lat="38.23743517" lon="-1.10678561">
<ele>625</ele>
<time>2013-09-20T19:45:57Z</time>
</trkpt>
<trkpt lat="38.2374994" lon="-1.10670281">
<ele>626</ele>
<time>2013-09-20T19:45:59Z</time>
</trkpt>
<trkpt lat="38.23751939" lon="-1.10660254">
<ele>627</ele>
<time>2013-09-20T19:46:01Z</time>
</trkpt>
<trkpt lat="38.23753121" lon="-1.10651259">
<ele>624</ele>
<time>2013-09-20T19:46:03Z</time>
</trkpt>
<trkpt lat="38.23753535" lon="-1.10643124">
<ele>623</ele>
<time>2013-09-20T19:46:05Z</time>
</trkpt>
<trkpt lat="38.23745427" lon="-1.10634768">
<ele>622</ele>
<time>2013-09-20T19:46:07Z</time>
</trkpt>
<trkpt lat="38.23735771" lon="-1.10634755">
<ele>620</ele>
<time>2013-09-20T19:46:09Z</time>
</trkpt>
<trkpt lat="38.23722484" lon="-1.10636121">
<ele>620</ele>
<time>2013-09-20T19:46:11Z</time>
</trkpt>
<trkpt lat="38.23713567" lon="-1.10645837">
<ele>622</ele>
<time>2013-09-20T19:46:13Z</time>
</trkpt>
<trkpt lat="38.2370031" lon="-1.10656712">
<ele>621</ele>
<time>2013-09-20T19:46:15Z</time>
</trkpt>
<trkpt lat="38.23684721" lon="-1.10677641">
<ele>618</ele>
<time>2013-09-20T19:46:17Z</time>
</trkpt>
<trkpt lat="38.23670457" lon="-1.10696566">
<ele>618</ele>
<time>2013-09-20T19:46:19Z</time>
</trkpt>
<trkpt lat="38.23659579" lon="-1.10713718">
<ele>618</ele>
<time>2013-09-20T19:46:21Z</time>
</trkpt>
<trkpt lat="38.23650235" lon="-1.10735647">
<ele>618</ele>
<time>2013-09-20T19:46:23Z</time>
</trkpt>
<trkpt lat="38.23639553" lon="-1.10757484">
<ele>619</ele>
<time>2013-09-20T19:46:25Z</time>
</trkpt>
<trkpt lat="38.23628275" lon="-1.10780445">
<ele>620</ele>
<time>2013-09-20T19:46:27Z</time>
</trkpt>
<trkpt lat="38.23621191" lon="-1.10806452">
<ele>626</ele>
<time>2013-09-20T19:46:29Z</time>
</trkpt>
<trkpt lat="38.23611692" lon="-1.10830239">
<ele>626</ele>
<time>2013-09-20T19:46:31Z</time>
</trkpt>
<trkpt lat="38.23605504" lon="-1.10858593">
<ele>629</ele>
<time>2013-09-20T19:46:33Z</time>
</trkpt>
<trkpt lat="38.23596314" lon="-1.10884083">
<ele>629</ele>
<time>2013-09-20T19:46:35Z</time>
</trkpt>
<trkpt lat="38.23590959" lon="-1.10910052">
<ele>632</ele>
<time>2013-09-20T19:46:37Z</time>
</trkpt>
<trkpt lat="38.23577716" lon="-1.10934648">
<ele>631</ele>
<time>2013-09-20T19:46:39Z</time>
</trkpt>
<trkpt lat="38.23566196" lon="-1.10956005">
<ele>631</ele>
<time>2013-09-20T19:46:41Z</time>
</trkpt>
<trkpt lat="38.23553547" lon="-1.10977353">
<ele>631</ele>
<time>2013-09-20T19:46:43Z</time>
</trkpt>
<trkpt lat="38.23540353" lon="-1.10993646">
<ele>631</ele>
<time>2013-09-20T19:46:45Z</time>
</trkpt>
<trkpt lat="38.23523787" lon="-1.11010706">
<ele>630</ele>
<time>2013-09-20T19:46:47Z</time>
</trkpt>
<trkpt lat="38.23510101" lon="-1.11026832">
<ele>629</ele>
<time>2013-09-20T19:46:49Z</time>
</trkpt>
<trkpt lat="38.23494648" lon="-1.11042137">
<ele>628</ele>
<time>2013-09-20T19:46:51Z</time>
</trkpt>
<trkpt lat="38.23481615" lon="-1.11050284">
<ele>625</ele>
<time>2013-09-20T19:46:53Z</time>
</trkpt>
<trkpt lat="38.23470522" lon="-1.11052019">
<ele>620</ele>
<time>2013-09-20T19:46:55Z</time>
</trkpt>
<trkpt lat="38.23459273" lon="-1.11053303">
<ele>619</ele>
<time>2013-09-20T19:46:57Z</time>
</trkpt>
<trkpt lat="38.23454907" lon="-1.11044295">
<ele>618</ele>
<time>2013-09-20T19:46:59Z</time>
</trkpt>
<trkpt lat="38.23458705" lon="-1.11033868">
<ele>616</ele>
<time>2013-09-20T19:47:01Z</time>
</trkpt>
<trkpt lat="38.23467257" lon="-1.11027565">
<ele>614</ele>
<time>2013-09-20T19:47:03Z</time>
</trkpt>
<trkpt lat="38.23476671" lon="-1.11020539">
<ele>611</ele>
<time>2013-09-20T19:47:05Z</time>
</trkpt>
<trkpt lat="38.23486283" lon="-1.11012475">
<ele>610</ele>
<time>2013-09-20T19:47:07Z</time>
</trkpt>
<trkpt lat="38.23493498" lon="-1.11007227">
<ele>611</ele>
<time>2013-09-20T19:47:09Z</time>
</trkpt>
<trkpt lat="38.23501852" lon="-1.11001947">
<ele>610</ele>
<time>2013-09-20T19:47:11Z</time>
</trkpt>
<trkpt lat="38.23510349" lon="-1.10995207">
<ele>607</ele>
<time>2013-09-20T19:47:13Z</time>
</trkpt>
<trkpt lat="38.23517661" lon="-1.10986793">
<ele>606</ele>
<time>2013-09-20T19:47:15Z</time>
</trkpt>
<trkpt lat="38.23524693" lon="-1.10981177">
<ele>606</ele>
<time>2013-09-20T19:47:17Z</time>
</trkpt>
<trkpt lat="38.23531218" lon="-1.10971134">
<ele>605</ele>
<time>2013-09-20T19:47:19Z</time>
</trkpt>
<trkpt lat="38.2353947" lon="-1.10960961">
<ele>604</ele>
<time>2013-09-20T19:47:21Z</time>
</trkpt>
<trkpt lat="38.23546855" lon="-1.10951551">
<ele>604</ele>
<time>2013-09-20T19:47:23Z</time>
</trkpt>
<trkpt lat="38.23554024" lon="-1.10942455">
<ele>604</ele>
<time>2013-09-20T19:47:25Z</time>
</trkpt>
<trkpt lat="38.23561197" lon="-1.10931827">
<ele>603</ele>
<time>2013-09-20T19:47:27Z</time>
</trkpt>
<trkpt lat="38.23566861" lon="-1.10922641">
<ele>603</ele>
<time>2013-09-20T19:47:29Z</time>
</trkpt>
<trkpt lat="38.23559589" lon="-1.10917482">
<ele>603</ele>
<time>2013-09-20T19:47:31Z</time>
</trkpt>
<trkpt lat="38.23540107" lon="-1.10916601">
<ele>607</ele>
<time>2013-09-20T19:47:33Z</time>
</trkpt>
<trkpt lat="38.23524566" lon="-1.10921359">
<ele>603</ele>
<time>2013-09-20T19:47:35Z</time>
</trkpt>
<trkpt lat="38.23510393" lon="-1.1093225">
<ele>602</ele>
<time>2013-09-20T19:47:37Z</time>
</trkpt>
<trkpt lat="38.23496903" lon="-1.10944895">
<ele>602</ele>
<time>2013-09-20T19:47:39Z</time>
</trkpt>
<trkpt lat="38.23484104" lon="-1.10961433">
<ele>599</ele>
<time>2013-09-20T19:47:41Z</time>
</trkpt>
<trkpt lat="38.23471071" lon="-1.10975456">
<ele>599</ele>
<time>2013-09-20T19:47:43Z</time>
</trkpt>
<trkpt lat="38.23456202" lon="-1.10998106">
<ele>598</ele>
<time>2013-09-20T19:47:45Z</time>
</trkpt>
<trkpt lat="38.23444767" lon="-1.11013077">
<ele>599</ele>
<time>2013-09-20T19:47:47Z</time>
</trkpt>
<trkpt lat="38.23431151" lon="-1.11031156">
<ele>600</ele>
<time>2013-09-20T19:47:49Z</time>
</trkpt>
<trkpt lat="38.2341842" lon="-1.11045578">
<ele>601</ele>
<time>2013-09-20T19:47:51Z</time>
</trkpt>
<trkpt lat="38.23407415" lon="-1.11062277">
<ele>599</ele>
<time>2013-09-20T19:47:53Z</time>
</trkpt>
<trkpt lat="38.23392918" lon="-1.11078079">
<ele>598</ele>
<time>2013-09-20T19:47:55Z</time>
</trkpt>
<trkpt lat="38.23381069" lon="-1.11093063">
<ele>600</ele>
<time>2013-09-20T19:47:57Z</time>
</trkpt>
<trkpt lat="38.2336659" lon="-1.11107789">
<ele>600</ele>
<time>2013-09-20T19:47:59Z</time>
</trkpt>
<trkpt lat="38.23352074" lon="-1.1112463">
<ele>599</ele>
<time>2013-09-20T19:48:01Z</time>
</trkpt>
<trkpt lat="38.23338389" lon="-1.11142969">
<ele>600</ele>
<time>2013-09-20T19:48:03Z</time>
</trkpt>
<trkpt lat="38.23326283" lon="-1.11161374">
<ele>598</ele>
<time>2013-09-20T19:48:05Z</time>
</trkpt>
<trkpt lat="38.23315077" lon="-1.11180789">
<ele>599</ele>
<time>2013-09-20T19:48:07Z</time>
</trkpt>
<trkpt lat="38.23302998" lon="-1.11198335">
<ele>600</ele>
<time>2013-09-20T19:48:09Z</time>
</trkpt>
<trkpt lat="38.23291467" lon="-1.11214042">
<ele>601</ele>
<time>2013-09-20T19:48:11Z</time>
</trkpt>
<trkpt lat="38.23276015" lon="-1.11224696">
<ele>601</ele>
<time>2013-09-20T19:48:13Z</time>
</trkpt>
<trkpt lat="38.23261618" lon="-1.11233842">
<ele>602</ele>
<time>2013-09-20T19:48:15Z</time>
</trkpt>
<trkpt lat="38.23247422" lon="-1.11241298">
<ele>603</ele>
<time>2013-09-20T19:48:17Z</time>
</trkpt>
<trkpt lat="38.23231497" lon="-1.11241896">
<ele>604</ele>
<time>2013-09-20T19:48:19Z</time>
</trkpt>
<trkpt lat="38.23218993" lon="-1.11244757">
<ele>606</ele>
<time>2013-09-20T19:48:21Z</time>
</trkpt>
<trkpt lat="38.23207754" lon="-1.11244377">
<ele>603</ele>
<time>2013-09-20T19:48:23Z</time>
</trkpt>
<trkpt lat="38.23195588" lon="-1.11241346">
<ele>603</ele>
<time>2013-09-20T19:48:25Z</time>
</trkpt>
<trkpt lat="38.23188433" lon="-1.11233105">
<ele>603</ele>
<time>2013-09-20T19:48:27Z</time>
</trkpt>
<trkpt lat="38.23186122" lon="-1.11223642">
<ele>605</ele>
<time>2013-09-20T19:48:29Z</time>
</trkpt>
<trkpt lat="38.23184947" lon="-1.11215172">
<ele>604</ele>
<time>2013-09-20T19:48:31Z</time>
</trkpt>
<trkpt lat="38.2319046" lon="-1.11206583">
<ele>603</ele>
<time>2013-09-20T19:48:33Z</time>
</trkpt>
<trkpt lat="38.23200639" lon="-1.11198053">
<ele>603</ele>
<time>2013-09-20T19:48:35Z</time>
</trkpt>
<trkpt lat="38.23210402" lon="-1.11190928">
<ele>603</ele>
<time>2013-09-20T19:48:37Z</time>
</trkpt>
<trkpt lat="38.23221941" lon="-1.11189388">
<ele>604</ele>
<time>2013-09-20T19:48:39Z</time>
</trkpt>
<trkpt lat="38.23234027" lon="-1.11186762">
<ele>604</ele>
<time>2013-09-20T19:48:41Z</time>
</trkpt>
<trkpt lat="38.2324815" lon="-1.11190081">
<ele>601</ele>
<time>2013-09-20T19:48:43Z</time>
</trkpt>
<trkpt lat="38.23263195" lon="-1.11204448">
<ele>601</ele>
<time>2013-09-20T19:48:45Z</time>
</trkpt>
<trkpt lat="38.23277018" lon="-1.11222094">
<ele>598</ele>
<time>2013-09-20T19:48:47Z</time>
</trkpt>
<trkpt lat="38.23286841" lon="-1.11243394">
<ele>601</ele>
<time>2013-09-20T19:48:49Z</time>
</trkpt>
<trkpt lat="38.23289609" lon="-1.11269551">
<ele>599</ele>
<time>2013-09-20T19:48:51Z</time>
</trkpt>
<trkpt lat="38.23284615" lon="-1.11294465">
<ele>600</ele>
<time>2013-09-20T19:48:53Z</time>
</trkpt>
<trkpt lat="38.23275573" lon="-1.1131668">
<ele>601</ele>
<time>2013-09-20T19:48:55Z</time>
</trkpt>
<trkpt lat="38.23264106" lon="-1.11335926">
<ele>598</ele>
<time>2013-09-20T19:48:57Z</time>
</trkpt>
<trkpt lat="38.23248904" lon="-1.11352083">
<ele>598</ele>
<time>2013-09-20T19:48:59Z</time>
</trkpt>
<trkpt lat="38.23237151" lon="-1.11363965">
<ele>597</ele>
<time>2013-09-20T19:49:01Z</time>
</trkpt>
<trkpt lat="38.23222526" lon="-1.11371963">
<ele>598</ele>
<time>2013-09-20T19:49:03Z</time>
</trkpt>
<trkpt lat="38.23208624" lon="-1.11378211">
<ele>601</ele>
<time>2013-09-20T19:49:05Z</time>
</trkpt>
<trkpt lat="38.2319677" lon="-1.11375619">
<ele>600</ele>
<time>2013-09-20T19:49:07Z</time>
</trkpt>
<trkpt lat="38.23188642" lon="-1.11370101">
<ele>601</ele>
<time>2013-09-20T19:49:09Z</time>
</trkpt>
<trkpt lat="38.23183232" lon="-1.11362468">
<ele>601</ele>
<time>2013-09-20T19:49:11Z</time>
</trkpt>
<trkpt lat="38.23180805" lon="-1.1135355">
<ele>600</ele>
<time>2013-09-20T19:49:13Z</time>
</trkpt>
<trkpt lat="38.23185087" lon="-1.11342765">
<ele>598</ele>
<time>2013-09-20T19:49:15Z</time>
</trkpt>
<trkpt lat="38.23191638" lon="-1.11333604">
<ele>601</ele>
<time>2013-09-20T19:49:17Z</time>
</trkpt>
<trkpt lat="38.23198939" lon="-1.11325881">
<ele>601</ele>
<time>2013-09-20T19:49:19Z</time>
</trkpt>
<trkpt lat="38.23210312" lon="-1.11323942">
<ele>602</ele>
<time>2013-09-20T19:49:21Z</time>
</trkpt>
<trkpt lat="38.23218071" lon="-1.11317823">
<ele>603</ele>
<time>2013-09-20T19:49:23Z</time>
</trkpt>
<trkpt lat="38.23227392" lon="-1.11312533">
<ele>604</ele>
<time>2013-09-20T19:49:25Z</time>
</trkpt>
<trkpt lat="38.23236083" lon="-1.11307108">
<ele>603</ele>
<time>2013-09-20T19:49:27Z</time>
</trkpt>
<trkpt lat="38.23238413" lon="-1.11298535">
<ele>604</ele>
<time>2013-09-20T19:49:29Z</time>
</trkpt>
<trkpt lat="38.23240584" lon="-1.11287399">
<ele>604</ele>
<time>2013-09-20T19:49:31Z</time>
</trkpt>
<trkpt lat="38.23238905" lon="-1.11278831">
<ele>608</ele>
<time>2013-09-20T19:49:33Z</time>
</trkpt>
<trkpt lat="38.23240361" lon="-1.11269395">
<ele>613</ele>
<time>2013-09-20T19:49:35Z</time>
</trkpt>
<trkpt lat="38.23243682" lon="-1.11260434">
<ele>614</ele>
<time>2013-09-20T19:49:37Z</time>
</trkpt>
<trkpt lat="38.23252578" lon="-1.1124984">
<ele>615</ele>
<time>2013-09-20T19:49:39Z</time>
</trkpt>
<trkpt lat="38.2326851" lon="-1.11250764">
<ele>616</ele>
<time>2013-09-20T19:49:41Z</time>
</trkpt>
<trkpt lat="38.23286311" lon="-1.11247519">
<ele>620</ele>
<time>2013-09-20T19:49:43Z</time>
</trkpt>
<trkpt lat="38.233011" lon="-1.11257745">
<ele>621</ele>
<time>2013-09-20T19:49:45Z</time>
</trkpt>
<trkpt lat="38.23316254" lon="-1.11273854">
<ele>622</ele>
<time>2013-09-20T19:49:47Z</time>
</trkpt>
<trkpt lat="38.23327313" lon="-1.11293033">
<ele>623</ele>
<time>2013-09-20T19:49:49Z</time>
</trkpt>
<trkpt lat="38.23335776" lon="-1.11318872">
<ele>624</ele>
<time>2013-09-20T19:49:51Z</time>
</trkpt>
<trkpt lat="38.23342187" lon="-1.1134168">
<ele>626</ele>
<time>2013-09-20T19:49:53Z</time>
</trkpt>
<trkpt lat="38.23341929" lon="-1.11366577">
<ele>627</ele>
<time>2013-09-20T19:49:55Z</time>
</trkpt>
<trkpt lat="38.2333718" lon="-1.11392104">
<ele>629</ele>
<time>2013-09-20T19:49:57Z</time>
</trkpt>
<trkpt lat="38.23326616" lon="-1.1141161">
<ele>630</ele>
<time>2013-09-20T19:49:59Z</time>
</trkpt>
<trkpt lat="38.23314088" lon="-1.11427405">
<ele>629</ele>
<time>2013-09-20T19:50:01Z</time>
</trkpt>
<trkpt lat="38.2330382" lon="-1.1143959">
<ele>629</ele>
<time>2013-09-20T19:50:03Z</time>
</trkpt>
<trkpt lat="38.23289868" lon="-1.11445284">
<ele>633</ele>
<time>2013-09-20T19:50:05Z</time>
</trkpt>
<trkpt lat="38.23276745" lon="-1.11446714">
<ele>634</ele>
<time>2013-09-20T19:50:07Z</time>
</trkpt>
<trkpt lat="38.23264727" lon="-1.11445738">
<ele>634</ele>
<time>2013-09-20T19:50:09Z</time>
</trkpt>
<trkpt lat="38.23250135" lon="-1.11438586">
<ele>633</ele>
<time>2013-09-20T19:50:11Z</time>
</trkpt>
<trkpt lat="38.23243666" lon="-1.11431526">
<ele>635</ele>
<time>2013-09-20T19:50:13Z</time>
</trkpt>
<trkpt lat="38.23239739" lon="-1.11425857">
<ele>635</ele>
<time>2013-09-20T19:50:15Z</time>
</trkpt>
<trkpt lat="38.23238206" lon="-1.1141836">
<ele>635</ele>
<time>2013-09-20T19:50:17Z</time>
</trkpt>
<trkpt lat="38.23242969" lon="-1.11410501">
<ele>636</ele>
<time>2013-09-20T19:50:19Z</time>
</trkpt>
<trkpt lat="38.23245962" lon="-1.11401941">
<ele>639</ele>
<time>2013-09-20T19:50:21Z</time>
</trkpt>
<trkpt lat="38.23250591" lon="-1.11392822">
<ele>638</ele>
<time>2013-09-20T19:50:23Z</time>
</trkpt>
<trkpt lat="38.23254722" lon="-1.11383242">
<ele>639</ele>
<time>2013-09-20T19:50:25Z</time>
</trkpt>
<trkpt lat="38.23257193" lon="-1.11373532">
<ele>642</ele>
<time>2013-09-20T19:50:27Z</time>
</trkpt>
<trkpt lat="38.2325866" lon="-1.11364234">
<ele>643</ele>
<time>2013-09-20T19:50:29Z</time>
</trkpt>
<trkpt lat="38.23260971" lon="-1.11351267">
<ele>645</ele>
<time>2013-09-20T19:50:31Z</time>
</trkpt>
<trkpt lat="38.23264782" lon="-1.11341857">
<ele>644</ele>
<time>2013-09-20T19:50:33Z</time>
</trkpt>
<trkpt lat="38.2327055" lon="-1.11335924">
<ele>645</ele>
<time>2013-09-20T19:50:35Z</time>
</trkpt>
<trkpt lat="38.23279458" lon="-1.11329345">
<ele>645</ele>
<time>2013-09-20T19:50:37Z</time>
</trkpt>
<trkpt lat="38.23288826" lon="-1.11321096">
<ele>646</ele>
<time>2013-09-20T19:50:39Z</time>
</trkpt>
<trkpt lat="38.23298757" lon="-1.11314596">
<ele>644</ele>
<time>2013-09-20T19:50:41Z</time>
</trkpt>
<trkpt lat="38.23308464" lon="-1.11309362">
<ele>646</ele>
<time>2013-09-20T19:50:43Z</time>
</trkpt>
<trkpt lat="38.23317476" lon="-1.1130651">
<ele>646</ele>
<time>2013-09-20T19:50:45Z</time>
</trkpt>
<trkpt lat="38.23329918" lon="-1.11302614">
<ele>646</ele>
<time>2013-09-20T19:50:47Z</time>
</trkpt>
<trkpt lat="38.23347783" lon="-1.11301452">
<ele>647</ele>
<time>2013-09-20T19:50:49Z</time>
</trkpt>
<trkpt lat="38.23364404" lon="-1.11306959">
<ele>649</ele>
<time>2013-09-20T19:50:51Z</time>
</trkpt>
<trkpt lat="38.23378847" lon="-1.11322995">
<ele>646</ele>
<time>2013-09-20T19:50:53Z</time>
</trkpt>
<trkpt lat="38.23394874" lon="-1.11345795">
<ele>647</ele>
<time>2013-09-20T19:50:55Z</time>
</trkpt>
<trkpt lat="38.23405472" lon="-1.11373982">
<ele>646</ele>
<time>2013-09-20T19:50:57Z</time>
</trkpt>
<trkpt lat="38.23410882" lon="-1.11404031">
<ele>646</ele>
<time>2013-09-20T19:50:59Z</time>
</trkpt>
<trkpt lat="38.2340646" lon="-1.11429694">
<ele>646</ele>
<time>2013-09-20T19:51:01Z</time>
</trkpt>
<trkpt lat="38.23390294" lon="-1.11446538">
<ele>645</ele>
<time>2013-09-20T19:51:03Z</time>
</trkpt>
<trkpt lat="38.2337964" lon="-1.11458392">
<ele>647</ele>
<time>2013-09-20T19:51:05Z</time>
</trkpt>
<trkpt lat="38.23369855" lon="-1.11445744">
<ele>653</ele>
<time>2013-09-20T19:51:07Z</time>
</trkpt>
<trkpt lat="38.23363728" lon="-1.11442819">
<ele>656</ele>
<time>2013-09-20T19:51:09Z</time>
</trkpt>
<trkpt lat="38.23358724" lon="-1.11436293">
<ele>655</ele>
<time>2013-09-20T19:51:11Z</time>
</trkpt>
<trkpt lat="38.23356247" lon="-1.1142725">
<ele>653</ele>
<time>2013-09-20T19:51:13Z</time>
</trkpt>
<trkpt lat="38.233552" lon="-1.11417745">
<ele>656</ele>
<time>2013-09-20T19:51:15Z</time>
</trkpt>
<trkpt lat="38.23354964" lon="-1.11407088">
<ele>656</ele>
<time>2013-09-20T19:51:17Z</time>
</trkpt>
<trkpt lat="38.23354127" lon="-1.11399513">
<ele>656</ele>
<time>2013-09-20T19:51:19Z</time>
</trkpt>
<trkpt lat="38.23354035" lon="-1.11390614">
<ele>654</ele>
<time>2013-09-20T19:51:21Z</time>
</trkpt>
<trkpt lat="38.23351425" lon="-1.11381818">
<ele>656</ele>
<time>2013-09-20T19:51:23Z</time>
</trkpt>
<trkpt lat="38.23349801" lon="-1.11372984">
<ele>656</ele>
<time>2013-09-20T19:51:25Z</time>
</trkpt>
<trkpt lat="38.23347948" lon="-1.1136414">
<ele>653</ele>
<time>2013-09-20T19:51:27Z</time>
</trkpt>
<trkpt lat="38.23345988" lon="-1.11355506">
<ele>652</ele>
<time>2013-09-20T19:51:29Z</time>
</trkpt>
<trkpt lat="38.23344666" lon="-1.11346875">
<ele>653</ele>
<time>2013-09-20T19:51:31Z</time>
</trkpt>
<trkpt lat="38.23343731" lon="-1.11342188">
<ele>651</ele>
<time>2013-09-20T19:51:33Z</time>
</trkpt>
<trkpt lat="38.23345891" lon="-1.11331556">
<ele>650</ele>
<time>2013-09-20T19:51:35Z</time>
</trkpt>
<trkpt lat="38.23347542" lon="-1.11321857">
<ele>650</ele>
<time>2013-09-20T19:51:37Z</time>
</trkpt>
<trkpt lat="38.23347114" lon="-1.11310421">
<ele>651</ele>
<time>2013-09-20T19:51:39Z</time>
</trkpt>
<trkpt lat="38.23343034" lon="-1.11305513">
<ele>651</ele>
<time>2013-09-20T19:51:41Z</time>
</trkpt>
<trkpt lat="38.23336835" lon="-1.11297811">
<ele>650</ele>
<time>2013-09-20T19:51:43Z</time>
</trkpt>
<trkpt lat="38.23330936" lon="-1.11288518">
<ele>648</ele>
<time>2013-09-20T19:51:45Z</time>
</trkpt>
<trkpt lat="38.23320028" lon="-1.11285775">
<ele>646</ele>
<time>2013-09-20T19:51:47Z</time>
</trkpt>
<trkpt lat="38.23309778" lon="-1.11285293">
<ele>643</ele>
<time>2013-09-20T19:51:49Z</time>
</trkpt>
<trkpt lat="38.23298658" lon="-1.11284063">
<ele>643</ele>
<time>2013-09-20T19:51:51Z</time>
</trkpt>
<trkpt lat="38.23286835" lon="-1.11284627">
<ele>642</ele>
<time>2013-09-20T19:51:53Z</time>
</trkpt>
<trkpt lat="38.23273656" lon="-1.11284472">
<ele>639</ele>
<time>2013-09-20T19:51:55Z</time>
</trkpt>
<trkpt lat="38.23258638" lon="-1.1128511">
<ele>641</ele>
<time>2013-09-20T19:51:57Z</time>
</trkpt>
<trkpt lat="38.23246497" lon="-1.11288102">
<ele>642</ele>
<time>2013-09-20T19:51:59Z</time>
</trkpt>
<trkpt lat="38.23233294" lon="-1.11290501">
<ele>640</ele>
<time>2013-09-20T19:52:01Z</time>
</trkpt>
<trkpt lat="38.23218864" lon="-1.1129418">
<ele>639</ele>
<time>2013-09-20T19:52:03Z</time>
</trkpt>
<trkpt lat="38.23207987" lon="-1.11300744">
<ele>636</ele>
<time>2013-09-20T19:52:05Z</time>
</trkpt>
<trkpt lat="38.23194676" lon="-1.11308454">
<ele>632</ele>
<time>2013-09-20T19:52:07Z</time>
</trkpt>
<trkpt lat="38.23182326" lon="-1.11318371">
<ele>631</ele>
<time>2013-09-20T19:52:09Z</time>
</trkpt>
<trkpt lat="38.23169867" lon="-1.11328922">
<ele>631</ele>
<time>2013-09-20T19:52:11Z</time>
</trkpt>
<trkpt lat="38.23157305" lon="-1.11336395">
<ele>629</ele>
<time>2013-09-20T19:52:13Z</time>
</trkpt>
<trkpt lat="38.2314351" lon="-1.11345524">
<ele>628</ele>
<time>2013-09-20T19:52:15Z</time>
</trkpt>
<trkpt lat="38.23131031" lon="-1.11355387">
<ele>627</ele>
<time>2013-09-20T19:52:17Z</time>
</trkpt>
<trkpt lat="38.23116751" lon="-1.11363846">
<ele>625</ele>
<time>2013-09-20T19:52:19Z</time>
</trkpt>
<trkpt lat="38.23103545" lon="-1.11371513">
<ele>623</ele>
<time>2013-09-20T19:52:21Z</time>
</trkpt>
<trkpt lat="38.23087852" lon="-1.11382233">
<ele>621</ele>
<time>2013-09-20T19:52:23Z</time>
</trkpt>
<trkpt lat="38.23075229" lon="-1.11391887">
<ele>622</ele>
<time>2013-09-20T19:52:25Z</time>
</trkpt>
<trkpt lat="38.23063532" lon="-1.11401656">
<ele>620</ele>
<time>2013-09-20T19:52:27Z</time>
</trkpt>
<trkpt lat="38.23051682" lon="-1.11410547">
<ele>620</ele>
<time>2013-09-20T19:52:29Z</time>
</trkpt>
<trkpt lat="38.23041358" lon="-1.11415869">
<ele>617</ele>
<time>2013-09-20T19:52:31Z</time>
</trkpt>
<trkpt lat="38.2302732" lon="-1.11424659">
<ele>616</ele>
<time>2013-09-20T19:52:33Z</time>
</trkpt>
<trkpt lat="38.23015599" lon="-1.11436199">
<ele>614</ele>
<time>2013-09-20T19:52:35Z</time>
</trkpt>
<trkpt lat="38.23005049" lon="-1.11448127">
<ele>610</ele>
<time>2013-09-20T19:52:37Z</time>
</trkpt>
<trkpt lat="38.22991914" lon="-1.11459767">
<ele>610</ele>
<time>2013-09-20T19:52:39Z</time>
</trkpt>
<trkpt lat="38.22979594" lon="-1.11471073">
<ele>610</ele>
<time>2013-09-20T19:52:41Z</time>
</trkpt>
<trkpt lat="38.22969013" lon="-1.11479615">
<ele>608</ele>
<time>2013-09-20T19:52:43Z</time>
</trkpt>
<trkpt lat="38.2295939" lon="-1.11488405">
<ele>605</ele>
<time>2013-09-20T19:52:45Z</time>
</trkpt>
<trkpt lat="38.22944641" lon="-1.11496953">
<ele>603</ele>
<time>2013-09-20T19:52:47Z</time>
</trkpt>
<trkpt lat="38.22931715" lon="-1.11507167">
<ele>600</ele>
<time>2013-09-20T19:52:49Z</time>
</trkpt>
<trkpt lat="38.22919289" lon="-1.11517436">
<ele>598</ele>
<time>2013-09-20T19:52:51Z</time>
</trkpt>
<trkpt lat="38.22906435" lon="-1.11530391">
<ele>598</ele>
<time>2013-09-20T19:52:53Z</time>
</trkpt>
<trkpt lat="38.22895079" lon="-1.11546235">
<ele>596</ele>
<time>2013-09-20T19:52:55Z</time>
</trkpt>
<trkpt lat="38.22883738" lon="-1.11561507">
<ele>595</ele>
<time>2013-09-20T19:52:57Z</time>
</trkpt>
<trkpt lat="38.22871729" lon="-1.11573742">
<ele>594</ele>
<time>2013-09-20T19:52:59Z</time>
</trkpt>
<trkpt lat="38.22859479" lon="-1.11585249">
<ele>592</ele>
<time>2013-09-20T19:53:01Z</time>
</trkpt>
<trkpt lat="38.22848251" lon="-1.11601278">
<ele>591</ele>
<time>2013-09-20T19:53:03Z</time>
</trkpt>
<trkpt lat="38.22837219" lon="-1.11613454">
<ele>587</ele>
<time>2013-09-20T19:53:05Z</time>
</trkpt>
<trkpt lat="38.2282699" lon="-1.11626204">
<ele>584</ele>
<time>2013-09-20T19:53:07Z</time>
</trkpt>
<trkpt lat="38.22815029" lon="-1.11633781">
<ele>584</ele>
<time>2013-09-20T19:53:09Z</time>
</trkpt>
<trkpt lat="38.22804573" lon="-1.11639968">
<ele>584</ele>
<time>2013-09-20T19:53:11Z</time>
</trkpt>
<trkpt lat="38.22795144" lon="-1.11649038">
<ele>585</ele>
<time>2013-09-20T19:53:13Z</time>
</trkpt>
<trkpt lat="38.22783558" lon="-1.11658112">
<ele>583</ele>
<time>2013-09-20T19:53:15Z</time>
</trkpt>
<trkpt lat="38.22771427" lon="-1.1166601">
<ele>579</ele>
<time>2013-09-20T19:53:17Z</time>
</trkpt>
<trkpt lat="38.22762143" lon="-1.11677404">
<ele>576</ele>
<time>2013-09-20T19:53:19Z</time>
</trkpt>
<trkpt lat="38.22749462" lon="-1.11689381">
<ele>573</ele>
<time>2013-09-20T19:53:21Z</time>
</trkpt>
<trkpt lat="38.22737312" lon="-1.11701227">
<ele>573</ele>
<time>2013-09-20T19:53:23Z</time>
</trkpt>
<trkpt lat="38.22726693" lon="-1.11712937">
<ele>571</ele>
<time>2013-09-20T19:53:25Z</time>
</trkpt>
<trkpt lat="38.22715395" lon="-1.11730328">
<ele>571</ele>
<time>2013-09-20T19:53:27Z</time>
</trkpt>
<trkpt lat="38.22704962" lon="-1.11753143">
<ele>569</ele>
<time>2013-09-20T19:53:29Z</time>
</trkpt>
<trkpt lat="38.2269441" lon="-1.11772928">
<ele>568</ele>
<time>2013-09-20T19:53:31Z</time>
</trkpt>
<trkpt lat="38.22683666" lon="-1.11788424">
<ele>564</ele>
<time>2013-09-20T19:53:33Z</time>
</trkpt>
<trkpt lat="38.22669197" lon="-1.11798873">
<ele>561</ele>
<time>2013-09-20T19:53:35Z</time>
</trkpt>
<trkpt lat="38.22659112" lon="-1.11794172">
<ele>561</ele>
<time>2013-09-20T19:53:37Z</time>
</trkpt>
<trkpt lat="38.22652839" lon="-1.11789482">
<ele>561</ele>
<time>2013-09-20T19:53:39Z</time>
</trkpt>
<trkpt lat="38.22663026" lon="-1.11779234">
<ele>558</ele>
<time>2013-09-20T19:53:41Z</time>
</trkpt>
<trkpt lat="38.22674256" lon="-1.11772875">
<ele>552</ele>
<time>2013-09-20T19:53:43Z</time>
</trkpt>
<trkpt lat="38.22685378" lon="-1.11766262">
<ele>553</ele>
<time>2013-09-20T19:53:45Z</time>
</trkpt>
<trkpt lat="38.22697657" lon="-1.11768283">
<ele>551</ele>
<time>2013-09-20T19:53:47Z</time>
</trkpt>
<trkpt lat="38.2271219" lon="-1.11768114">
<ele>546</ele>
<time>2013-09-20T19:53:49Z</time>
</trkpt>
<trkpt lat="38.22714167" lon="-1.1177013">
<ele>547</ele>
<time>2013-09-20T19:53:51Z</time>
</trkpt>
<trkpt lat="38.22728718" lon="-1.11779046">
<ele>548</ele>
<time>2013-09-20T19:53:53Z</time>
</trkpt>
<trkpt lat="38.22747425" lon="-1.11794675">
<ele>544</ele>
<time>2013-09-20T19:53:55Z</time>
</trkpt>
<trkpt lat="38.22770192" lon="-1.11803479">
<ele>541</ele>
<time>2013-09-20T19:53:57Z</time>
</trkpt>
<trkpt lat="38.22786199" lon="-1.11822277">
<ele>539</ele>
<time>2013-09-20T19:53:59Z</time>
</trkpt>
<trkpt lat="38.2280248" lon="-1.11842252">
<ele>537</ele>
<time>2013-09-20T19:54:01Z</time>
</trkpt>
<trkpt lat="38.22818386" lon="-1.11863299">
<ele>536</ele>
<time>2013-09-20T19:54:03Z</time>
</trkpt>
<trkpt lat="38.22834328" lon="-1.11881592">
<ele>536</ele>
<time>2013-09-20T19:54:05Z</time>
</trkpt>
<trkpt lat="38.22851" lon="-1.11900803">
<ele>536</ele>
<time>2013-09-20T19:54:07Z</time>
</trkpt>
<trkpt lat="38.22868743" lon="-1.11920725">
<ele>535</ele>
<time>2013-09-20T19:54:09Z</time>
</trkpt>
<trkpt lat="38.22884891" lon="-1.11939896">
<ele>533</ele>
<time>2013-09-20T19:54:11Z</time>
</trkpt>
<trkpt lat="38.22901456" lon="-1.1195747">
<ele>529</ele>
<time>2013-09-20T19:54:13Z</time>
</trkpt>
<trkpt lat="38.22917786" lon="-1.11975018">
<ele>530</ele>
<time>2013-09-20T19:54:15Z</time>
</trkpt>
<trkpt lat="38.22935483" lon="-1.1199163">
<ele>530</ele>
<time>2013-09-20T19:54:17Z</time>
</trkpt>
<trkpt lat="38.22951508" lon="-1.1200648">
<ele>529</ele>
<time>2013-09-20T19:54:19Z</time>
</trkpt>
<trkpt lat="38.22968793" lon="-1.12019337">
<ele>529</ele>
<time>2013-09-20T19:54:21Z</time>
</trkpt>
<trkpt lat="38.22987884" lon="-1.12031635">
<ele>530</ele>
<time>2013-09-20T19:54:23Z</time>
</trkpt>
<trkpt lat="38.23004461" lon="-1.12043481">
<ele>531</ele>
<time>2013-09-20T19:54:25Z</time>
</trkpt>
<trkpt lat="38.2302305" lon="-1.12049078">
<ele>530</ele>
<time>2013-09-20T19:54:27Z</time>
</trkpt>
<trkpt lat="38.23039671" lon="-1.12055897">
<ele>528</ele>
<time>2013-09-20T19:54:29Z</time>
</trkpt>
<trkpt lat="38.23054141" lon="-1.12058691">
<ele>526</ele>
<time>2013-09-20T19:54:31Z</time>
</trkpt>
<trkpt lat="38.23071281" lon="-1.12062544">
<ele>524</ele>
<time>2013-09-20T19:54:33Z</time>
</trkpt>
<trkpt lat="38.23088726" lon="-1.12066205">
<ele>523</ele>
<time>2013-09-20T19:54:35Z</time>
</trkpt>
<trkpt lat="38.23104417" lon="-1.12067793">
<ele>520</ele>
<time>2013-09-20T19:54:37Z</time>
</trkpt>
<trkpt lat="38.23119429" lon="-1.12066137">
<ele>516</ele>
<time>2013-09-20T19:54:39Z</time>
</trkpt>
<trkpt lat="38.23134835" lon="-1.12065055">
<ele>513</ele>
<time>2013-09-20T19:54:41Z</time>
</trkpt>
<trkpt lat="38.23149394" lon="-1.12064327">
<ele>512</ele>
<time>2013-09-20T19:54:43Z</time>
</trkpt>
<trkpt lat="38.23160372" lon="-1.12061049">
<ele>511</ele>
<time>2013-09-20T19:54:45Z</time>
</trkpt>
<trkpt lat="38.23171512" lon="-1.12057462">
<ele>510</ele>
<time>2013-09-20T19:54:47Z</time>
</trkpt>
<trkpt lat="38.2318195" lon="-1.12053311">
<ele>510</ele>
<time>2013-09-20T19:54:49Z</time>
</trkpt>
<trkpt lat="38.23189444" lon="-1.12047895">
<ele>508</ele>
<time>2013-09-20T19:54:51Z</time>
</trkpt>
<trkpt lat="38.23196235" lon="-1.1203991">
<ele>507</ele>
<time>2013-09-20T19:54:53Z</time>
</trkpt>
<trkpt lat="38.23200888" lon="-1.12031235">
<ele>505</ele>
<time>2013-09-20T19:54:55Z</time>
</trkpt>
<trkpt lat="38.23200416" lon="-1.12027959">
<ele>506</ele>
<time>2013-09-20T19:54:57Z</time>
</trkpt>
<trkpt lat="38.23201534" lon="-1.12019646">
<ele>505</ele>
<time>2013-09-20T19:54:59Z</time>
</trkpt>
<trkpt lat="38.23203204" lon="-1.12011297">
<ele>505</ele>
<time>2013-09-20T19:55:01Z</time>
</trkpt>
<trkpt lat="38.23204573" lon="-1.12003029">
<ele>505</ele>
<time>2013-09-20T19:55:03Z</time>
</trkpt>
<trkpt lat="38.23203727" lon="-1.11992767">
<ele>500</ele>
<time>2013-09-20T19:55:05Z</time>
</trkpt>
<trkpt lat="38.23202771" lon="-1.11984328">
<ele>499</ele>
<time>2013-09-20T19:55:07Z</time>
</trkpt>
<trkpt lat="38.23198668" lon="-1.11984301">
<ele>498</ele>
<time>2013-09-20T19:55:09Z</time>
</trkpt>
<trkpt lat="38.23187062" lon="-1.11983239">
<ele>497</ele>
<time>2013-09-20T19:55:11Z</time>
</trkpt>
<trkpt lat="38.23175432" lon="-1.11988063">
<ele>493</ele>
<time>2013-09-20T19:55:13Z</time>
</trkpt>
<trkpt lat="38.23163107" lon="-1.12004206">
<ele>490</ele>
<time>2013-09-20T19:55:15Z</time>
</trkpt>
<trkpt lat="38.23152441" lon="-1.12019377">
<ele>490</ele>
<time>2013-09-20T19:55:17Z</time>
</trkpt>
<trkpt lat="38.23142821" lon="-1.12034552">
<ele>491</ele>
<time>2013-09-20T19:55:19Z</time>
</trkpt>
<trkpt lat="38.23130417" lon="-1.12053222">
<ele>490</ele>
<time>2013-09-20T19:55:21Z</time>
</trkpt>
<trkpt lat="38.23119736" lon="-1.1207119">
<ele>491</ele>
<time>2013-09-20T19:55:23Z</time>
</trkpt>
<trkpt lat="38.23111829" lon="-1.12086564">
<ele>491</ele>
<time>2013-09-20T19:55:25Z</time>
</trkpt>
<trkpt lat="38.23101561" lon="-1.12103298">
<ele>489</ele>
<time>2013-09-20T19:55:27Z</time>
</trkpt>
<trkpt lat="38.23088507" lon="-1.1211444">
<ele>488</ele>
<time>2013-09-20T19:55:29Z</time>
</trkpt>
<trkpt lat="38.2307702" lon="-1.12124483">
<ele>487</ele>
<time>2013-09-20T19:55:31Z</time>
</trkpt>
<trkpt lat="38.23066339" lon="-1.12133749">
<ele>486</ele>
<time>2013-09-20T19:55:33Z</time>
</trkpt>
<trkpt lat="38.23058756" lon="-1.1214366">
<ele>482</ele>
<time>2013-09-20T19:55:35Z</time>
</trkpt>
<trkpt lat="38.23047831" lon="-1.1215166">
<ele>483</ele>
<time>2013-09-20T19:55:37Z</time>
</trkpt>
<trkpt lat="38.23037553" lon="-1.1215495">
<ele>472</ele>
<time>2013-09-20T19:55:39Z</time>
</trkpt>
<trkpt lat="38.23038273" lon="-1.12147037">
<ele>471</ele>
<time>2013-09-20T19:55:41Z</time>
</trkpt>
<trkpt lat="38.23047062" lon="-1.12135114">
<ele>474</ele>
<time>2013-09-20T19:55:43Z</time>
</trkpt>
<trkpt lat="38.23059022" lon="-1.12129636">
<ele>476</ele>
<time>2013-09-20T19:55:45Z</time>
</trkpt>
<trkpt lat="38.23070712" lon="-1.12125844">
<ele>476</ele>
<time>2013-09-20T19:55:47Z</time>
</trkpt>
<trkpt lat="38.23082158" lon="-1.1212079">
<ele>476</ele>
<time>2013-09-20T19:55:49Z</time>
</trkpt>
<trkpt lat="38.23087445" lon="-1.12114537">
<ele>479</ele>
<time>2013-09-20T19:55:51Z</time>
</trkpt>
<trkpt lat="38.23092488" lon="-1.12106757">
<ele>477</ele>
<time>2013-09-20T19:55:53Z</time>
</trkpt>
<trkpt lat="38.2309658" lon="-1.12100001">
<ele>478</ele>
<time>2013-09-20T19:55:55Z</time>
</trkpt>
<trkpt lat="38.23097834" lon="-1.12095484">
<ele>480</ele>
<time>2013-09-20T19:55:57Z</time>
</trkpt>
<trkpt lat="38.2309209" lon="-1.12091959">
<ele>476</ele>
<time>2013-09-20T19:55:59Z</time>
</trkpt>
<trkpt lat="38.23080241" lon="-1.12096718">
<ele>475</ele>
<time>2013-09-20T19:56:01Z</time>
</trkpt>
<trkpt lat="38.2306987" lon="-1.12107966">
<ele>476</ele>
<time>2013-09-20T19:56:03Z</time>
</trkpt>
<trkpt lat="38.23061214" lon="-1.12121835">
<ele>475</ele>
<time>2013-09-20T19:56:05Z</time>
</trkpt>
<trkpt lat="38.23051185" lon="-1.12136912">
<ele>475</ele>
<time>2013-09-20T19:56:07Z</time>
</trkpt>
<trkpt lat="38.23039209" lon="-1.12149153">
<ele>473</ele>
<time>2013-09-20T19:56:09Z</time>
</trkpt>
<trkpt lat="38.2303075" lon="-1.1216493">
<ele>473</ele>
<time>2013-09-20T19:56:11Z</time>
</trkpt>
<trkpt lat="38.23021919" lon="-1.12179456">
<ele>471</ele>
<time>2013-09-20T19:56:13Z</time>
</trkpt>
<trkpt lat="38.23009257" lon="-1.12188961">
<ele>468</ele>
<time>2013-09-20T19:56:15Z</time>
</trkpt>
<trkpt lat="38.23003425" lon="-1.12182007">
<ele>466</ele>
<time>2013-09-20T19:56:17Z</time>
</trkpt>
<trkpt lat="38.2300529" lon="-1.12174405">
<ele>464</ele>
<time>2013-09-20T19:56:19Z</time>
</trkpt>
<trkpt lat="38.23015556" lon="-1.1216945">
<ele>461</ele>
<time>2013-09-20T19:56:21Z</time>
</trkpt>
<trkpt lat="38.23026456" lon="-1.12163857">
<ele>461</ele>
<time>2013-09-20T19:56:23Z</time>
</trkpt>
<trkpt lat="38.23037192" lon="-1.12158831">
<ele>459</ele>
<time>2013-09-20T19:56:25Z</time>
</trkpt>
<trkpt lat="38.23048911" lon="-1.12154776">
<ele>457</ele>
<time>2013-09-20T19:56:27Z</time>
</trkpt>
<trkpt lat="38.23059961" lon="-1.12149404">
<ele>456</ele>
<time>2013-09-20T19:56:29Z</time>
</trkpt>
<trkpt lat="38.23071914" lon="-1.12142198">
<ele>454</ele>
<time>2013-09-20T19:56:31Z</time>
</trkpt>
<trkpt lat="38.23081293" lon="-1.12137551">
<ele>455</ele>
<time>2013-09-20T19:56:33Z</time>
</trkpt>
<trkpt lat="38.23088733" lon="-1.12130467">
<ele>454</ele>
<time>2013-09-20T19:56:35Z</time>
</trkpt>
<trkpt lat="38.23094471" lon="-1.12125151">
<ele>454</ele>
<time>2013-09-20T19:56:37Z</time>
</trkpt>
<trkpt lat="38.23099377" lon="-1.12118386">
<ele>453</ele>
<time>2013-09-20T19:56:39Z</time>
</trkpt>
<trkpt lat="38.23099805" lon="-1.12113669">
<ele>454</ele>
<time>2013-09-20T19:56:41Z</time>
</trkpt>
<trkpt lat="38.2310277" lon="-1.12109404">
<ele>456</ele>
<time>2013-09-20T19:56:43Z</time>
</trkpt>
<trkpt lat="38.23102562" lon="-1.12106231">
<ele>456</ele>
<time>2013-09-20T19:56:45Z</time>
</trkpt>
<trkpt lat="38.23098135" lon="-1.12104532">
<ele>457</ele>
<time>2013-09-20T19:56:47Z</time>
</trkpt>
<trkpt lat="38.23086309" lon="-1.1211288">
<ele>457</ele>
<time>2013-09-20T19:56:49Z</time>
</trkpt>
<trkpt lat="38.23075492" lon="-1.1211903">
<ele>452</ele>
<time>2013-09-20T19:56:51Z</time>
</trkpt>
<trkpt lat="38.23064484" lon="-1.12126632">
<ele>452</ele>
<time>2013-09-20T19:56:53Z</time>
</trkpt>
<trkpt lat="38.23056754" lon="-1.1213662">
<ele>452</ele>
<time>2013-09-20T19:56:55Z</time>
</trkpt>
<trkpt lat="38.23044996" lon="-1.12151369">
<ele>452</ele>
<time>2013-09-20T19:56:57Z</time>
</trkpt>
<trkpt lat="38.23037647" lon="-1.12164425">
<ele>452</ele>
<time>2013-09-20T19:56:59Z</time>
</trkpt>
<trkpt lat="38.2302802" lon="-1.12177371">
<ele>454</ele>
<time>2013-09-20T19:57:01Z</time>
</trkpt>
<trkpt lat="38.23018539" lon="-1.12188424">
<ele>453</ele>
<time>2013-09-20T19:57:03Z</time>
</trkpt>
<trkpt lat="38.23004965" lon="-1.12193285">
<ele>453</ele>
<time>2013-09-20T19:57:05Z</time>
</trkpt>
<trkpt lat="38.22998398" lon="-1.12188724">
<ele>452</ele>
<time>2013-09-20T19:57:07Z</time>
</trkpt>
<trkpt lat="38.22994645" lon="-1.12184546">
<ele>452</ele>
<time>2013-09-20T19:57:09Z</time>
</trkpt>
<trkpt lat="38.22994621" lon="-1.12176742">
<ele>452</ele>
<time>2013-09-20T19:57:11Z</time>
</trkpt>
<trkpt lat="38.23000696" lon="-1.12167343">
<ele>452</ele>
<time>2013-09-20T19:57:13Z</time>
</trkpt>
<trkpt lat="38.23011527" lon="-1.1216166">
<ele>450</ele>
<time>2013-09-20T19:57:15Z</time>
</trkpt>
<trkpt lat="38.23022547" lon="-1.12158804">
<ele>446</ele>
<time>2013-09-20T19:57:17Z</time>
</trkpt>
<trkpt lat="38.23032474" lon="-1.12155294">
<ele>443</ele>
<time>2013-09-20T19:57:19Z</time>
</trkpt>
<trkpt lat="38.23043575" lon="-1.12148731">
<ele>442</ele>
<time>2013-09-20T19:57:21Z</time>
</trkpt>
<trkpt lat="38.23054811" lon="-1.12143013">
<ele>443</ele>
<time>2013-09-20T19:57:23Z</time>
</trkpt>
<trkpt lat="38.23065084" lon="-1.12139044">
<ele>443</ele>
<time>2013-09-20T19:57:25Z</time>
</trkpt>
<trkpt lat="38.23072992" lon="-1.12132989">
<ele>443</ele>
<time>2013-09-20T19:57:27Z</time>
</trkpt>
<trkpt lat="38.23081446" lon="-1.12124722">
<ele>442</ele>
<time>2013-09-20T19:57:29Z</time>
</trkpt>
<trkpt lat="38.2308635" lon="-1.12115859">
<ele>444</ele>
<time>2013-09-20T19:57:31Z</time>
</trkpt>
<trkpt lat="38.23085279" lon="-1.12107396">
<ele>442</ele>
<time>2013-09-20T19:57:33Z</time>
</trkpt>
<trkpt lat="38.23075688" lon="-1.12103126">
<ele>441</ele>
<time>2013-09-20T19:57:35Z</time>
</trkpt>
<trkpt lat="38.23063189" lon="-1.12107091">
<ele>441</ele>
<time>2013-09-20T19:57:37Z</time>
</trkpt>
<trkpt lat="38.2305483" lon="-1.12114252">
<ele>445</ele>
<time>2013-09-20T19:57:39Z</time>
</trkpt>
<trkpt lat="38.23046492" lon="-1.12123123">
<ele>446</ele>
<time>2013-09-20T19:57:41Z</time>
</trkpt>
<trkpt lat="38.23035195" lon="-1.12134345">
<ele>447</ele>
<time>2013-09-20T19:57:43Z</time>
</trkpt>
<trkpt lat="38.23027269" lon="-1.12151521">
<ele>446</ele>
<time>2013-09-20T19:57:45Z</time>
</trkpt>
<trkpt lat="38.23018107" lon="-1.12165358">
<ele>444</ele>
<time>2013-09-20T19:57:47Z</time>
</trkpt>
<trkpt lat="38.23008348" lon="-1.12163104">
<ele>436</ele>
<time>2013-09-20T19:57:49Z</time>
</trkpt>
<trkpt lat="38.23005533" lon="-1.12149446">
<ele>436</ele>
<time>2013-09-20T19:57:51Z</time>
</trkpt>
<trkpt lat="38.23014095" lon="-1.12143112">
<ele>434</ele>
<time>2013-09-20T19:57:53Z</time>
</trkpt>
<trkpt lat="38.23024909" lon="-1.1213985">
<ele>433</ele>
<time>2013-09-20T19:57:55Z</time>
</trkpt>
<trkpt lat="38.23029516" lon="-1.12137536">
<ele>433</ele>
<time>2013-09-20T19:57:57Z</time>
</trkpt>
<trkpt lat="38.23029597" lon="-1.12127784">
<ele>430</ele>
<time>2013-09-20T19:57:59Z</time>
</trkpt>
<trkpt lat="38.23024059" lon="-1.12121624">
<ele>427</ele>
<time>2013-09-20T19:58:01Z</time>
</trkpt>
<trkpt lat="38.23018135" lon="-1.12129007">
<ele>428</ele>
<time>2013-09-20T19:58:03Z</time>
</trkpt>
<trkpt lat="38.23010291" lon="-1.12125453">
<ele>424</ele>
<time>2013-09-20T19:58:05Z</time>
</trkpt>
<trkpt lat="38.23003042" lon="-1.12127989">
<ele>426</ele>
<time>2013-09-20T19:58:07Z</time>
</trkpt>
<trkpt lat="38.22997081" lon="-1.12129493">
<ele>424</ele>
<time>2013-09-20T19:58:09Z</time>
</trkpt>
<trkpt lat="38.22992631" lon="-1.12120086">
<ele>421</ele>
<time>2013-09-20T19:58:11Z</time>
</trkpt>
<trkpt lat="38.2299267" lon="-1.12113076">
<ele>421</ele>
<time>2013-09-20T19:58:13Z</time>
</trkpt>
<trkpt lat="38.22992965" lon="-1.1210593">
<ele>417</ele>
<time>2013-09-20T19:58:15Z</time>
</trkpt>
<trkpt lat="38.22991156" lon="-1.12097286">
<ele>413</ele>
<time>2013-09-20T19:58:17Z</time>
</trkpt>
<trkpt lat="38.22987821" lon="-1.1209122">
<ele>412</ele>
<time>2013-09-20T19:58:19Z</time>
</trkpt>
<trkpt lat="38.22982729" lon="-1.12084828">
<ele>410</ele>
<time>2013-09-20T19:58:21Z</time>
</trkpt>
<trkpt lat="38.22977672" lon="-1.12080432">
<ele>409</ele>
<time>2013-09-20T19:58:23Z</time>
</trkpt>
<trkpt lat="38.22972831" lon="-1.12078335">
<ele>406</ele>
<time>2013-09-20T19:58:25Z</time>
</trkpt>
<trkpt lat="38.22969361" lon="-1.120742">
<ele>405</ele>
<time>2013-09-20T19:58:27Z</time>
</trkpt>
<trkpt lat="38.22966068" lon="-1.12071706">
<ele>405</ele>
<time>2013-09-20T19:58:29Z</time>
</trkpt>
<trkpt lat="38.22967215" lon="-1.12073964">
<ele>405</ele>
<time>2013-09-20T19:58:31Z</time>
</trkpt>
<trkpt lat="38.22970346" lon="-1.12076686">
<ele>406</ele>
<time>2013-09-20T19:58:33Z</time>
</trkpt>
<trkpt lat="38.22970217" lon="-1.12076643">
<ele>406</ele>
<time>2013-09-20T19:58:35Z</time>
</trkpt>
<trkpt lat="38.22969842" lon="-1.12076718">
<ele>406</ele>
<time>2013-09-20T19:58:37Z</time>
</trkpt>
<trkpt lat="38.22970052" lon="-1.12076215">
<ele>406</ele>
<time>2013-09-20T19:58:39Z</time>
</trkpt>
<trkpt lat="38.22970104" lon="-1.12076316">
<ele>406</ele>
<time>2013-09-20T19:58:41Z</time>
</trkpt>
<trkpt lat="38.22970282" lon="-1.12076517">
<ele>406</ele>
<time>2013-09-20T19:58:43Z</time>
</trkpt>
<trkpt lat="38.22970456" lon="-1.12076642">
<ele>406</ele>
<time>2013-09-20T19:58:45Z</time>
</trkpt>
<trkpt lat="38.22970458" lon="-1.12076718">
<ele>406</ele>
<time>2013-09-20T19:58:47Z</time>
</trkpt>
<trkpt lat="38.22970463" lon="-1.12076554">
<ele>406</ele>
<time>2013-09-20T19:58:49Z</time>
</trkpt>
<trkpt lat="38.22970417" lon="-1.12076515">
<ele>406</ele>
<time>2013-09-20T19:58:51Z</time>
</trkpt>
<trkpt lat="38.22970409" lon="-1.12076504">
<ele>406</ele>
<time>2013-09-20T19:58:53Z</time>
</trkpt>
<trkpt lat="38.22970418" lon="-1.12076492">
<ele>406</ele>
<time>2013-09-20T19:58:55Z</time>
</trkpt>
<trkpt lat="38.22970419" lon="-1.12076415">
<ele>406</ele>
<time>2013-09-20T19:58:57Z</time>
</trkpt>
<trkpt lat="38.22970393" lon="-1.12076269">
<ele>406</ele>
<time>2013-09-20T19:58:59Z</time>
</trkpt>
<trkpt lat="38.22970312" lon="-1.12076029">
<ele>406</ele>
<time>2013-09-20T19:59:01Z</time>
</trkpt>
<trkpt lat="38.22970155" lon="-1.12075733">
<ele>406</ele>
<time>2013-09-20T19:59:03Z</time>
</trkpt>
<trkpt lat="38.22969983" lon="-1.12075147">
<ele>406</ele>
<time>2013-09-20T19:59:05Z</time>
</trkpt>
<trkpt lat="38.22969893" lon="-1.12074959">
<ele>406</ele>
<time>2013-09-20T19:59:07Z</time>
</trkpt>
<trkpt lat="38.22969823" lon="-1.12074982">
<ele>406</ele>
<time>2013-09-20T19:59:09Z</time>
</trkpt>
<trkpt lat="38.22969662" lon="-1.12076081">
<ele>406</ele>
<time>2013-09-20T19:59:11Z</time>
</trkpt>
<trkpt lat="38.22969662" lon="-1.12076081">
<ele>406</ele>
<time>2013-09-20T19:59:13Z</time>
</trkpt>
<trkpt lat="38.22970081" lon="-1.12075615">
<ele>407</ele>
<time>2013-09-20T19:59:15Z</time>
</trkpt>
<trkpt lat="38.22969744" lon="-1.12074851">
<ele>407</ele>
<time>2013-09-20T19:59:17Z</time>
</trkpt>
<trkpt lat="" lon="">
<ele></ele>
<time>2013-09-20TZ</time>
</trkpt>
</trkseg>
</trk>
<wpt lat="" lon="">
	<name></name>
	<desc></desc>
	<cmt></cmt>
	<photoid></photoid>
	<type></type>
</wpt>
</gpx>
